ECMWFNIL_sfc_dewp_000.txt.gz
Dewpoint
67 68 68 67 67 66 65 65 66 65 65 65 64 65 67 66 68 68 67 67 68 67 67 68 68 68 68 68 69 69 68 69 69 68 67 66 65 65 65 65 65 66
65 68 67 67 66 67 66 66 66 66 66 65 65 66 67 68 68 67 67 68 68 66 66 67 68 68 67 68 68 68 69 68 68 69 66 65 66 66 65 65 65 66
66 66 66 64 65 66 67 67 66 66 66 67 67 67 68 69 68 67 67 67 67 67 67 67 67 69 67 65 65 68 68 68 68 69 69 67 67 66 66 66 66 65
66 65 66 66 65 65 66 66 66 67 67 67 67 67 68 68 68 68 68 68 68 67 67 67 67 67 67 67 67 67 68 68 69 68 66 66 67 67 66 66 66 65
66 66 66 66 66 66 65 65 65 65 66 66 67 68 68 67 67 68 68 67 65 66 67 67 67 67 67 67 66 66 65 68 68 69 68 68 67 67 66 66 65 65
65 65 66 65 66 65 65 64 64 65 65 65 66 67 67 66 67 66 66 66 67 67 67 67 67 67 67 68 68 67 67 68 69 69 69 68 67 67 66 66 65 65
64 64 64 64 64 64 64 64 64 65 65 65 65 65 66 66 66 65 66 66 66 67 67 67 67 66 66 67 67 67 67 67 68 67 67 67 68 66 66 66 66 65
63 63 63 63 64 63 64 64 64 64 65 65 65 65 65 65 65 66 66 66 66 66 67 67 66 66 66 67 66 66 66 66 66 66 66 66 68 67 66 66 66 65
62 62 62 63 62 62 62 63 64 64 65 65 64 64 65 66 66 67 66 66 65 65 65 65 66 66 67 66 66 66 65 65 66 65 65 65 65 65 66 67 67 67
61 62 62 62 62 62 62 62 63 64 66 65 65 65 65 66 66 66 66 65 65 66 66 65 65 66 66 66 66 65 65 65 65 64 64 65 66 66 67 67 67 67
61 61 61 61 61 62 62 63 63 64 65 65 65 65 65 66 66 66 65 65 65 65 65 65 65 65 65 65 65 66 67 66 66 66 66 65 65 65 65 66 67 67
61 61 61 61 62 62 62 63 64 64 65 66 66 66 66 66 66 66 66 65 66 66 65 65 65 65 65 65 65 66 66 66 66 66 66 66 66 66 65 65 66 66
60 61 61 62 62 62 62 63 63 65 66 66 67 67 66 66 66 66 66 65 66 66 66 65 65 65 65 65 66 66 66 65 65 66 66 66 66 66 66 66 66 66
61 61 62 62 62 63 62 62 63 64 65 66 67 67 67 66 65 65 65 65 65 66 66 66 65 65 65 65 66 66 67 66 67 66 66 66 67 67 67 66 66 66
61 62 63 63 62 62 62 62 62 63 64 65 66 66 67 66 66 65 64 64 64 65 65 66 66 66 66 66 65 65 65 66 66 66 66 66 66 67 67 67 67 67
62 63 63 62 61 61 61 61 62 62 63 64 65 66 66 66 65 65 64 64 64 64 65 65 66 66 64 59 60 62 63 64 65 66 66 66 66 67 67 67 67 67
62 62 62 61 60 61 61 61 61 62 63 63 64 64 65 65 65 64 64 64 64 64 64 64 65 65 60 59 61 61 61 62 64 66 66 66 67 66 67 67 67 67
62 61 61 60 60 60 60 61 62 62 62 62 62 63 64 65 64 64 64 64 64 63 63 64 65 62 58 58 60 60 61 62 64 65 66 66 67 67 67 67 67 67
62 62 61 61 60 60 60 61 61 62 61 61 61 62 64 63 63 63 63 63 63 63 64 64 64 60 57 58 59 59 60 62 64 66 66 66 66 67 67 67 66 65
61 61 61 61 61 60 60 60 61 61 61 61 62 63 62 62 63 62 63 62 63 63 64 64 64 58 57 57 57 57 59 62 66 67 67 66 65 65 66 67 66 65
58 58 59 60 61 61 61 61 61 61 60 60 61 61 61 62 63 62 63 63 63 64 64 64 64 57 56 56 55 56 58 63 66 67 66 65 65 66 65 66 65 65
57 58 59 60 61 61 61 61 61 60 60 60 62 62 63 63 63 62 63 62 62 64 64 63 63 58 55 55 55 56 59 65 66 66 66 65 65 65 66 65 65 65
57 58 59 60 61 61 61 61 60 60 60 61 60 61 62 63 63 62 63 62 62 63 63 63 62 59 55 54 54 55 60 65 65 65 66 65 65 66 66 66 66 66
57 58 58 59 60 61 61 61 61 60 60 60 60 60 61 63 63 62 63 62 62 62 63 63 63 60 54 53 54 55 59 64 64 63 63 62 62 63 64 65 66 66
58 58 58 58 60 61 62 61 61 60 60 60 59 59 61 62 63 62 62 62 62 63 64 63 64 61 55 53 54 54 60 63 63 62 61 61 61 61 61 60 59 59
58 58 59 59 60 61 62 61 62 60 58 58 57 58 59 61 62 62 62 62 63 63 63 63 64 63 61 52 52 54 56 62 63 62 61 60 61 60 59 59 59 58

ECMWFNIL_sfc_dewp_003.txt.gz
Dewpoint
67 67 66 66 65 66 65 65 64 64 65 65 65 65 65 66 66 66 66 66 66 67 67 67 67 68 69 68 68 68 68 69 69 67 67 67 66 65 65 67 67 67
66 66 67 66 66 65 65 65 65 64 65 65 65 65 65 66 67 68 67 67 67 67 67 67 67 67 67 67 66 66 66 67 67 68 67 66 66 66 66 66 66 67
65 65 65 65 65 65 65 65 65 65 65 65 66 66 67 67 67 67 68 67 67 67 67 67 66 66 67 67 66 66 67 67 67 68 68 67 67 66 66 66 66 66
63 64 65 65 65 65 65 65 65 65 65 65 65 66 67 67 67 67 67 68 68 67 67 67 67 67 67 67 67 66 66 67 67 67 67 68 68 67 67 66 66 66
63 64 64 64 65 65 64 64 64 64 64 64 65 65 66 66 66 66 66 66 67 67 67 66 66 66 66 66 67 66 66 66 67 67 67 67 67 67 67 66 66 65
62 62 63 63 64 64 63 63 64 64 64 64 64 65 65 65 65 65 66 66 66 66 66 66 66 65 65 65 66 66 66 66 66 67 67 66 66 66 66 66 65 65
61 62 62 62 63 63 63 63 63 64 63 64 65 64 65 65 65 65 65 66 66 66 66 66 66 66 66 66 66 66 66 66 66 66 66 66 67 66 66 66 66 65
61 61 62 61 62 62 62 62 62 63 63 64 64 65 65 65 64 65 66 66 66 66 65 65 65 66 66 66 66 66 66 66 66 66 66 66 67 67 67 67 67 66
60 61 61 61 61 61 61 61 62 62 63 63 64 64 65 64 65 65 65 65 65 65 65 65 65 65 65 65 66 66 65 65 66 66 66 66 66 67 67 67 66 66
60 60 60 61 61 61 61 61 62 62 64 64 64 65 64 65 65 65 65 65 65 65 64 64 64 65 65 65 65 65 65 65 66 66 66 66 65 66 66 66 66 66
59 60 60 60 61 61 61 61 62 62 63 64 64 65 65 65 66 66 66 65 65 65 64 64 64 65 65 65 65 66 66 66 66 66 65 65 65 65 65 65 65 65
59 60 60 60 61 61 61 61 62 62 63 63 64 65 65 66 66 66 66 66 65 65 64 64 64 65 65 65 65 65 65 65 65 65 65 64 64 64 64 65 65 65
59 60 60 60 61 61 62 62 62 62 63 63 64 65 65 65 66 66 66 66 65 65 64 64 64 65 64 65 64 65 65 65 65 65 65 65 65 65 65 65 65 65
59 60 60 61 61 62 62 62 62 61 62 62 64 64 64 65 65 66 66 66 65 65 65 65 64 64 64 65 65 65 65 65 65 65 65 64 64 65 65 65 65 65
59 60 61 62 62 61 61 60 61 61 61 62 62 63 64 64 64 65 65 65 65 64 64 64 64 64 64 63 61 62 63 63 64 64 64 64 65 65 65 65 65 65
59 61 61 61 61 60 60 60 60 61 62 62 61 61 62 63 63 64 65 64 64 64 64 64 64 65 62 57 58 61 62 62 63 63 63 64 65 65 65 65 65 65
59 60 61 61 61 60 60 60 60 60 61 61 61 62 62 63 63 63 63 64 64 63 63 64 64 64 59 58 59 60 61 61 61 62 63 63 64 64 64 65 65 65
59 60 60 61 60 60 60 60 60 60 60 61 61 61 62 63 63 62 62 63 64 63 63 64 64 61 59 58 59 59 60 61 61 61 62 63 64 64 65 65 65 66
58 59 60 60 60 60 60 60 60 60 60 60 60 61 62 62 62 62 62 63 63 63 62 64 64 61 58 57 58 58 59 60 60 61 62 63 64 64 65 65 65 66
58 58 58 58 59 59 60 60 60 60 60 60 61 61 61 61 61 61 62 63 63 63 62 63 63 60 57 56 55 55 57 60 62 62 63 65 66 66 66 66 65 65
57 57 57 57 58 59 60 60 60 60 60 60 60 60 60 60 61 61 62 63 63 63 63 64 64 59 56 55 54 53 55 60 64 64 65 65 66 65 65 65 65 66
56 56 56 57 58 59 59 60 60 60 60 60 61 60 60 61 62 62 62 62 62 63 63 62 63 59 56 54 53 53 55 62 63 63 64 65 64 65 65 66 66 66
55 55 56 57 58 58 59 59 60 60 60 59 59 59 59 60 60 61 61 62 62 62 62 62 63 61 56 53 52 53 56 62 62 62 62 61 61 61 61 63 65 65
55 55 56 57 57 57 58 60 60 60 59 59 58 58 58 59 60 61 61 62 62 62 62 62 62 61 55 52 52 53 55 61 61 60 60 60 60 59 59 59 58 58
56 56 57 57 57 58 59 60 60 60 61 59 57 57 58 59 61 61 61 60 60 62 63 63 63 62 57 53 52 52 57 61 61 58 57 57 58 58 58 57 57 57
57 57 57 57 58 59 60 60 61 61 58 57 57 57 58 58 60 60 60 61 61 61 62 63 63 64 62 52 51 52 53 60 61 58 56 56 57 57 56 56 57 56

ECMWFNIL_sfc_dewp_006.txt.gz
Dewpoint
66 66 66 66 66 66 66 66 65 65 65 65 65 65 66 66 67 67 67 68 68 68 68 68 68 69 69 69 69 69 69 69 69 69 70 69 70 69 69 69 69 69
66 66 67 67 66 66 66 66 65 65 65 65 66 66 66 67 67 67 67 68 68 68 68 68 68 68 68 68 68 68 68 68 68 69 69 68 69 69 68 69 68 69
65 66 65 65 65 65 65 66 66 66 65 66 66 66 66 67 67 67 68 67 68 68 68 68 68 68 68 67 67 67 67 67 67 67 68 68 68 68 68 68 68 68
65 65 65 65 65 64 65 65 65 64 65 64 65 65 66 66 67 67 67 67 67 67 67 67 67 67 67 67 67 67 67 67 67 67 67 68 68 68 68 68 67 67
64 64 64 64 64 64 64 64 63 64 64 64 64 65 66 66 66 66 66 66 66 66 66 66 66 66 67 66 66 66 66 66 67 67 67 67 67 68 68 67 67 66
63 63 64 64 64 63 63 63 63 63 63 64 64 65 65 65 65 65 66 65 66 66 66 66 66 66 66 66 66 66 66 66 66 67 67 66 67 67 67 68 67 66
62 62 62 63 63 63 63 63 63 63 63 63 64 64 65 65 65 65 65 65 65 66 66 65 66 65 66 66 65 65 66 66 66 66 66 66 67 67 67 67 67 67
61 62 62 62 62 62 63 62 62 62 62 63 63 64 65 65 65 65 65 65 65 66 66 66 65 65 65 65 65 64 64 65 65 66 66 66 66 66 67 67 67 66
61 61 61 62 62 62 62 62 62 62 63 63 64 64 65 65 65 65 66 65 65 66 66 65 65 65 65 64 65 64 63 64 64 65 65 65 65 66 66 67 66 65
61 61 61 61 61 62 62 62 62 62 63 63 64 65 65 65 66 66 66 66 66 66 66 65 65 65 64 64 64 63 63 63 63 64 65 65 65 65 66 66 65 65
60 61 61 61 61 61 62 62 62 62 63 63 64 64 64 65 66 66 66 66 66 66 66 65 65 65 64 64 64 64 64 63 64 64 65 65 65 65 64 65 65 65
60 60 60 61 61 62 62 62 63 63 62 63 64 63 64 65 65 66 66 66 66 66 65 65 65 65 64 64 64 64 63 63 63 64 65 64 64 65 65 65 65 65
59 60 60 61 61 62 62 63 63 63 62 62 63 64 64 64 65 65 65 66 66 66 66 65 65 65 65 64 64 62 62 62 63 64 64 64 64 65 65 65 65 66
59 59 60 61 62 62 63 63 63 62 62 63 63 63 63 64 64 64 64 64 65 65 66 66 65 64 65 64 63 62 62 61 62 62 63 63 64 65 65 65 65 64
59 60 61 62 62 63 63 62 62 62 62 62 63 63 64 63 64 64 63 63 64 65 65 65 64 64 65 64 63 62 61 61 61 61 61 62 62 63 64 65 65 65
59 60 61 61 62 62 62 62 62 62 62 62 62 63 63 63 63 63 63 63 64 64 64 64 64 64 63 59 59 62 61 60 60 60 60 61 62 62 63 63 64 65
59 60 60 61 61 62 62 61 61 62 62 62 62 63 63 63 63 63 63 63 63 63 64 64 64 64 60 59 61 61 61 60 60 59 60 60 61 62 62 63 63 64
60 60 60 60 61 61 61 61 61 61 62 62 62 62 62 63 63 62 63 63 63 64 64 64 64 61 59 59 60 60 60 60 59 60 61 61 62 62 62 63 63 64
59 59 60 60 60 60 60 60 60 61 62 62 62 62 63 62 62 62 62 63 63 63 64 64 63 60 59 58 59 58 58 59 60 61 62 62 63 62 62 63 63 64
59 59 59 59 59 59 59 60 60 61 61 62 62 62 61 61 61 61 62 62 63 64 64 63 63 60 58 57 56 56 57 59 61 61 61 61 60 61 63 64 64 64
58 58 58 58 58 59 59 59 60 61 61 62 62 62 61 60 60 61 61 63 63 64 63 63 63 58 56 55 54 54 55 59 61 59 60 60 59 59 59 59 59 60
58 57 57 57 58 59 59 59 60 60 61 61 62 61 61 61 61 61 62 62 63 63 63 62 63 58 56 55 54 54 55 60 60 59 58 58 58 58 58 58 59 59
58 57 57 58 58 58 58 59 59 60 61 62 62 61 60 60 60 60 61 62 63 63 63 62 62 60 56 54 52 53 55 60 60 59 58 58 58 58 58 58 58 58
58 57 57 58 58 57 58 59 60 61 61 62 61 60 59 59 60 61 62 62 63 63 62 62 62 60 56 54 52 52 53 60 59 58 58 58 58 58 58 58 57 58
57 58 58 58 58 58 58 60 61 61 62 61 60 59 59 60 61 61 61 61 62 62 63 63 63 61 57 56 53 51 55 60 59 58 57 57 57 57 58 58 57 57
58 60 60 59 58 58 59 60 62 62 60 58 58 59 59 60 60 60 59 59 59 61 62 63 63 63 62 56 53 51 52 58 60 58 57 57 57 58 57 57 57 57

ECMWFNIL_sfc_dewp_009.txt.gz
Dewpoint
71 70 69 69 68 67 66 66 65 65 66 66 65 65 65 66 67 67 67 68 68 69 69 69 69 69 69 69 70 70 69 70 71 71 70 70 69 68 68 68 68 69
70 70 70 69 69 68 67 66 65 66 65 66 66 65 66 66 66 67 67 67 67 67 68 68 68 69 69 68 69 69 69 69 69 68 69 69 68 69 69 68 68 68
69 69 69 68 67 67 67 66 66 66 65 65 65 66 65 66 66 67 67 66 67 66 67 67 67 67 67 67 67 67 67 68 68 68 68 69 70 68 69 68 69 68
68 69 68 67 67 66 67 67 67 67 66 66 66 65 65 66 66 66 66 67 66 67 68 67 67 67 66 66 66 65 66 66 66 67 67 67 69 69 69 68 68 68
68 68 68 67 67 67 68 67 66 66 65 66 66 66 66 66 66 66 66 66 67 67 67 67 67 66 66 66 66 65 65 65 65 66 66 66 67 67 67 68 68 67
68 67 67 67 67 67 67 66 66 65 65 65 67 66 66 66 66 66 65 66 66 66 66 66 65 65 65 65 65 65 65 64 64 65 65 65 65 66 66 67 66 66
67 67 67 67 67 67 67 67 66 66 66 66 67 66 66 66 66 66 67 66 67 66 66 66 66 65 65 65 65 64 64 65 65 65 65 65 66 65 65 66 66 66
66 66 66 66 67 68 68 67 66 66 66 67 66 67 67 66 67 66 67 66 65 66 66 66 66 66 65 65 64 63 64 63 64 64 64 64 65 65 66 65 65 66
66 65 65 67 67 67 66 65 64 65 66 66 66 65 66 67 66 67 67 66 66 66 66 66 67 66 66 65 63 63 63 63 63 63 63 63 63 63 64 65 65 65
66 65 66 65 64 66 65 64 63 65 66 67 66 66 66 67 67 67 67 66 66 66 66 65 65 65 65 65 65 64 63 63 63 63 63 63 63 63 63 64 64 65
65 64 64 64 64 62 63 62 62 62 64 66 66 66 66 66 66 66 66 66 66 66 66 65 63 63 63 64 63 64 63 62 62 62 62 62 63 63 62 63 63 64
64 65 64 64 63 63 64 65 66 67 66 64 65 64 65 66 66 66 66 66 66 67 66 65 64 64 65 64 64 64 63 62 61 61 60 61 62 62 63 64 64 63
63 64 65 63 65 65 66 65 65 64 63 63 63 64 64 64 65 66 66 66 67 67 66 66 66 66 66 65 65 64 63 63 62 60 60 60 60 61 61 62 63 64
63 65 65 66 66 67 67 67 67 67 67 66 66 65 64 64 65 66 66 66 66 66 66 66 66 66 66 66 65 64 64 63 63 61 61 60 60 60 60 60 61 62
65 65 66 66 66 67 67 67 67 67 67 66 66 66 66 65 65 65 66 66 66 66 67 66 66 66 66 65 64 64 64 63 62 61 60 60 60 59 60 60 61 61
65 66 66 66 67 67 66 66 65 66 65 65 66 65 66 66 67 67 65 65 65 66 66 66 66 66 64 60 60 64 63 62 61 61 61 60 60 60 60 60 60 61
65 66 66 66 67 67 66 66 65 65 65 66 66 67 67 67 67 66 65 64 64 65 65 66 65 65 61 59 60 61 63 62 60 60 60 60 60 60 59 59 59 61
65 66 66 66 66 66 65 65 64 64 65 66 66 66 67 67 67 66 65 65 65 65 65 66 66 63 60 59 60 60 60 62 61 60 59 59 59 59 59 59 59 60
65 65 65 65 66 65 64 64 64 65 65 65 65 65 66 67 66 65 65 65 65 66 66 65 65 63 60 58 59 58 59 60 61 60 60 59 58 58 58 59 59 59
65 65 64 65 65 65 64 64 64 65 65 65 65 66 66 66 66 66 66 66 66 66 66 66 66 63 60 58 56 56 57 59 61 60 59 59 59 59 59 60 59 59
64 64 64 64 64 64 64 64 65 65 65 64 65 65 65 65 65 65 65 65 65 65 65 65 65 61 58 56 55 54 54 57 62 60 61 61 60 60 59 59 58 59
63 63 64 64 63 64 64 64 64 65 64 65 65 64 65 65 65 65 64 64 64 65 65 64 63 60 58 56 54 54 54 61 61 61 60 60 60 60 60 60 60 60
63 63 63 64 63 63 63 62 62 63 64 65 64 63 63 64 64 63 64 64 64 64 64 63 62 62 58 55 54 53 55 62 62 61 60 60 59 60 61 61 60 60
64 63 63 63 63 62 61 60 60 63 64 64 63 61 60 60 61 62 64 64 63 62 60 60 60 61 57 53 53 55 53 62 62 61 59 60 60 60 60 60 60 59
63 64 63 62 63 62 61 60 61 62 62 63 62 61 61 63 63 63 63 62 59 60 63 61 59 59 58 54 54 54 58 62 62 60 59 59 60 60 61 61 60 60
63 64 64 64 64 63 63 62 62 61 60 59 60 59 58 58 61 62 62 60 58 61 59 61 61 61 64 57 54 54 53 59 62 61 60 59 60 60 60 60 60 60

ECMWFNIL_sfc_dewp_012.txt.gz
Dewpoint
65 66 64 64 64 65 66 66 66 66 66 65 64 65 65 66 67 66 66 68 69 68 68 69 69 69 68 67 68 68 68 68 68 68 70 70 70 69 68 69 69 69
64 64 65 65 65 66 66 66 67 66 66 66 66 65 66 66 65 66 66 66 67 68 68 68 68 68 68 67 67 67 66 67 67 66 66 67 69 69 68 69 67 70
64 64 64 63 62 63 63 64 66 66 64 65 66 66 65 65 65 66 66 66 66 66 68 68 67 67 67 67 68 67 66 66 67 66 66 66 66 67 68 68 69 66
65 65 64 63 63 63 64 64 64 65 65 64 64 64 64 65 66 65 65 66 66 66 66 68 68 67 67 67 67 66 66 66 66 67 65 65 66 66 66 66 67 69
65 65 64 64 64 65 65 65 64 64 64 64 64 64 65 66 66 65 65 65 66 67 65 65 66 66 66 66 66 66 65 64 65 66 65 65 65 66 65 66 65 65
65 65 65 64 65 64 64 63 63 63 64 63 64 63 63 64 65 65 65 65 63 62 63 63 65 65 65 65 66 66 65 64 64 65 65 64 63 64 65 66 67 66
65 65 65 64 64 65 64 64 64 64 63 64 65 65 65 64 64 65 66 66 65 65 65 66 66 66 66 66 66 65 65 65 65 65 65 64 64 63 63 64 64 66
64 63 63 63 63 63 63 63 63 62 63 64 64 64 64 64 65 65 66 66 66 66 66 66 66 66 65 66 66 66 65 64 64 65 64 64 64 63 63 63 64 63
64 63 63 63 63 61 60 59 58 60 62 62 62 61 63 64 64 65 66 67 67 67 67 67 65 64 65 65 66 66 66 65 64 64 64 63 62 63 63 64 63 63
64 63 63 60 57 58 58 58 57 58 59 60 61 60 61 63 64 65 66 67 66 67 67 67 65 64 63 64 65 65 65 65 64 64 63 62 61 62 62 62 62 62
63 62 61 60 59 55 56 54 53 54 56 58 60 61 61 62 63 64 65 66 65 66 66 66 65 64 64 64 65 66 65 63 63 63 62 61 61 62 61 62 62 61
63 62 60 59 58 57 56 57 57 59 58 55 56 55 57 57 60 62 64 65 66 66 66 67 67 66 66 65 65 65 65 63 62 62 60 60 60 61 61 61 60 61
61 61 60 57 59 59 59 57 56 54 54 54 55 55 54 56 58 62 64 66 67 66 65 66 66 65 65 66 66 65 64 63 62 62 60 60 60 60 60 60 60 60
61 60 60 61 60 61 61 60 59 59 59 59 58 57 53 55 56 60 61 62 62 63 64 65 67 67 66 66 66 65 63 63 63 62 60 60 60 60 59 59 59 59
62 61 61 61 61 61 60 60 59 59 59 59 59 58 57 57 59 58 60 61 62 64 65 65 67 67 66 65 64 63 63 62 62 61 60 60 60 60 59 59 58 58
61 62 62 61 61 60 60 60 58 58 57 57 57 56 58 59 61 61 60 59 60 63 64 65 66 67 65 64 63 63 62 63 62 62 61 60 61 60 58 56 56 58
62 62 61 61 61 60 60 60 59 57 57 58 59 60 60 61 60 60 59 60 61 61 62 62 63 66 64 62 62 62 63 63 62 62 62 61 61 59 58 57 57 58
61 61 61 60 60 60 60 60 58 57 57 58 58 59 59 58 59 59 60 61 62 61 60 61 61 63 61 61 62 61 62 64 62 62 62 61 60 58 58 58 59 59
62 62 61 60 60 60 60 59 58 57 57 57 57 58 58 59 59 58 60 61 61 61 60 59 59 62 61 60 61 60 60 62 63 63 62 61 61 59 59 60 61 60
62 62 61 61 60 61 60 59 58 57 57 56 57 58 59 58 59 59 59 60 59 59 60 60 59 61 60 60 59 59 59 60 63 63 63 62 62 60 60 61 61 60
62 62 61 61 61 60 60 59 57 57 57 56 56 56 57 58 57 58 59 59 58 57 57 57 57 59 59 59 58 57 57 57 63 63 62 61 62 62 62 61 60 60
62 62 62 62 61 61 59 58 57 57 57 58 59 56 57 56 55 56 56 56 56 56 56 57 56 58 59 58 57 56 56 63 63 63 62 62 62 62 63 62 62 62
61 61 62 62 61 60 59 57 56 56 56 58 58 57 54 53 55 54 56 55 56 56 58 59 58 58 57 55 55 55 56 63 63 63 64 63 62 63 63 63 63 62
62 62 62 62 61 60 58 56 54 56 56 58 57 56 54 53 54 55 56 57 55 56 54 56 54 56 54 52 53 55 57 64 63 63 63 63 63 63 63 64 63 62
61 62 62 61 61 58 57 56 56 57 57 57 57 56 56 57 55 55 54 56 52 52 60 57 57 55 55 53 53 54 60 64 64 63 62 63 64 63 64 64 64 63
62 63 63 62 61 60 59 58 58 56 55 54 55 54 53 53 54 55 55 54 52 52 53 56 56 56 57 53 54 54 54 63 63 62 62 62 63 63 62 63 64 64

ECMWFNIL_sfc_dewp_015.txt.gz
Dewpoint
64 65 64 64 64 64 65 65 65 64 65 64 64 65 64 65 66 66 65 65 65 65 66 68 70 70 68 67 68 68 68 69 68 68 68 68 68 68 68 66 67 66
64 64 64 64 64 65 64 64 64 64 65 66 66 65 66 66 65 65 65 65 65 65 65 66 67 68 69 66 66 65 66 67 67 66 66 66 66 67 67 66 67 68
64 63 63 64 62 63 62 63 63 63 63 64 65 65 65 65 65 66 66 65 65 64 65 66 66 66 66 66 67 67 65 67 67 66 66 65 66 67 67 66 67 66
65 65 64 63 63 63 64 63 63 64 64 64 64 64 64 65 65 65 65 65 65 65 66 66 66 66 67 67 67 67 66 66 66 66 67 66 66 66 66 67 67 66
65 65 65 65 64 64 64 63 62 62 63 63 63 64 64 65 65 64 64 64 65 64 64 62 63 64 65 65 66 66 66 64 64 65 65 65 66 64 63 63 64 64
65 65 65 65 65 64 63 62 62 62 63 62 63 62 62 63 63 63 64 64 62 62 62 61 62 63 62 64 65 66 66 65 64 65 66 66 65 64 62 62 62 62
65 65 65 65 64 64 64 63 63 63 63 63 64 63 63 62 62 63 64 64 63 65 64 64 65 65 65 66 66 66 66 66 65 65 65 65 65 64 63 61 62 63
66 65 64 64 64 64 63 63 62 62 63 64 62 63 62 61 62 62 63 63 64 65 65 65 66 66 64 64 64 65 65 64 63 64 65 64 64 63 61 60 61 61
64 63 64 63 63 62 60 59 57 59 60 60 61 60 62 62 61 62 63 64 65 65 66 66 66 66 64 63 64 65 66 65 64 64 64 63 62 61 60 60 60 60
63 64 63 61 58 60 58 57 55 56 58 57 59 57 58 61 62 62 62 63 63 65 65 66 66 67 67 64 63 64 65 65 65 64 63 62 61 61 60 60 60 60
62 62 62 62 60 56 55 54 52 52 55 55 56 57 58 59 59 60 61 62 63 64 65 65 65 65 64 63 64 65 65 65 65 64 63 62 62 61 60 59 60 61
62 62 61 60 59 57 56 57 57 58 56 54 54 53 55 53 56 57 58 61 62 65 67 68 68 67 68 67 66 64 64 64 64 63 62 62 61 59 59 59 60 60
60 61 62 59 60 60 60 58 57 56 55 55 55 55 54 53 54 57 58 59 61 63 64 64 66 66 66 67 67 66 66 65 64 63 63 61 60 59 58 59 60 60
60 60 61 61 60 62 61 61 60 61 61 60 59 57 54 54 53 55 56 58 59 59 61 63 63 63 65 65 66 66 65 64 64 63 61 60 60 60 59 58 59 58
61 61 61 61 61 61 61 61 61 61 61 60 60 57 56 54 55 55 58 59 59 60 62 62 64 63 64 65 65 65 64 60 60 61 60 60 60 60 60 59 58 57
63 63 62 62 62 61 62 61 60 61 60 59 58 57 57 58 60 59 58 57 58 59 61 62 63 64 65 64 64 66 63 61 61 61 61 61 61 61 60 59 57 57
63 63 63 62 62 62 62 62 61 61 61 60 59 58 59 60 59 58 57 57 58 59 60 61 62 64 62 62 62 63 63 62 61 61 60 59 60 61 62 61 58 58
62 62 62 62 62 62 62 62 61 61 61 60 59 58 59 59 58 59 59 59 59 60 60 60 60 64 60 61 62 62 63 63 61 60 59 59 59 59 61 62 60 59
63 62 62 62 63 63 63 62 62 61 60 59 57 58 58 59 59 58 59 59 60 60 60 59 59 60 59 60 61 61 62 63 62 61 60 59 59 60 61 61 62 61
62 62 62 62 62 63 62 62 61 61 59 57 57 58 59 58 58 58 58 58 58 59 59 58 59 60 59 59 59 60 61 62 63 62 61 61 63 62 62 63 62 62
61 62 62 62 63 62 63 62 61 61 59 58 56 56 58 59 58 57 57 57 55 55 56 56 57 58 57 58 58 58 59 60 63 62 61 63 63 62 62 61 63 62
61 62 63 63 63 62 62 62 61 61 59 59 58 56 58 57 57 56 55 55 56 56 55 56 56 57 57 57 57 57 59 63 63 63 62 62 63 63 62 64 63 64
61 61 62 63 62 62 63 62 61 60 59 59 58 57 57 56 57 54 56 55 56 57 57 60 59 57 55 55 55 56 57 64 62 62 63 61 62 61 61 63 64 64
62 62 62 62 62 61 61 61 59 59 58 58 56 55 55 56 56 56 57 57 56 56 56 57 55 56 54 52 53 55 59 64 62 63 62 63 61 59 60 63 64 64
61 62 61 60 61 60 60 59 59 59 58 58 56 57 58 59 56 56 55 57 53 56 59 55 56 58 51 52 53 55 59 65 64 63 62 60 58 58 59 59 59 62
62 63 63 61 60 60 61 60 59 57 57 56 57 55 54 55 54 55 55 55 56 56 55 55 58 60 64 52 53 54 55 63 64 61 59 58 58 58 58 58 58 60

ECMWFNIL_sfc_dewp_018.txt.gz
Dewpoint
70 70 73 72 74 72 69 68 67 67 67 67 68 68 70 69 69 69 68 69 68 68 69 69 70 70 70 71 70 69 69 68 69 69 69 69 68 68 67 67 67 66
69 68 69 72 71 69 69 69 69 68 68 68 70 69 69 69 68 68 69 68 68 68 69 68 69 69 69 69 69 68 69 68 68 67 68 67 67 66 66 67 66 68
68 66 66 66 67 65 63 66 67 68 68 68 67 68 68 69 68 69 69 68 68 67 68 68 68 69 69 69 70 69 68 69 68 67 68 68 68 68 68 67 68 67
68 68 67 65 65 66 67 67 67 67 68 68 68 67 66 67 68 68 68 68 68 68 68 67 68 67 68 68 68 69 68 69 68 68 68 68 68 68 67 67 66 65
69 69 68 68 66 68 69 66 65 65 66 68 66 68 69 70 69 67 67 68 68 66 67 67 67 67 68 68 68 69 67 68 68 68 68 68 68 66 66 67 65 63
69 68 68 67 67 68 67 66 66 64 65 63 68 66 66 66 67 66 66 65 63 63 64 64 66 66 66 67 68 68 68 68 68 68 68 67 67 67 66 66 65 63
68 68 67 67 67 67 68 67 67 67 66 65 66 67 67 66 66 67 67 65 65 66 66 67 67 67 68 68 68 68 68 68 67 67 66 66 67 66 66 65 65 64
68 67 67 68 67 67 67 67 66 67 68 68 65 66 67 64 67 65 66 67 64 66 67 67 67 68 65 67 67 67 66 65 65 66 66 65 66 65 65 64 64 63
69 68 67 66 66 65 62 62 61 65 65 65 64 62 68 67 66 65 67 67 67 67 67 67 67 67 67 68 67 66 65 65 65 66 65 65 64 64 64 64 63 63
68 68 66 62 60 64 60 60 58 60 63 65 60 64 64 67 66 65 65 66 66 67 67 67 67 67 68 68 68 66 65 65 66 66 65 64 64 64 63 63 62 61
65 64 63 64 61 57 56 54 53 53 61 59 61 60 60 62 67 68 68 67 65 65 66 66 67 68 68 67 67 67 67 66 64 64 65 65 64 64 62 62 62 61
66 64 62 63 62 60 58 60 59 64 60 55 61 57 60 58 62 63 65 66 66 67 67 66 67 67 68 68 66 66 63 61 62 64 64 64 63 63 62 62 61 61
64 65 65 60 65 65 65 60 58 56 56 57 58 59 57 56 57 61 65 64 66 65 65 65 65 65 67 68 67 65 63 63 63 63 64 64 62 62 60 60 60 61
63 65 65 67 66 65 65 65 64 65 65 65 63 60 58 57 55 57 59 62 62 63 63 64 64 64 65 68 67 66 66 65 65 64 63 61 62 61 60 59 60 60
66 65 67 67 66 66 66 65 65 66 66 65 65 63 60 57 58 57 62 63 63 63 63 63 63 64 67 65 66 67 66 65 65 63 62 61 61 60 60 61 60 61
67 67 67 67 66 65 66 66 63 65 63 64 65 62 63 63 64 64 60 60 62 63 63 63 63 65 66 63 64 66 66 65 64 63 63 62 62 61 59 59 60 63
67 66 66 66 66 66 66 65 66 65 66 66 66 65 65 65 63 63 61 61 61 60 61 62 63 64 63 61 61 62 65 66 64 63 63 62 61 61 60 60 62 64
66 67 66 66 66 66 66 66 66 66 66 66 65 64 65 65 63 63 64 62 61 60 60 62 62 62 60 60 61 61 63 66 64 63 62 62 61 60 60 62 62 62
67 66 66 66 66 66 66 66 67 66 65 64 63 63 64 65 64 63 63 64 63 63 61 60 61 59 58 59 60 60 61 63 64 64 63 62 61 61 61 63 63 63
66 66 65 66 66 66 66 66 66 65 65 63 62 64 64 63 63 64 64 64 64 63 63 62 63 59 57 58 58 59 60 62 64 64 63 62 62 61 62 62 63 63
66 66 66 66 66 66 66 66 65 66 65 64 61 61 62 64 64 64 65 63 61 59 60 63 64 57 56 57 57 57 58 61 64 64 63 63 63 63 64 63 62 62
65 66 66 66 66 66 65 65 65 66 65 65 64 62 62 62 62 63 62 61 61 60 62 62 59 57 56 56 55 56 58 63 64 64 64 63 63 65 64 63 63 62
64 64 65 65 65 65 65 64 65 66 66 66 64 62 61 61 62 60 62 61 60 62 63 63 61 62 57 54 54 55 58 64 64 64 64 63 64 65 64 63 64 64
65 64 64 65 65 64 64 65 64 66 65 65 63 61 58 58 58 60 62 62 60 60 56 59 57 60 53 52 53 55 59 64 65 64 63 63 64 64 63 63 62 62
64 65 64 63 64 64 63 63 64 65 65 64 62 61 60 64 63 62 59 60 53 53 62 58 56 58 53 53 53 55 58 64 65 64 63 62 62 61 62 62 61 61
64 65 65 64 64 65 65 65 65 62 62 61 62 59 59 60 60 59 58 55 53 52 55 60 60 63 63 53 53 53 55 62 63 62 61 60 60 61 60 59 59 60

ECMWFNIL_sfc_dewp_021.txt.gz
Dewpoint
67 67 69 66 69 70 66 64 67 66 66 66 65 65 66 67 68 67 67 68 68 67 67 67 67 69 70 69 69 67 68 67 67 67 67 67 65 65 66 65 65 64
68 68 70 68 69 69 67 66 67 66 64 63 63 66 68 67 67 66 67 67 67 67 67 67 67 67 67 67 67 65 65 66 65 68 66 65 65 65 65 65 65 65
66 67 66 66 64 64 64 67 67 65 64 66 66 65 67 68 67 67 66 66 66 67 67 67 67 66 67 67 67 66 65 65 66 67 67 66 66 66 66 66 65 65
66 66 65 65 65 66 66 66 66 66 64 63 65 67 66 65 65 66 66 69 66 66 67 67 66 66 66 66 66 67 67 67 67 66 66 66 67 66 65 65 66 64
66 66 65 66 66 67 68 64 63 63 64 65 66 65 67 67 66 65 65 65 66 66 65 66 67 66 66 66 66 65 66 66 66 66 65 65 66 66 66 65 64 63
67 66 67 65 66 65 64 63 64 63 64 64 62 65 65 65 63 63 64 65 64 63 64 64 65 65 65 65 65 65 66 66 66 66 66 65 65 66 66 65 64 63
67 66 66 66 66 66 65 65 64 65 63 62 65 64 65 64 63 64 65 65 64 65 64 64 65 65 66 66 65 65 66 66 66 65 65 64 65 65 65 64 64 63
66 65 66 65 65 65 65 66 65 65 64 64 63 63 65 64 64 64 65 64 64 64 65 65 65 65 66 65 65 65 65 66 65 65 64 64 63 64 64 64 62 62
67 66 66 66 65 65 65 66 65 63 64 64 64 64 65 64 64 64 64 64 64 64 64 65 65 65 66 65 65 65 64 64 65 65 64 62 62 62 62 63 62 63
67 67 66 65 65 65 64 63 62 62 64 63 63 63 63 65 65 65 64 64 64 64 65 65 65 66 66 66 66 65 64 64 64 63 63 63 62 62 63 63 62 61
66 66 65 64 63 62 62 61 61 59 63 60 60 61 61 61 62 64 64 64 64 64 64 64 65 65 66 66 66 65 65 64 62 61 62 62 63 62 64 63 62 61
65 64 63 63 62 61 60 60 60 59 59 60 62 59 61 61 60 61 62 62 63 64 64 64 64 66 65 65 66 66 63 62 62 62 63 63 62 62 62 62 62 61
65 64 63 62 63 62 62 61 60 59 60 62 62 61 60 59 59 59 62 63 63 62 62 63 63 64 64 66 66 64 63 63 63 62 62 63 63 63 62 62 61 60
64 63 63 63 63 64 63 62 62 63 62 63 63 61 61 60 59 58 59 61 61 61 61 62 61 61 63 65 66 64 63 62 63 63 63 63 63 62 61 61 60 60
64 63 63 63 64 63 63 62 63 63 64 64 63 63 64 61 60 60 60 60 61 61 61 62 63 63 66 66 65 63 63 63 64 63 63 62 61 61 61 61 60 60
64 64 64 63 63 62 62 62 62 63 63 63 63 63 63 63 61 62 62 60 60 62 62 63 62 64 67 65 64 64 65 65 65 64 62 61 61 61 61 61 60 61
63 63 63 63 63 62 63 63 63 63 63 63 64 63 62 62 63 60 58 60 61 60 59 61 62 63 64 62 62 63 64 64 63 63 62 61 61 60 60 60 60 61
62 62 63 63 63 63 63 63 64 63 63 63 63 63 63 63 62 62 62 61 61 60 60 60 61 64 60 60 61 61 62 63 63 63 62 61 61 60 60 60 60 61
63 63 63 63 63 63 63 64 63 63 63 63 63 63 63 63 62 62 62 62 61 61 61 61 60 61 58 58 59 60 60 62 62 62 62 62 61 61 61 60 60 61
64 64 63 63 63 63 64 63 64 63 63 63 63 63 62 62 62 61 61 62 62 61 61 61 60 59 57 57 57 58 59 61 62 62 62 62 62 61 61 61 60 61
64 64 64 64 64 64 63 63 63 63 63 63 63 62 61 61 61 61 62 63 62 60 59 59 62 57 56 56 56 56 57 60 61 63 62 62 62 62 61 62 61 62
64 64 63 64 63 63 63 63 63 63 63 63 63 62 61 61 61 62 61 60 60 60 60 61 62 57 56 56 55 55 58 60 61 61 61 62 62 62 62 62 62 61
64 63 63 63 63 63 63 63 63 63 64 64 63 62 61 60 60 60 60 60 59 60 61 60 61 59 54 54 53 55 57 60 61 61 62 62 62 62 62 63 63 62
64 63 63 63 63 62 62 62 63 64 64 65 63 62 61 60 60 60 60 61 60 60 61 59 59 58 53 52 53 55 59 61 61 61 60 61 61 61 62 62 62 64
64 63 63 63 62 62 62 62 63 63 64 65 63 62 61 60 60 58 59 60 60 58 64 59 57 57 50 51 53 54 57 60 61 61 60 60 60 60 60 60 59 59
64 64 63 62 62 62 62 62 63 63 64 64 63 62 61 60 60 59 58 58 57 57 62 60 60 61 57 52 52 53 56 60 60 59 59 58 58 59 59 57 56 56

ECMWFNIL_sfc_dewp_024.txt.gz
Dewpoint
65 64 64 65 65 65 65 64 64 63 63 64 63 63 64 65 67 66 65 66 66 66 66 66 67 68 69 67 67 67 67 65 66 65 65 66 64 64 64 63 63 63
64 65 67 65 67 66 63 63 64 63 64 64 64 63 65 66 66 66 65 66 67 66 65 66 66 66 66 67 66 65 64 65 64 67 65 64 64 63 64 64 64 64
64 66 66 64 64 64 63 64 65 64 64 63 63 64 65 67 65 65 66 65 65 65 65 65 65 66 66 66 66 66 65 64 64 65 66 65 64 64 64 64 64 64
65 65 64 63 62 62 63 65 65 64 63 63 62 64 66 66 65 65 65 69 65 65 65 65 65 65 65 65 65 65 65 65 65 65 65 64 66 65 64 64 65 64
65 64 63 63 63 64 65 64 64 63 62 62 62 64 66 65 64 64 64 64 65 65 64 65 65 65 65 65 65 64 65 65 65 65 64 63 64 65 65 65 63 63
65 65 64 63 64 64 64 63 62 62 62 62 63 65 65 65 64 64 64 63 64 64 64 64 63 64 65 64 64 64 64 65 64 64 64 64 64 64 65 64 63 62
64 64 63 64 64 63 62 62 62 64 62 62 63 62 64 64 63 62 62 63 63 64 62 63 63 63 64 64 63 64 64 64 64 64 64 63 64 63 64 63 63 62
65 64 64 64 63 63 63 63 63 64 64 63 62 62 63 63 62 62 63 63 63 63 63 63 63 64 64 64 64 64 64 65 65 64 63 63 61 61 62 63 62 61
65 64 64 64 63 63 63 63 64 63 64 63 63 63 63 63 62 62 63 63 63 63 63 63 63 64 64 64 64 63 63 63 64 63 63 62 61 61 62 61 61 62
65 64 64 63 62 63 63 63 64 64 65 64 63 63 63 64 64 64 63 63 62 62 63 63 63 64 64 64 64 64 63 63 63 63 63 63 63 62 61 61 61 61
64 64 64 63 63 63 63 64 64 63 63 63 63 63 63 63 63 64 63 63 63 62 63 63 63 64 64 65 65 65 64 64 63 62 62 62 62 62 64 62 62 61
65 64 64 64 64 63 63 63 63 63 61 62 62 61 61 61 61 62 63 62 62 63 63 63 63 64 64 64 65 65 64 63 63 62 61 61 61 61 61 61 61 61
65 65 64 64 64 63 63 63 62 61 59 58 61 59 59 59 59 59 62 61 62 62 63 63 63 63 63 64 64 64 64 63 62 61 61 61 61 62 62 62 62 61
65 65 64 64 63 63 62 62 61 60 59 60 62 60 59 59 60 60 59 62 61 60 60 62 61 61 61 62 64 64 64 63 62 62 61 61 61 62 62 62 62 61
65 65 64 64 63 62 62 62 61 61 60 61 63 61 63 61 60 60 59 61 60 60 60 60 61 61 61 62 64 64 64 63 62 62 62 61 61 61 61 61 61 61
64 65 64 63 63 62 62 62 62 61 61 61 61 61 62 63 61 61 60 59 59 59 60 61 62 62 64 64 65 65 63 63 62 62 62 62 62 61 60 60 60 60
64 64 64 63 63 62 62 62 61 61 61 61 61 61 61 62 62 61 61 60 59 58 59 61 61 61 62 62 63 64 64 62 62 63 63 62 62 60 60 60 60 60
64 64 63 63 62 62 62 61 61 61 61 61 61 61 62 62 61 61 60 59 60 60 59 59 59 62 59 60 61 62 63 64 63 63 63 62 61 60 60 60 60 60
64 64 63 63 62 62 62 62 61 61 61 61 61 61 62 62 62 61 61 61 61 60 59 60 60 61 59 59 59 60 61 63 62 62 62 61 61 60 60 60 60 60
64 63 63 62 62 62 62 61 61 61 61 61 62 62 62 62 62 61 61 61 61 60 60 60 60 61 59 58 58 58 59 61 61 61 61 61 61 61 61 60 60 60
62 62 62 62 62 62 62 61 61 61 61 62 62 62 61 61 61 61 61 61 60 61 60 60 60 60 57 56 55 56 57 60 60 61 61 61 61 61 61 61 60 60
62 61 61 61 61 62 61 61 61 61 61 62 63 62 62 62 62 61 61 61 61 61 60 59 59 58 56 55 55 55 58 60 59 59 60 60 60 60 61 61 61 61
62 61 61 61 62 62 61 61 61 61 62 62 63 62 62 61 61 61 61 61 60 60 59 58 59 59 55 54 54 55 57 58 59 60 60 60 60 60 61 61 61 61
63 62 62 62 62 62 62 62 61 61 62 64 63 62 62 61 61 61 61 61 60 59 59 58 58 58 54 52 53 54 58 58 59 59 59 59 60 60 60 60 60 63
63 63 62 62 62 62 62 62 62 63 63 64 63 63 63 63 63 62 62 62 61 60 62 60 58 58 53 52 53 54 59 60 60 60 58 59 59 59 58 58 57 59
64 64 63 62 62 62 63 63 63 63 63 63 64 64 63 62 63 62 61 61 61 60 59 61 59 60 57 51 51 52 56 60 60 59 59 57 56 57 57 55 54 54

ECMWFNIL_sfc_dewp_027.txt.gz
Dewpoint
63 64 63 63 62 63 63 64 64 63 63 63 63 62 63 64 65 64 64 64 65 64 64 64 65 66 67 66 66 66 66 65 65 64 63 64 63 62 64 62 62 63
64 65 66 63 64 65 64 64 64 63 63 63 63 62 63 63 65 65 64 64 65 65 64 64 64 65 65 66 65 65 65 64 64 66 63 63 64 62 63 63 63 63
64 64 64 63 63 64 64 64 64 63 63 63 63 63 63 65 64 65 64 64 64 65 65 64 64 65 65 65 65 65 65 63 63 63 65 64 63 63 63 63 63 63
64 64 64 63 64 64 63 63 63 63 63 63 63 63 64 65 65 64 64 68 64 64 64 64 64 64 64 64 64 64 64 64 64 63 64 64 65 64 64 63 64 63
64 64 64 63 63 64 63 63 63 63 63 62 62 63 66 65 65 64 64 64 65 64 63 64 64 64 64 64 64 64 64 64 64 64 63 63 63 64 64 63 62 63
64 64 64 63 63 63 62 62 63 63 62 61 61 63 64 64 64 64 64 63 63 64 63 63 63 63 63 64 63 63 63 64 64 63 63 63 63 63 64 64 63 62
64 64 63 63 62 62 62 62 62 64 62 61 62 63 64 63 63 63 63 63 62 63 63 63 62 62 63 62 62 63 63 63 63 62 63 63 63 63 62 63 63 62
64 64 63 63 62 62 63 62 62 63 62 62 61 61 63 63 63 63 63 62 62 61 62 62 62 62 62 62 63 62 62 64 64 63 62 63 62 62 61 62 62 61
64 64 63 63 62 62 62 62 62 62 63 62 61 61 63 62 62 62 62 62 62 62 62 62 62 62 62 62 63 62 63 63 63 63 63 62 62 62 61 60 60 61
65 64 63 63 62 62 62 62 62 62 64 63 62 62 62 63 63 62 62 62 62 62 62 62 62 62 62 63 63 63 63 62 62 62 63 62 62 62 62 61 60 60
65 64 63 62 62 62 62 62 62 62 63 63 63 63 62 62 63 63 62 62 62 62 62 62 62 62 62 62 63 63 63 63 63 62 62 62 62 62 63 61 60 60
65 64 63 62 62 62 62 62 62 63 63 64 64 63 63 62 62 62 63 63 62 62 62 62 62 62 62 62 63 63 63 63 63 62 62 62 61 61 61 61 60 60
65 64 64 63 63 62 63 63 62 63 63 63 63 63 62 61 61 61 62 62 62 62 62 62 62 62 63 63 62 62 63 63 63 62 62 62 61 61 60 60 60 60
65 64 64 63 63 63 63 63 64 64 64 63 62 61 59 59 59 59 58 61 60 61 62 62 62 61 61 61 62 62 63 63 63 63 62 61 61 61 61 61 61 61
65 64 64 64 64 64 63 63 63 63 63 62 61 61 60 59 58 59 59 60 60 60 60 60 60 60 60 60 60 61 62 62 63 63 62 62 61 61 61 61 61 61
65 65 64 64 64 64 64 64 63 63 62 61 60 60 60 60 59 60 59 59 60 59 59 59 60 60 63 62 62 62 62 63 63 62 62 61 61 61 61 61 60 60
65 65 64 64 64 64 64 64 63 62 61 60 60 60 60 60 60 60 60 59 59 58 58 59 60 61 62 60 61 63 63 62 62 62 62 61 61 61 61 61 60 59
65 65 64 64 64 64 64 63 62 62 61 61 60 60 60 60 61 60 60 60 60 59 59 59 59 62 59 59 60 61 63 63 62 62 62 61 61 61 61 61 60 59
65 65 65 64 64 64 63 63 62 61 61 61 60 60 60 60 60 60 60 60 60 59 59 60 60 60 58 58 59 59 60 63 63 62 62 62 61 61 61 60 60 59
65 65 64 64 64 63 63 62 62 61 61 60 61 61 60 60 60 60 61 60 61 60 60 60 60 60 59 58 58 58 59 61 61 62 62 61 61 61 60 60 59 59
65 64 63 63 63 63 63 62 62 61 61 60 60 60 60 60 60 60 61 61 61 61 61 60 60 59 58 57 57 56 57 60 60 61 60 60 60 60 60 60 60 59
65 63 63 63 63 63 62 62 62 61 61 61 61 61 61 61 61 61 61 61 61 61 60 60 60 58 57 57 56 56 57 59 59 59 59 59 59 60 60 60 59 59
64 63 63 63 63 62 61 62 62 61 61 62 61 61 61 61 61 61 61 61 61 61 60 60 60 59 56 55 54 55 55 57 58 58 58 58 58 59 59 59 59 59
63 63 62 62 61 61 61 61 61 61 61 62 61 61 61 61 61 61 61 61 61 61 60 60 59 58 55 54 53 54 56 56 57 57 57 58 58 58 59 58 59 63
63 62 61 61 61 61 61 61 61 61 61 63 62 62 61 61 62 61 61 61 62 61 62 61 60 59 56 55 54 53 56 56 57 57 56 57 58 58 57 57 56 59
63 62 62 61 61 61 61 61 62 62 62 62 62 62 62 62 62 62 61 61 61 62 61 61 60 60 60 55 52 52 54 58 58 57 57 57 57 58 56 54 54 53

ECMWFNIL_sfc_dewp_030.txt.gz
Dewpoint
65 66 65 64 63 63 64 64 64 64 64 64 64 64 64 66 66 66 66 66 67 66 66 66 68 69 70 69 69 69 69 67 68 66 66 67 66 66 66 66 65 65
64 65 66 64 64 65 64 65 65 64 64 64 64 64 64 66 66 66 66 66 67 67 66 66 66 67 68 68 68 68 67 68 67 68 67 66 67 66 66 66 65 66
64 65 65 64 63 64 63 64 65 65 64 64 65 64 64 66 65 66 66 65 65 66 67 66 66 66 67 67 67 67 67 67 66 66 67 66 66 66 66 66 66 66
64 64 64 63 63 64 64 64 65 65 64 64 64 64 64 65 66 65 66 68 66 65 66 66 66 65 66 66 66 66 66 67 66 66 66 66 67 66 66 66 66 66
64 64 64 64 64 65 64 64 64 64 64 64 64 65 66 66 66 65 65 65 66 65 65 65 65 65 66 66 66 66 66 66 66 66 66 66 66 66 66 66 66 66
64 64 65 64 64 64 64 64 64 64 64 63 64 65 64 65 65 65 65 65 65 65 65 65 65 65 65 66 65 66 66 66 66 66 66 66 66 66 66 66 66 66
64 64 64 64 64 64 64 64 64 65 64 64 64 64 64 64 64 65 65 65 65 66 65 65 65 65 65 65 65 65 65 65 65 65 65 65 66 65 65 66 66 66
64 64 64 64 64 64 64 63 63 64 64 64 63 63 64 63 64 64 65 65 64 64 65 65 64 64 64 64 65 65 65 65 65 65 65 65 65 65 65 65 65 65
64 64 64 64 63 63 63 63 63 64 64 63 63 62 64 64 63 64 64 64 64 64 64 64 64 64 64 64 64 64 64 64 65 65 65 65 64 64 64 64 64 64
64 64 64 63 62 63 62 62 62 63 64 63 63 62 62 64 64 64 64 64 63 64 63 63 63 64 64 64 64 64 64 64 64 65 65 65 65 65 64 64 64 63
64 64 64 63 62 62 62 62 62 62 63 63 63 62 62 63 64 64 63 63 63 63 63 63 63 63 64 64 64 64 64 64 64 64 64 65 65 65 64 65 64 63
64 64 63 63 63 62 62 62 62 63 62 63 63 62 63 63 63 63 64 63 63 63 63 63 63 63 64 64 64 64 64 64 64 65 65 64 64 64 64 64 64 64
64 64 64 63 64 63 63 62 62 62 62 62 63 63 62 62 63 63 64 64 64 64 64 63 64 64 64 64 64 64 64 64 64 64 65 64 64 64 64 63 63 63
65 66 65 65 64 64 63 63 63 63 64 64 64 64 63 62 62 63 63 64 64 64 63 64 64 63 64 64 64 65 64 64 65 64 64 64 64 64 63 63 63 63
66 66 65 65 64 63 63 63 63 63 64 64 64 63 64 63 63 62 62 62 63 63 63 63 63 63 63 63 64 64 64 64 64 64 64 64 64 63 63 63 63 63
66 66 65 65 64 63 63 63 63 63 63 63 62 62 62 63 62 62 60 60 61 61 62 62 62 62 63 62 62 63 63 63 64 64 64 64 64 64 63 63 63 63
66 65 65 64 64 64 63 63 63 63 63 63 62 62 62 62 63 61 60 60 60 60 60 61 61 61 61 60 60 62 63 63 63 64 64 64 64 63 63 63 63 63
65 64 64 65 64 64 64 64 63 63 63 63 62 62 62 62 62 61 61 60 60 60 60 61 60 61 59 59 60 60 62 64 63 63 63 63 63 63 63 63 63 63
64 63 64 65 65 64 64 63 64 64 63 62 62 62 62 62 61 61 61 61 61 60 60 60 60 60 58 58 59 59 60 62 64 64 63 63 63 63 63 63 63 63
64 64 64 65 65 65 64 64 64 63 63 62 62 62 62 61 61 61 61 61 61 61 61 61 61 60 58 57 57 58 58 60 62 63 63 63 63 63 63 63 63 63
65 64 63 64 65 64 64 64 64 63 63 63 62 62 62 61 61 61 61 62 61 61 61 61 62 59 57 57 56 56 57 59 61 62 62 62 63 63 63 63 63 62
63 63 62 62 65 65 64 63 63 63 63 63 63 62 62 62 62 61 61 61 61 61 61 61 62 58 57 57 56 56 57 60 61 61 61 61 62 63 63 63 63 62
64 62 61 63 64 64 64 64 64 64 63 63 62 62 61 61 61 61 62 61 61 62 62 62 62 60 56 55 55 56 57 61 61 61 61 61 60 62 62 62 62 62
64 63 63 64 64 64 64 63 63 63 63 63 62 62 61 61 61 62 62 62 61 62 62 62 61 60 56 54 54 55 58 60 61 60 60 60 60 60 61 61 61 61
66 65 65 64 64 64 63 63 62 63 63 63 63 62 62 62 63 62 62 63 63 62 63 63 61 59 56 54 53 54 57 60 61 60 60 59 59 60 60 59 58 61
66 65 65 64 64 64 64 63 63 63 63 62 63 63 63 63 64 63 62 63 63 63 62 63 62 62 62 57 54 54 54 60 60 59 59 59 59 59 59 59 59 58

ECMWFNIL_sfc_dewp_033.txt.gz
Dewpoint
75 75 74 73 72 71 71 70 70 69 70 69 68 68 68 69 69 69 69 69 69 68 69 69 69 69 69 70 70 70 69 68 68 68 68 68 67 67 66 67 68 67
75 74 74 73 72 71 71 71 70 70 70 70 69 70 70 70 69 69 69 68 69 68 69 68 69 69 69 68 69 69 69 68 67 67 68 68 67 67 66 66 66 66
74 74 73 72 71 70 69 70 70 70 69 69 70 70 69 70 70 70 69 68 68 67 69 68 69 69 68 69 69 69 68 68 67 66 67 67 66 67 67 65 66 66
74 73 73 72 71 70 70 70 70 70 70 70 69 69 69 69 70 70 70 70 69 69 68 68 67 67 68 68 69 68 68 68 67 67 67 67 67 66 66 66 66 66
73 72 72 72 71 71 70 69 68 68 68 69 69 70 70 70 69 69 69 69 70 68 69 68 68 68 69 68 69 68 67 66 67 69 68 66 67 67 66 66 66 65
73 72 72 71 71 70 69 68 69 68 68 68 69 68 68 69 69 68 67 67 66 66 66 66 67 67 67 68 69 68 67 66 66 68 67 66 65 66 66 66 66 65
72 71 71 70 69 69 69 69 69 69 69 68 70 69 69 68 69 68 68 67 66 67 66 67 68 67 68 68 68 68 68 67 67 68 67 66 67 66 67 67 67 66
72 71 70 69 69 69 69 69 69 69 70 70 69 70 70 68 69 68 68 68 66 68 69 68 69 69 67 68 68 67 67 67 67 68 68 67 67 67 66 67 67 66
71 70 69 68 68 67 66 66 67 69 69 69 68 67 69 69 68 68 69 69 69 69 69 69 70 69 69 68 68 68 67 66 66 66 66 65 65 66 66 66 66 66
70 68 67 66 64 66 64 64 64 67 68 68 68 67 68 69 68 68 69 69 68 68 69 69 69 69 68 68 68 68 67 67 67 67 67 66 66 65 64 65 65 65
69 68 67 66 64 64 64 64 64 64 66 66 67 66 67 67 68 68 68 68 67 67 68 68 68 68 68 67 67 67 67 66 67 67 67 67 67 66 66 65 65 64
68 67 65 64 64 64 64 64 64 66 65 65 66 65 65 65 67 67 67 67 67 67 68 68 68 68 68 68 67 67 67 67 66 67 66 67 66 66 66 66 65 65
66 66 65 64 65 65 65 64 64 63 63 63 64 64 64 63 64 66 67 67 67 67 67 67 68 67 68 68 68 68 68 68 66 67 67 67 67 66 65 65 65 65
67 67 66 65 66 67 66 65 65 65 65 65 66 64 63 63 63 65 65 66 67 67 67 68 68 68 68 68 68 68 68 68 68 67 67 67 67 67 66 64 65 65
68 68 67 67 67 67 68 67 65 65 66 66 66 65 64 64 64 64 66 66 66 67 67 67 67 68 68 68 68 69 69 68 68 68 66 66 66 64 64 65 64 64
68 68 69 68 67 66 66 65 65 65 66 66 66 65 66 66 66 66 65 65 66 67 67 68 68 68 66 63 64 68 68 67 67 67 66 65 65 64 63 64 65 64
68 68 67 66 65 65 64 64 65 66 67 67 66 66 66 67 66 65 64 65 65 65 66 67 67 67 62 60 61 62 66 66 66 66 66 66 65 65 64 62 63 65
68 68 67 66 66 66 65 66 66 67 67 67 67 66 67 66 65 65 65 64 64 64 64 65 66 63 59 60 60 60 62 65 65 65 65 64 64 64 64 64 63 64
68 68 68 68 67 67 67 67 67 66 67 67 66 67 67 65 65 64 65 64 64 64 64 64 64 62 59 58 59 59 60 62 64 65 64 63 64 64 64 65 65 65
68 68 68 68 67 67 67 67 67 67 67 66 66 67 67 66 65 65 65 65 65 65 65 65 66 62 58 57 57 57 58 60 63 65 65 64 64 64 65 65 65 65
68 68 68 66 65 66 67 67 67 67 67 67 66 67 66 66 66 66 66 65 65 64 65 65 66 60 57 56 55 55 56 58 62 64 64 65 65 65 66 66 66 65
68 68 67 65 64 65 65 66 66 67 67 68 68 67 67 66 66 65 65 65 65 65 64 64 64 59 57 56 55 55 57 61 63 64 64 65 65 66 66 67 67 66
67 67 66 66 65 65 65 65 67 67 68 68 67 67 66 65 65 65 66 65 64 65 65 65 65 61 56 55 55 55 57 63 64 64 65 65 65 66 66 66 66 66
67 66 67 65 65 64 65 66 67 68 68 68 66 66 65 65 65 65 66 66 64 65 63 65 65 63 56 54 54 55 58 63 65 65 65 66 64 63 64 64 64 63
67 67 66 65 64 64 65 66 67 67 68 68 66 66 66 67 66 65 65 66 66 65 64 64 63 62 57 55 54 54 59 63 64 64 64 64 64 63 63 64 64 62
67 68 67 66 65 65 65 67 68 68 67 66 66 66 66 67 67 66 66 66 66 65 64 64 63 65 65 55 53 53 55 64 64 63 63 63 63 62 63 64 63 63

ECMWFNIL_sfc_dewp_036.txt.gz
Dewpoint
77 76 76 75 75 74 74 74 74 73 73 71 70 70 68 69 68 68 67 68 69 68 68 69 69 69 69 69 69 69 68 69 67 67 67 67 66 65 64 65 65 65
77 77 77 76 75 75 74 74 74 74 74 73 71 70 70 70 69 68 68 68 69 68 69 68 69 69 69 68 69 68 68 68 67 66 67 67 66 66 65 65 64 65
77 77 77 76 75 75 74 75 75 74 73 72 72 71 70 70 70 69 69 68 68 67 68 69 69 69 69 68 69 69 67 68 67 65 67 67 65 66 65 63 64 64
78 77 77 76 75 75 75 75 75 74 73 72 71 71 70 69 69 69 69 69 68 68 67 68 68 68 68 68 69 67 68 68 67 67 66 66 66 65 65 64 64 64
78 77 77 76 75 76 76 75 73 73 73 72 72 71 70 70 69 68 68 68 69 67 67 68 68 67 68 68 69 67 66 66 66 67 66 65 66 65 64 64 64 63
78 78 77 76 76 76 75 74 74 73 73 72 72 70 69 69 68 67 68 67 66 65 65 66 67 66 66 67 68 67 66 64 64 66 66 65 64 64 63 63 64 64
77 77 76 76 76 76 75 75 74 74 72 72 72 70 69 68 68 67 68 68 66 66 65 66 67 66 66 66 67 67 66 66 65 66 66 65 65 64 63 63 64 64
76 76 76 75 75 75 75 74 74 73 73 72 70 70 69 66 68 67 68 68 66 66 66 66 67 67 65 65 66 66 66 65 64 65 65 65 64 64 64 63 64 64
76 75 74 73 74 74 72 72 72 73 72 71 70 68 69 67 67 67 68 69 68 66 67 67 67 67 66 65 65 66 65 64 63 64 65 64 63 64 64 64 63 63
75 74 73 72 71 72 71 71 70 72 72 71 69 66 68 69 68 68 69 69 68 67 67 67 67 67 66 65 66 66 66 65 65 65 64 64 64 64 63 63 63 64
75 74 73 72 71 70 70 69 69 69 70 69 68 66 69 70 69 69 69 69 67 66 66 67 66 67 66 65 65 66 66 65 65 66 65 65 65 64 64 64 63 63
75 74 73 72 71 70 69 69 70 69 68 67 68 66 67 67 69 69 69 69 68 67 67 66 67 67 66 66 65 65 66 65 65 65 64 65 64 63 63 63 63 63
75 74 73 71 71 71 71 69 68 67 66 65 65 65 65 65 66 67 68 68 68 68 66 66 66 66 67 67 67 66 66 66 65 64 65 65 65 63 62 61 62 63
75 74 73 72 71 72 71 70 69 69 68 67 67 65 64 64 63 66 66 67 67 68 67 67 67 67 68 68 67 66 66 66 66 66 64 64 64 64 63 61 61 62
74 74 73 73 72 73 72 72 70 70 69 68 68 65 63 62 63 63 66 67 67 68 68 67 66 66 66 65 66 67 67 66 66 66 65 64 63 62 61 62 61 60
71 73 73 73 72 72 72 72 70 70 68 68 67 65 66 66 65 64 64 66 67 68 68 67 67 66 65 63 64 66 66 66 66 65 65 64 63 63 61 61 60 61
71 71 73 73 73 72 72 72 71 70 69 69 68 67 67 68 67 66 65 66 66 66 67 67 67 66 64 62 62 63 66 65 65 65 65 65 63 63 63 62 60 60
72 71 71 73 73 73 72 72 72 70 70 70 69 69 69 68 68 68 68 66 66 66 66 67 67 65 62 61 62 61 63 66 63 62 63 63 63 62 62 62 62 61
72 71 71 71 73 73 72 72 71 70 70 69 68 69 69 69 69 69 69 68 67 67 66 66 66 64 61 60 60 60 60 63 63 62 62 63 63 62 62 63 62 62
72 71 71 71 72 73 72 72 71 71 69 68 68 69 69 69 68 68 69 69 68 68 67 66 66 63 59 58 58 58 59 61 63 62 62 62 63 63 63 63 62 62
71 71 71 71 71 72 72 71 71 70 70 67 66 67 68 68 67 69 69 69 67 66 67 66 66 60 57 57 56 56 57 59 63 63 63 63 63 64 65 64 63 63
71 71 71 71 71 71 71 71 70 69 69 68 68 67 67 66 68 68 68 68 67 67 65 65 64 59 57 57 56 55 57 63 63 63 63 64 64 64 64 64 64 65
70 70 70 71 71 70 70 70 69 69 68 67 66 63 64 66 67 65 67 67 67 67 67 66 65 63 57 56 55 55 57 63 64 63 64 65 65 64 64 65 66 67
70 70 70 70 70 71 70 70 70 69 68 67 64 64 64 64 67 68 68 67 65 66 64 64 65 62 55 54 54 55 59 64 64 65 66 66 65 65 65 65 65 66
70 71 70 70 70 70 70 70 69 68 68 68 67 66 64 67 66 65 66 67 66 66 68 65 64 61 54 53 54 54 60 65 65 65 65 65 64 64 65 65 66 66
71 71 71 70 71 70 70 68 68 67 66 66 66 63 62 64 64 63 66 65 66 65 64 65 65 66 69 54 52 53 56 65 66 65 64 64 64 63 63 65 65 67

ECMWFNIL_sfc_dewp_039.txt.gz
Dewpoint
75 75 74 74 74 73 73 73 73 73 73 70 68 69 69 70 70 69 68 69 68 67 68 69 69 69 67 67 67 66 66 66 67 66 68 67 66 65 64 65 65 65
76 75 75 75 75 74 74 74 74 73 73 72 71 71 71 71 69 68 68 68 69 67 69 68 69 69 68 67 68 67 67 67 67 64 67 67 67 66 64 64 64 65
76 76 75 74 72 73 72 73 74 74 72 72 72 71 70 71 70 69 69 68 68 67 68 69 69 68 68 67 68 67 66 67 66 64 66 66 66 66 65 63 64 64
77 76 75 74 73 73 74 73 74 74 73 72 71 70 70 70 71 69 69 68 68 68 68 68 68 67 68 68 68 67 67 67 66 66 66 67 66 65 65 65 64 64
77 77 76 75 75 74 74 74 73 73 72 72 71 71 71 71 71 70 69 68 68 68 68 68 68 68 68 68 68 67 66 65 66 67 66 66 66 65 64 64 64 63
77 78 77 76 76 75 74 74 74 72 72 71 71 70 70 70 70 70 69 68 66 66 65 66 67 67 67 68 68 67 66 64 64 66 65 65 64 64 63 63 64 64
77 77 77 76 76 75 75 74 74 74 73 72 73 71 71 70 70 69 69 68 67 67 66 67 68 67 67 68 68 67 66 66 65 66 65 65 65 64 63 63 64 64
77 77 77 77 76 75 75 75 75 74 74 73 72 72 72 70 70 68 68 68 66 68 69 68 68 69 65 66 67 67 66 64 65 66 66 65 65 64 64 63 64 64
77 77 77 77 76 75 73 73 73 74 74 73 72 72 72 71 70 68 69 68 68 68 69 67 68 68 68 66 66 66 65 64 64 65 65 64 64 64 64 64 64 64
77 77 77 75 74 74 73 72 72 73 74 74 73 72 71 71 70 69 68 69 68 68 67 67 67 67 68 67 67 66 65 65 65 65 65 64 64 63 63 64 64 64
77 76 76 75 73 73 73 71 71 71 73 73 72 70 70 70 69 69 69 69 67 67 67 67 66 68 68 66 67 67 66 65 65 65 65 64 64 64 64 65 64 64
77 77 76 75 74 73 72 70 70 71 72 72 71 70 70 68 68 68 68 69 68 68 68 67 68 68 69 68 66 66 66 66 65 64 64 65 65 64 64 65 64 64
77 77 76 74 75 74 72 71 69 69 70 70 71 69 68 67 66 67 68 68 69 68 67 67 67 67 69 68 68 67 68 66 63 63 64 64 64 64 63 63 63 63
77 77 76 75 74 75 74 72 71 71 72 73 72 70 66 66 65 66 66 67 68 68 68 68 68 66 68 68 68 68 66 65 65 64 63 64 64 64 63 62 62 61
78 77 76 76 74 75 74 73 72 72 72 72 72 69 67 64 64 63 66 67 68 67 68 67 66 66 67 67 67 67 67 65 64 65 65 64 64 63 62 62 61 60
77 77 77 76 75 75 75 74 72 72 71 72 71 69 68 64 64 65 66 66 67 67 67 67 66 66 67 64 65 68 67 65 64 65 65 64 64 64 62 61 61 60
77 76 76 76 75 75 75 75 74 73 73 73 72 70 67 66 63 63 64 65 64 65 66 67 66 66 64 62 62 64 67 67 65 65 66 65 64 65 64 63 61 60
76 76 76 75 75 75 74 74 74 74 73 74 72 69 67 65 64 65 66 65 64 65 66 68 67 65 61 61 61 61 64 68 64 64 63 63 63 63 63 63 62 62
76 76 75 75 75 74 75 75 74 74 73 72 71 70 67 67 67 66 65 64 66 67 66 65 67 63 60 60 61 61 61 64 64 61 60 61 62 62 62 63 63 63
76 75 75 74 74 74 74 74 74 73 72 71 70 70 68 68 67 66 66 67 67 68 68 67 67 63 60 59 59 60 60 62 64 61 60 61 62 61 62 63 63 63
74 74 73 73 72 73 74 74 74 74 72 72 70 69 68 69 67 68 68 67 66 67 67 67 68 60 58 58 58 58 59 60 65 61 60 62 62 62 63 64 64 64
73 73 73 72 72 72 72 73 74 74 73 73 71 69 69 68 68 68 69 68 69 67 66 66 66 58 57 58 57 57 59 64 64 62 62 62 63 63 64 65 65 66
73 73 72 72 72 72 71 71 73 73 73 73 71 70 69 68 69 67 67 68 67 67 65 67 65 61 56 56 56 56 58 64 64 63 63 64 64 64 64 65 66 65
72 72 72 72 72 72 71 71 71 72 72 73 71 70 67 67 67 64 67 68 64 64 64 65 65 63 55 54 55 55 59 65 65 65 65 65 65 65 65 66 65 66
72 71 72 71 71 70 70 71 71 72 72 72 70 70 69 69 67 65 66 62 58 62 67 68 64 59 54 54 54 54 60 66 69 67 66 65 66 66 67 66 66 67
71 72 72 71 71 71 71 71 72 70 70 70 70 68 68 66 66 65 61 57 62 63 62 63 60 63 60 53 53 53 56 65 68 68 67 66 67 66 66 65 64 66

ECMWFNIL_sfc_dewp_042.txt.gz
Dewpoint
77 77 76 76 76 75 75 76 75 75 75 74 74 73 72 72 73 72 70 71 71 70 71 71 72 71 71 71 71 71 71 69 70 71 70 71 71 69 68 68 69 70
76 77 76 76 76 76 76 76 76 75 75 75 74 73 73 72 72 72 71 70 70 69 71 71 71 72 71 70 71 69 71 70 69 68 69 69 70 69 67 69 68 69
76 76 76 76 75 75 73 75 76 76 75 74 74 74 72 73 71 72 72 71 69 68 70 71 71 71 70 71 70 70 69 70 69 67 70 69 69 69 70 67 68 68
76 76 75 75 75 75 75 75 75 76 75 74 73 73 71 71 72 71 72 72 70 69 69 69 70 69 70 70 70 69 69 70 69 69 71 70 70 69 69 69 69 69
76 76 76 75 75 76 75 75 74 75 74 74 73 73 73 73 72 71 71 70 71 70 69 70 70 69 70 69 70 69 68 69 69 69 70 70 70 69 68 69 69 67
77 77 76 76 76 76 75 74 74 74 74 73 73 73 72 73 72 70 70 69 68 68 67 68 69 69 68 69 70 69 68 67 67 69 69 69 67 68 66 68 68 67
77 77 76 76 75 75 75 74 74 74 74 73 74 73 72 71 71 71 70 69 67 68 68 68 69 69 69 70 70 69 70 69 69 68 68 68 68 68 67 68 69 68
77 76 76 76 75 75 74 74 74 75 75 75 73 73 72 70 71 71 70 70 67 69 69 69 70 70 69 70 69 69 68 68 68 68 67 67 68 67 68 68 69 68
77 77 76 76 75 75 73 72 74 75 75 75 73 72 72 71 71 71 71 70 69 69 69 69 70 70 69 69 69 69 68 67 66 68 68 67 66 67 67 68 67 67
77 77 76 74 73 74 72 71 72 74 75 74 73 72 72 72 72 71 71 71 70 69 69 69 70 69 69 69 69 68 68 67 67 67 67 67 66 66 66 67 67 67
76 76 76 75 74 73 73 71 72 72 73 73 73 71 72 72 72 72 71 71 69 69 69 69 69 69 69 67 69 69 68 67 67 67 67 67 66 67 68 67 67 66
76 76 76 75 74 73 72 72 71 73 73 72 72 72 72 71 72 71 70 70 69 69 69 68 69 69 69 67 67 68 67 66 67 67 66 67 67 67 67 67 67 67
76 76 76 75 75 75 74 73 71 71 72 72 72 71 71 70 70 70 70 69 69 69 69 67 67 69 69 68 68 67 67 67 66 67 67 66 66 66 65 66 66 67
76 76 76 76 75 76 75 74 72 72 73 74 73 72 71 70 69 69 69 69 69 69 69 68 68 68 69 69 68 67 67 67 67 66 66 66 66 66 65 64 65 65
77 77 76 77 76 76 75 75 74 74 74 74 74 72 71 70 70 68 68 69 68 69 68 67 67 68 68 68 68 68 67 67 67 67 66 66 65 64 64 65 64 64
77 77 77 77 77 76 76 75 74 74 73 74 73 72 71 71 70 69 68 68 68 68 68 67 67 68 67 64 65 67 67 67 67 67 66 66 67 66 64 65 64 63
78 78 78 78 77 77 76 76 75 74 74 74 74 73 72 72 70 68 67 67 67 67 67 67 67 67 63 62 63 65 67 67 67 67 67 67 67 67 67 65 64 64
78 78 78 78 77 77 76 76 75 75 74 75 74 73 73 71 69 68 68 67 67 67 66 67 68 65 61 61 62 63 65 67 66 66 66 67 66 66 67 66 66 65
79 78 78 78 77 77 77 77 76 75 75 75 74 74 73 71 70 68 67 67 67 68 66 67 67 63 60 60 61 61 63 66 66 66 65 65 66 66 67 67 67 66
79 78 77 77 77 77 77 76 76 75 75 74 74 74 73 71 68 68 68 69 68 68 67 67 67 61 59 59 60 60 60 63 66 66 66 66 66 65 65 66 67 66
78 77 77 77 77 76 76 76 76 76 75 74 73 73 72 70 68 67 67 68 67 67 67 67 68 59 58 59 58 58 58 61 65 65 65 67 65 65 68 69 69 68
77 77 77 76 76 76 75 75 75 76 75 75 73 72 71 70 69 67 67 67 68 66 65 68 68 57 58 57 57 57 58 65 65 65 65 64 65 69 68 67 67 66
77 76 76 76 75 75 74 74 75 76 76 75 74 73 71 69 69 68 68 67 66 69 68 68 66 58 56 55 56 57 59 65 66 66 66 66 69 67 69 68 67 67
76 75 75 74 74 73 73 73 73 75 75 76 74 73 71 69 69 69 69 68 66 68 66 68 66 59 56 55 56 56 60 65 67 67 66 67 69 69 69 69 68 67
76 75 74 73 73 72 72 72 73 74 74 75 74 73 72 71 70 69 69 69 68 67 68 67 66 60 55 55 55 55 61 67 68 67 68 68 69 68 66 67 67 67
75 75 74 73 73 73 73 73 73 72 73 73 73 72 72 71 70 69 68 68 67 66 68 69 67 62 60 55 55 54 58 68 69 69 68 69 68 67 65 65 67 66

ECMWFNIL_sfc_dewp_045.txt.gz
Dewpoint
74 74 74 73 73 73 73 72 72 73 73 73 72 72 72 69 69 69 68 68 69 68 67 68 69 68 68 69 68 69 68 67 68 68 67 68 66 66 67 66 66 65
74 74 74 73 73 73 74 73 72 73 73 73 72 72 71 70 69 69 68 67 69 69 68 67 70 68 68 67 68 67 67 67 66 69 67 67 67 67 67 67 65 66
74 74 74 73 73 73 73 73 73 73 73 73 72 72 70 71 70 69 68 67 67 68 69 67 69 69 69 67 67 66 67 66 65 68 67 66 67 66 66 67 66 66
74 74 74 74 73 73 73 74 74 73 73 73 72 72 70 70 71 68 68 70 66 67 69 68 67 69 69 68 67 66 66 67 67 67 67 67 67 66 66 67 67 66
74 74 74 74 74 74 73 74 73 73 73 73 72 71 71 69 70 69 68 68 67 66 68 68 68 68 68 68 67 66 66 67 67 67 68 67 67 67 67 66 66 66
74 74 74 74 74 74 73 73 73 73 73 73 72 72 70 69 69 69 68 68 67 66 67 68 68 68 68 67 68 66 66 66 66 67 67 68 66 67 67 67 66 65
74 74 74 74 74 74 73 73 73 73 73 73 72 72 70 69 68 69 68 68 67 67 67 67 68 68 68 67 68 67 66 66 66 67 66 67 67 66 66 65 66 65
74 73 74 74 73 73 73 73 73 73 73 73 72 72 70 69 68 68 68 68 67 67 67 67 68 68 67 67 67 67 66 66 66 66 66 66 66 66 66 65 65 65
74 73 74 74 73 73 73 73 73 73 73 73 72 71 71 70 69 68 68 68 68 67 67 67 68 68 67 67 67 67 66 66 66 66 65 65 65 64 65 66 66 65
74 74 73 73 73 73 73 73 73 73 73 73 73 72 71 70 69 68 68 68 67 67 67 67 67 67 67 67 67 67 66 66 66 66 66 65 65 64 64 65 65 65
73 73 73 73 73 72 72 72 72 72 73 73 73 72 71 70 70 69 68 68 67 67 67 67 67 67 67 67 67 67 67 66 66 65 66 65 65 65 67 65 65 64
73 73 73 73 73 72 72 72 72 72 72 73 73 72 71 70 70 69 69 68 67 67 67 67 68 67 67 67 67 67 67 66 66 65 65 66 65 65 65 65 65 64
73 73 73 73 73 73 72 72 71 71 72 72 72 72 71 70 70 69 70 69 68 67 67 66 67 68 67 67 67 67 67 66 66 65 65 65 65 65 65 65 65 65
73 73 74 74 73 73 73 72 71 71 72 72 72 72 71 70 70 69 69 69 68 67 67 67 67 67 67 67 67 67 67 67 66 65 65 64 65 65 64 65 65 66
73 73 74 74 74 73 73 72 72 71 72 72 72 72 71 70 70 70 69 69 69 68 67 67 67 67 67 66 66 67 67 66 66 65 65 64 64 64 64 64 65 65
73 73 73 74 74 73 73 73 72 71 72 72 72 71 71 71 70 70 69 69 68 68 68 67 67 67 66 63 63 66 66 66 66 65 64 64 64 64 64 65 64 64
73 73 73 73 74 74 73 73 73 72 72 72 72 72 71 71 71 70 69 69 68 67 67 68 67 66 62 61 62 63 65 66 65 65 65 64 64 64 64 64 64 64
73 73 73 73 74 74 74 73 73 72 72 72 72 72 71 71 71 70 70 69 68 67 67 67 67 63 60 61 62 62 64 66 65 65 65 65 64 64 64 64 65 65
74 74 73 73 73 74 74 74 73 72 72 72 72 72 72 71 71 70 69 69 68 67 66 66 66 62 60 60 61 61 62 65 66 66 65 65 65 65 65 66 66 66
74 74 74 73 74 74 74 74 73 73 72 72 73 73 72 71 70 69 68 68 68 67 66 66 66 61 59 59 60 60 61 63 66 65 65 65 66 67 67 66 65 66
74 74 74 74 74 74 74 74 73 73 73 73 73 72 72 71 70 68 68 68 67 67 66 66 66 58 58 58 58 58 59 62 65 66 66 66 66 66 66 66 67 66
75 75 75 75 75 75 74 74 74 73 73 73 73 73 72 71 69 68 67 67 67 66 66 66 66 57 57 57 58 58 61 64 65 65 65 65 64 65 66 67 65 65
76 75 75 75 75 74 74 74 74 74 73 73 72 72 71 70 68 67 67 67 66 66 66 66 62 57 56 56 57 59 62 64 64 64 64 64 63 64 65 64 65 65
76 76 75 75 75 74 74 74 74 74 74 74 72 72 70 69 68 67 67 67 66 66 66 66 61 57 55 55 57 59 60 60 62 64 64 64 65 65 65 66 67 67
76 76 75 75 74 74 74 74 74 74 74 74 73 72 71 70 68 67 67 67 66 66 66 64 61 58 55 55 56 56 59 60 63 64 64 65 66 65 65 65 65 68
76 75 75 74 74 73 73 73 74 74 74 74 73 72 71 70 68 68 67 67 67 67 66 65 63 61 58 55 54 54 56 63 65 65 64 65 66 64 63 62 63 64

ECMWFNIL_sfc_dewp_048.txt.gz
Dewpoint
72 71 71 72 72 71 71 71 71 71 71 72 72 72 71 71 71 71 70 69 68 67 66 67 67 66 67 67 67 66 68 67 67 67 67 67 65 65 65 65 65 63
72 72 72 72 72 72 72 72 71 72 72 72 72 72 72 71 71 70 69 68 68 67 66 67 67 66 67 68 67 65 67 67 66 68 67 66 65 65 65 65 65 64
72 72 72 72 72 72 72 72 72 72 72 72 72 72 72 71 70 70 69 68 68 66 66 67 67 67 67 67 67 66 66 66 66 67 67 66 66 65 65 66 65 64
72 72 72 72 72 72 72 72 72 72 72 72 72 72 72 71 70 69 69 69 67 67 66 66 67 66 66 66 67 66 66 66 66 67 66 66 66 66 65 65 66 65
72 72 73 73 73 72 72 72 72 72 72 72 72 72 72 71 69 68 68 67 67 67 67 66 67 67 67 66 67 65 66 66 66 67 66 66 66 66 65 66 65 65
72 73 73 73 73 73 72 72 72 72 72 72 72 72 71 71 69 69 68 67 66 67 67 66 66 67 67 67 66 65 65 66 66 66 66 66 65 66 66 66 65 65
72 73 73 73 73 73 72 72 73 72 72 72 72 72 71 70 70 69 68 67 66 66 67 66 66 67 68 67 66 65 65 65 65 66 66 66 66 66 66 66 65 64
72 73 73 73 73 73 73 72 73 72 72 72 72 72 71 70 70 69 68 67 66 66 66 67 67 66 67 67 67 66 65 65 65 66 65 66 66 66 66 66 65 64
73 73 73 73 73 73 73 72 73 73 73 72 72 72 72 70 69 69 68 68 67 66 66 66 67 66 67 67 67 66 65 65 65 65 65 65 65 66 65 65 65 64
73 73 73 73 73 73 72 72 72 73 73 73 72 72 71 71 69 69 69 68 67 67 66 66 66 67 67 67 66 66 66 65 65 65 65 65 65 65 65 65 64 64
73 73 73 73 73 73 72 72 72 72 73 73 72 72 72 71 70 69 68 68 67 67 66 66 66 67 67 66 66 66 66 65 65 65 65 65 65 65 67 65 65 64
73 73 73 73 73 73 72 72 72 72 72 73 72 72 71 71 70 69 68 68 67 67 67 66 66 67 67 66 66 66 66 66 66 65 65 65 65 65 65 65 64 64
73 73 73 73 73 73 72 72 72 72 72 72 72 72 71 71 70 69 68 68 68 67 67 67 66 67 67 66 66 66 66 66 65 66 65 65 65 65 64 65 64 64
73 73 73 73 73 73 72 72 72 72 72 72 73 72 72 71 70 69 68 68 68 67 67 67 67 67 67 67 66 66 66 66 66 65 65 65 65 65 65 64 65 64
73 73 73 73 73 73 72 72 72 72 72 72 72 72 72 71 71 70 69 68 68 67 67 67 67 67 67 66 66 66 66 66 66 65 65 65 65 65 65 65 64 64
73 73 73 73 73 72 72 72 72 72 72 72 72 72 72 72 71 70 69 69 68 68 67 67 67 67 65 62 63 66 66 66 66 66 65 65 64 64 65 65 64 64
73 73 73 72 72 72 72 72 72 72 71 71 72 72 72 72 71 70 70 69 69 68 67 67 67 67 63 61 61 63 66 66 66 66 66 65 64 64 64 64 64 64
73 73 72 72 72 72 72 72 72 72 71 71 71 71 72 72 71 71 70 69 69 69 68 67 67 64 61 60 61 62 64 67 66 66 66 65 64 64 64 64 64 64
73 73 72 72 72 72 72 72 72 72 71 71 71 71 71 71 71 71 70 70 69 69 68 68 67 63 61 60 60 62 64 65 66 66 65 65 65 64 64 64 64 65
73 73 72 72 72 72 73 72 72 72 72 71 71 71 71 71 71 71 70 70 69 69 68 68 68 63 60 58 59 62 63 64 66 65 65 65 65 65 65 64 64 65
73 73 72 72 72 72 72 72 72 72 72 71 71 71 71 71 71 71 70 70 70 69 69 68 68 61 58 57 58 60 61 64 66 66 66 66 65 65 65 65 65 65
73 73 73 72 72 72 72 72 72 72 72 72 71 71 71 71 71 71 70 70 70 69 68 68 68 58 57 57 57 59 60 66 66 65 65 65 65 66 66 66 65 65
73 73 73 72 72 72 72 72 72 72 72 72 72 71 71 71 71 71 71 70 70 69 68 68 66 58 56 55 57 58 60 66 66 65 64 65 65 65 66 66 66 65
73 73 73 72 72 72 72 72 72 73 72 72 72 71 71 71 71 71 70 70 69 69 68 67 65 57 54 54 56 57 61 65 65 64 63 64 64 64 65 65 66 68
73 73 73 73 72 72 72 72 72 73 73 73 72 72 72 72 71 70 69 69 69 68 66 67 64 58 53 55 56 56 61 65 64 63 63 64 64 63 63 64 65 68
73 73 73 73 73 73 73 73 73 73 73 72 72 72 72 71 70 69 68 68 68 68 67 67 65 62 58 54 55 55 58 64 63 61 61 62 64 64 63 63 65 66

ECMWFNIL_sfc_dewp_051.txt.gz
Dewpoint
71 71 70 71 70 71 71 71 71 71 71 72 72 73 73 73 73 72 72 71 71 69 69 67 67 65 66 66 66 66 67 66 66 66 65 66 64 63 63 62 63 62
71 71 71 71 71 71 71 71 71 71 71 71 72 73 73 73 73 72 71 71 71 69 68 67 67 65 65 66 66 66 66 66 66 67 65 65 65 64 63 64 64 63
71 71 71 71 71 71 71 71 71 71 71 71 72 72 72 73 72 72 71 71 70 69 68 67 67 66 65 66 66 65 66 66 66 66 66 65 65 65 64 64 64 63
71 71 71 71 71 71 71 71 71 71 71 71 71 72 72 72 72 71 71 72 70 69 68 67 66 66 65 65 66 65 65 66 66 66 66 66 66 65 64 65 65 64
71 71 71 71 71 71 71 71 71 71 71 71 71 72 72 72 71 71 71 70 70 69 68 67 66 66 66 65 66 65 65 65 66 66 66 65 65 66 65 65 65 64
71 71 71 71 71 71 71 71 71 71 71 71 71 71 72 72 71 71 70 70 69 68 68 67 66 66 66 65 66 65 65 65 65 66 66 65 65 66 65 65 65 64
71 71 71 71 71 71 71 71 71 71 71 71 71 71 71 71 71 70 70 70 69 68 68 67 66 66 66 65 65 65 65 65 65 65 65 65 65 65 66 65 65 64
70 71 71 71 71 71 71 71 71 72 72 71 71 71 71 71 71 70 70 70 69 68 68 67 66 66 66 66 65 65 65 65 65 65 65 65 65 65 65 65 65 64
70 71 71 71 71 71 71 71 71 72 72 71 71 71 72 71 71 70 70 69 69 68 67 67 66 66 66 66 65 65 64 64 65 65 65 65 65 65 65 65 65 65
70 71 71 71 71 71 71 71 71 71 72 72 72 71 71 71 71 70 70 69 68 68 67 67 67 66 66 66 66 65 65 64 64 64 65 65 65 65 65 65 65 64
70 70 71 71 71 71 71 71 71 71 72 72 72 71 71 71 71 71 70 69 68 68 67 66 66 66 66 66 66 66 65 65 65 64 64 64 65 65 67 65 65 65
71 71 71 71 71 71 71 71 72 72 72 72 72 72 71 71 71 70 70 69 69 68 67 66 66 66 66 66 66 66 66 65 65 65 64 64 64 64 65 65 65 65
71 71 71 71 71 71 72 72 72 72 72 72 72 72 71 71 71 70 70 69 69 68 68 67 66 66 66 66 66 66 66 66 65 65 65 64 64 64 65 65 65 65
71 71 71 71 71 72 72 72 72 72 72 72 72 72 72 71 71 71 70 70 69 68 68 68 67 66 66 66 66 66 66 66 66 65 65 65 65 65 65 65 65 65
71 72 72 72 72 72 72 72 72 72 72 72 72 72 72 72 71 71 70 69 69 69 68 68 67 67 66 66 66 66 66 66 65 65 65 65 65 65 65 65 65 65
71 72 72 72 72 72 72 72 72 72 72 72 72 72 72 72 71 71 71 70 69 68 68 68 68 67 65 61 63 66 66 66 66 65 65 65 65 65 65 65 64 64
71 72 72 72 72 72 72 72 72 72 72 72 72 72 72 72 72 71 71 70 69 69 68 68 68 67 62 61 61 63 65 66 66 66 66 65 65 65 64 65 65 65
71 72 72 72 72 72 72 72 72 72 72 72 72 72 72 72 72 71 71 70 70 69 68 68 68 64 61 60 61 61 63 67 66 66 66 65 65 65 65 65 65 65
72 72 72 72 72 72 72 72 72 72 72 72 71 72 72 72 72 72 71 71 70 69 69 68 68 63 60 60 60 60 61 65 66 66 66 66 65 65 65 64 64 64
72 72 72 72 72 72 72 72 72 72 71 71 71 71 71 71 71 71 71 71 70 70 69 69 68 62 59 59 59 59 61 64 67 66 66 66 66 65 65 64 64 64
72 72 72 72 72 72 72 72 72 72 71 71 71 71 71 71 71 71 71 71 71 70 70 69 69 61 58 58 57 57 60 62 67 66 66 66 66 66 65 65 64 64
72 72 72 72 72 72 72 72 72 72 71 71 71 71 71 71 71 71 71 71 71 71 70 69 69 59 57 57 57 57 60 66 67 66 66 66 65 65 65 65 65 64
72 72 72 72 72 72 72 72 72 71 71 71 71 71 70 70 70 71 71 71 71 71 70 70 70 60 57 56 56 56 60 67 67 67 66 66 65 65 65 65 65 65
72 72 72 72 72 72 72 72 72 72 72 71 71 71 70 70 70 70 71 71 70 70 70 70 70 61 55 54 55 56 61 67 66 67 66 66 65 65 65 65 65 68
71 72 72 72 72 72 72 72 72 72 72 72 71 71 71 71 70 70 70 71 71 70 67 69 70 62 54 54 54 55 63 66 66 66 66 65 65 64 65 65 65 68
71 72 72 72 72 72 72 72 72 72 72 72 72 71 71 71 71 70 70 70 71 70 70 69 69 64 58 53 53 55 60 66 67 66 65 64 64 64 63 63 64 66

ECMWFNIL_sfc_dewp_054.txt.gz
Dewpoint
71 71 71 71 71 71 71 71 71 71 72 72 73 73 74 74 75 74 74 74 74 73 72 71 70 69 68 68 68 68 68 67 67 67 67 68 66 65 65 64 63 64
71 71 71 71 71 71 71 72 72 72 72 72 73 73 74 74 74 74 74 74 74 73 72 71 70 69 68 67 68 68 68 68 67 67 67 67 67 66 65 65 64 65
71 71 71 71 70 71 70 71 72 72 72 72 72 73 73 74 74 74 74 73 73 73 72 71 70 69 68 67 67 67 67 67 67 68 68 67 67 66 66 65 65 65
71 71 71 71 71 71 71 71 71 72 72 72 72 72 73 74 74 74 74 74 73 73 72 71 70 69 68 68 67 67 67 67 67 68 68 68 67 67 66 66 67 66
71 71 71 71 71 71 71 71 71 71 71 71 72 72 73 73 73 73 73 73 73 72 71 70 70 69 68 68 67 67 67 67 67 68 68 67 67 67 67 67 67 66
71 71 71 71 71 71 71 71 71 71 71 71 71 72 72 73 73 73 73 73 72 72 71 70 69 69 68 67 67 67 66 66 67 67 67 67 67 67 67 67 67 66
70 71 71 71 71 71 71 71 71 71 71 71 72 72 72 72 72 73 73 73 72 72 71 70 69 68 68 67 67 66 66 66 67 67 67 67 68 67 67 67 67 67
70 71 71 71 71 71 71 71 71 71 71 71 71 71 72 72 72 72 72 72 72 72 71 70 69 69 68 68 67 66 66 66 66 67 67 67 67 67 67 67 67 67
70 71 71 71 71 70 70 70 71 71 72 71 71 71 72 72 72 72 72 72 72 72 71 71 70 69 68 67 67 67 66 66 66 66 66 66 66 66 67 67 67 66
70 71 70 70 70 70 70 70 70 71 72 71 71 71 71 72 72 72 72 72 71 71 71 70 70 69 68 68 67 67 66 66 66 66 66 66 66 66 66 67 66 66
70 70 70 70 70 70 70 70 70 70 71 71 71 71 71 72 72 72 72 71 71 71 70 70 70 69 68 68 67 67 67 66 66 66 66 66 66 66 67 66 66 66
70 70 70 70 70 70 70 70 70 71 71 71 71 71 71 71 71 72 71 71 71 71 71 70 70 69 69 68 68 67 67 66 66 66 66 66 66 66 67 67 66 66
69 70 70 70 70 71 71 71 70 70 71 71 71 71 71 71 71 71 72 71 71 71 70 70 70 69 69 69 68 68 67 67 66 66 66 66 66 66 66 66 66 66
69 70 70 70 70 71 71 71 71 71 71 71 72 71 71 71 71 71 71 71 71 71 70 70 70 69 69 69 68 68 68 67 67 66 66 66 66 66 66 66 66 66
70 70 70 70 71 71 71 71 71 71 72 72 72 71 71 71 71 71 71 71 71 71 70 70 69 69 68 68 68 68 67 67 67 67 66 66 66 65 65 66 66 66
70 70 70 71 71 71 71 71 71 71 71 71 71 71 72 72 72 72 71 71 71 71 70 70 69 69 66 62 64 68 67 67 67 67 67 66 66 66 65 65 65 65
70 71 71 71 71 71 71 71 71 71 72 72 72 72 72 72 72 72 71 71 71 70 70 70 70 69 63 60 61 63 67 67 67 67 67 67 67 66 66 65 65 65
70 71 71 71 71 71 71 71 71 72 72 72 72 72 72 72 72 72 72 71 71 71 70 70 70 65 62 60 61 61 63 68 67 67 67 67 66 66 66 66 65 65
70 70 71 71 71 71 72 72 72 72 72 72 71 72 72 72 72 72 72 72 71 71 70 70 70 65 61 60 60 60 61 65 67 67 67 67 67 66 66 66 66 66
70 70 71 71 71 72 72 72 72 72 71 71 72 72 72 72 72 72 72 72 72 71 71 71 70 64 60 59 59 59 60 64 68 67 67 67 67 67 66 66 66 66
70 70 71 71 71 72 72 72 72 72 72 72 72 72 72 72 72 72 72 72 72 71 71 71 71 62 59 58 57 58 58 61 68 68 67 68 67 67 67 67 66 66
70 70 71 71 71 72 72 72 72 72 72 72 72 72 72 72 72 72 72 72 72 72 71 71 71 60 58 57 57 57 58 65 68 68 68 68 68 67 67 67 66 66
70 71 71 71 71 71 71 71 72 72 72 72 72 72 72 72 72 72 72 72 72 72 71 71 71 61 57 56 56 56 58 66 68 68 68 67 67 67 67 66 66 65
71 71 71 71 71 71 71 71 72 72 72 72 72 72 71 71 72 72 72 72 71 72 71 71 71 62 55 55 55 55 60 67 68 68 68 67 66 66 66 66 66 67
71 71 71 71 71 71 71 71 72 72 72 72 72 72 72 72 72 72 71 72 72 71 68 70 71 61 54 54 54 55 61 68 68 68 68 67 66 66 66 66 66 68
71 72 72 71 71 71 72 72 72 72 72 72 72 72 72 72 71 71 71 71 71 71 71 71 71 64 59 54 54 54 58 68 68 68 67 67 67 66 66 66 66 66

ECMWFNIL_sfc_dewp_057.txt.gz
Dewpoint
74 74 73 73 73 74 74 74 74 74 74 74 74 75 75 76 77 77 77 77 77 76 76 76 76 75 74 73 73 72 72 71 70 71 71 71 70 69 69 69 70 69
74 74 74 74 74 74 75 74 75 74 75 75 75 75 77 77 77 77 77 77 77 76 77 75 76 75 74 73 73 71 71 72 71 70 70 71 70 70 68 69 68 69
74 74 74 73 72 73 72 74 74 74 74 74 75 76 76 77 77 77 77 77 76 76 76 76 76 75 74 73 73 72 71 71 70 69 70 71 70 70 69 68 68 69
74 74 73 73 73 73 73 74 74 74 74 74 74 74 75 75 76 77 77 77 77 77 77 76 75 75 74 74 73 72 72 72 70 71 71 71 71 70 69 69 68 68
74 74 74 73 73 74 74 74 73 73 73 74 74 75 76 76 76 76 76 77 77 76 77 76 76 75 75 74 73 72 71 71 71 72 71 70 71 70 69 69 69 68
74 75 75 74 74 74 73 73 73 73 73 73 74 74 74 75 75 75 76 75 75 75 75 75 75 75 74 74 73 72 72 70 71 71 71 71 69 70 68 69 69 68
74 74 74 74 74 74 74 73 73 74 73 73 74 74 74 74 75 75 76 75 75 75 75 75 76 75 74 74 73 73 72 72 72 71 71 70 70 70 69 70 69 69
73 73 73 73 73 73 74 73 73 74 74 74 74 74 74 73 75 74 75 75 75 76 76 75 76 76 74 74 73 73 72 71 71 71 71 71 71 70 70 69 70 69
73 73 73 73 73 72 72 72 72 73 74 74 73 73 74 74 74 74 76 76 75 76 76 76 76 75 74 74 73 73 72 71 70 71 71 70 70 70 70 70 69 69
73 73 72 71 71 72 71 71 71 72 73 73 73 72 73 74 74 75 76 76 75 76 76 76 76 75 74 74 73 73 72 72 71 71 70 70 70 69 69 70 69 69
72 72 72 72 71 70 70 70 70 70 72 72 72 72 72 74 74 75 75 75 75 75 75 76 75 75 74 73 73 73 72 72 71 71 70 70 70 70 70 70 69 69
72 72 72 71 71 70 70 70 70 71 71 71 72 72 72 72 73 74 74 75 75 75 75 75 76 75 75 74 72 72 72 72 71 71 70 70 70 69 69 69 69 69
72 72 72 71 72 72 71 71 70 70 70 71 71 71 71 71 71 73 74 74 75 74 74 75 75 75 75 74 73 73 72 72 70 70 70 70 69 69 68 68 68 68
72 73 72 72 72 73 73 72 71 71 72 72 72 72 71 71 70 72 73 73 74 74 74 75 75 75 75 75 74 73 72 72 71 70 70 70 70 69 68 67 68 68
73 73 73 73 73 73 73 73 72 73 73 73 73 72 71 71 71 71 73 73 73 74 74 74 74 74 74 74 73 73 73 72 71 71 70 70 69 68 68 68 67 67
73 73 73 74 73 73 74 73 72 73 72 73 73 72 73 73 73 72 72 73 73 74 74 74 74 74 70 65 67 72 73 72 71 71 71 70 70 69 68 68 67 67
73 73 73 73 73 73 73 73 73 73 73 73 73 73 73 74 73 73 72 72 73 73 73 73 73 73 65 63 64 65 71 72 72 71 71 70 70 70 69 68 68 68
72 73 73 73 73 73 74 74 73 73 73 74 73 73 74 73 73 73 74 73 72 72 72 73 73 67 62 62 62 62 65 72 71 71 70 70 70 69 69 69 68 68
73 73 73 73 73 73 74 74 74 74 74 74 73 74 74 74 74 73 73 73 73 73 72 72 73 66 62 61 61 61 62 66 71 71 70 70 70 70 70 70 70 69
73 73 73 73 73 73 73 73 73 73 73 72 73 73 74 74 73 74 74 74 73 73 72 73 73 65 61 60 59 60 61 64 71 71 71 70 70 70 70 70 71 70
73 73 73 73 73 73 73 73 73 73 73 72 72 73 73 74 73 73 73 73 73 72 72 72 72 63 60 59 58 58 59 60 70 71 70 71 71 71 71 71 72 71
72 73 73 73 73 73 73 73 73 74 73 74 73 72 73 73 74 73 73 73 73 72 71 71 71 61 59 58 57 57 58 66 70 71 70 71 71 71 71 72 72 71
72 72 73 73 73 73 73 73 73 74 74 74 73 73 72 73 73 73 73 73 72 72 72 72 71 64 58 57 56 57 59 68 70 71 71 71 71 71 71 71 71 71
73 73 73 73 73 73 73 73 73 73 74 74 73 72 71 72 72 73 73 73 72 72 72 72 72 65 55 56 56 56 61 69 70 71 71 71 71 72 72 71 71 69
72 73 73 72 73 72 72 73 73 73 74 74 73 73 72 73 73 73 73 74 73 72 68 71 72 66 55 56 55 55 62 70 71 71 70 70 70 70 70 70 70 68
73 73 73 72 72 73 73 73 74 73 73 73 72 72 72 72 72 72 73 73 72 72 72 72 72 71 63 55 54 54 57 70 72 71 70 70 70 70 70 69 70 69

ECMWFNIL_sfc_dewp_060.txt.gz
Dewpoint
75 75 75 74 74 74 74 74 74 74 74 71 71 74 73 75 76 74 75 76 77 76 76 77 77 76 76 76 76 75 75 74 73 71 72 71 69 68 66 67 68 67
75 76 75 75 75 75 74 74 75 74 74 74 72 72 75 75 76 75 76 76 77 76 77 77 77 77 77 76 76 75 74 74 73 71 71 72 70 69 66 68 67 68
76 76 75 75 73 74 73 74 75 75 73 74 74 74 74 76 76 77 77 77 77 76 77 77 77 77 77 76 76 75 74 75 74 71 72 72 70 69 68 66 67 68
76 76 75 74 74 74 75 74 75 75 74 74 74 73 73 74 76 77 77 77 77 77 76 77 76 75 76 76 76 75 75 75 75 74 72 72 72 70 68 67 67 67
76 76 75 75 75 75 75 75 74 74 74 73 74 75 75 76 77 77 77 77 78 77 76 76 77 76 76 76 76 75 74 74 75 74 72 72 72 71 69 67 67 67
76 77 77 76 76 75 74 75 74 74 74 73 74 74 74 75 76 76 76 76 76 75 74 75 76 76 75 76 76 76 75 74 73 73 73 73 72 71 69 68 68 68
76 76 76 75 75 75 75 75 75 75 74 74 75 74 74 74 75 76 76 76 75 76 74 75 77 76 76 77 76 76 76 75 74 74 73 73 73 72 71 70 69 68
75 75 76 76 75 75 75 75 75 75 75 76 74 75 75 74 76 75 76 75 75 76 76 75 77 78 76 76 77 76 76 75 75 74 74 74 73 73 72 70 71 69
75 75 76 76 75 75 73 73 74 75 76 75 74 73 75 75 75 75 76 77 76 76 77 77 77 77 77 76 76 77 76 75 74 74 73 73 72 73 73 72 71 70
75 75 74 73 73 73 73 73 72 74 75 75 75 73 74 76 75 76 76 77 76 77 77 77 77 77 77 76 77 76 76 76 76 75 74 73 73 73 73 72 71 70
75 74 74 74 73 72 72 72 72 71 73 74 74 73 72 75 76 76 76 77 76 76 77 77 77 77 77 76 76 76 76 75 75 76 75 75 74 74 73 73 72 71
75 75 74 73 72 71 71 71 71 72 71 73 73 73 73 72 75 75 76 77 77 77 77 77 78 77 77 77 75 76 76 75 75 75 75 75 74 74 73 73 72 72
74 74 74 72 73 72 71 71 70 70 70 71 72 73 72 71 71 75 75 76 77 77 76 77 77 77 77 77 76 76 76 76 74 74 74 74 74 73 72 72 72 72
74 75 74 74 73 74 74 72 71 72 72 72 72 73 71 71 70 72 74 75 76 76 76 77 77 77 77 78 77 76 75 76 74 74 74 74 74 74 72 72 72 72
75 75 75 75 74 75 74 74 73 73 73 73 73 72 72 71 71 70 73 75 75 76 76 76 75 76 77 77 76 76 76 75 75 74 74 74 74 72 72 72 71 71
75 76 76 76 75 74 75 74 73 73 72 73 73 72 73 74 73 72 71 73 75 76 76 76 75 76 73 67 69 75 75 75 75 75 74 74 74 73 71 71 71 70
76 76 76 76 76 75 75 75 74 74 74 74 74 74 74 75 74 73 72 72 74 74 75 75 75 75 67 65 65 67 73 75 75 75 75 74 73 74 73 71 71 71
75 76 76 76 76 75 75 76 75 75 75 75 74 74 75 74 74 74 74 72 72 73 74 75 75 69 64 64 64 64 67 75 75 74 74 74 73 73 73 72 71 71
76 76 76 76 76 76 75 76 76 75 75 74 74 75 75 75 75 74 74 74 73 74 74 74 74 67 63 62 63 63 64 69 73 74 73 73 73 73 73 73 73 72
76 76 76 76 76 76 76 76 76 75 74 73 74 75 75 75 75 75 75 75 74 74 75 74 75 66 62 61 61 62 63 66 73 73 73 73 73 73 72 73 73 73
75 75 75 75 76 76 76 75 75 75 75 73 73 74 75 75 75 75 75 75 74 73 74 74 74 63 60 59 60 60 61 63 73 72 73 74 73 73 73 73 73 73
74 75 74 75 75 75 75 75 75 75 75 75 74 73 74 74 75 75 74 74 75 74 73 74 73 61 59 59 58 59 60 69 73 73 72 73 73 74 73 74 73 73
73 74 74 74 74 74 75 74 75 75 75 75 74 73 73 73 74 74 75 74 74 75 74 74 74 66 58 57 57 58 60 71 73 73 73 73 73 73 72 72 72 73
74 74 74 74 74 74 74 74 74 75 75 75 74 73 72 72 73 74 75 75 73 74 73 74 74 66 55 56 56 56 62 72 72 72 73 73 73 73 72 72 72 69
74 74 74 74 74 73 73 74 74 74 74 75 74 74 73 73 73 73 74 75 74 73 69 72 73 65 55 56 56 56 63 72 72 72 72 72 73 72 72 71 72 70
73 74 75 73 74 74 74 74 75 73 73 73 74 73 73 72 72 73 74 74 73 73 72 73 73 73 65 55 55 55 58 72 72 71 71 71 72 71 70 71 72 72

ECMWFNIL_sfc_dewp_063.txt.gz
Dewpoint
75 75 74 73 73 73 73 73 74 73 74 71 71 73 73 74 74 73 73 74 75 76 76 77 77 77 76 76 76 75 74 74 73 72 72 69 70 68 66 67 69 68
76 76 75 74 73 74 73 73 75 74 74 73 71 71 74 74 74 73 73 73 75 76 77 76 77 77 77 76 77 76 75 74 74 71 72 71 70 70 67 68 67 69
75 75 74 73 72 73 71 73 74 74 72 72 72 71 71 74 74 75 75 74 74 74 76 76 77 77 76 76 77 76 75 75 74 70 72 71 69 70 70 66 67 67
76 75 74 72 72 72 73 73 73 74 73 72 72 70 69 70 74 74 76 76 75 75 75 75 75 75 76 76 76 75 75 75 74 74 72 71 71 70 70 68 67 67
76 75 74 74 73 73 74 73 72 72 73 72 72 73 72 73 73 74 75 75 75 75 75 75 75 75 76 77 77 76 74 74 74 75 73 71 72 70 69 68 68 67
76 76 76 75 74 74 72 73 73 71 72 71 72 71 71 72 71 73 74 74 73 73 72 72 74 74 74 76 76 76 74 73 73 75 74 72 71 70 69 70 68 68
76 76 76 74 74 74 74 73 74 74 72 72 73 72 72 71 72 73 74 74 73 74 71 73 75 74 74 75 77 76 75 75 74 75 75 72 72 71 70 71 70 68
75 75 76 75 74 74 74 73 74 74 74 74 73 73 73 71 73 73 73 74 73 74 74 73 75 75 73 74 76 76 75 74 74 75 75 73 73 72 72 70 71 70
75 76 76 76 74 73 72 72 72 74 75 74 73 72 74 73 73 73 75 75 75 75 76 75 75 75 75 74 75 76 75 73 73 74 74 73 72 72 71 71 70 70
76 75 75 74 73 73 72 71 71 72 74 74 74 72 73 75 74 74 75 76 75 75 75 76 75 74 75 74 75 76 76 75 74 74 74 74 73 72 71 71 70 70
75 74 74 73 72 71 70 70 70 69 72 74 74 72 71 73 75 75 76 76 75 75 75 76 75 75 76 74 75 76 76 75 74 75 75 74 73 73 73 73 72 71
75 74 73 73 71 70 69 69 69 69 69 72 73 73 71 70 74 74 75 76 76 75 75 76 77 77 77 76 74 75 76 75 75 74 74 75 74 73 73 73 73 72
75 75 73 71 72 71 70 69 68 67 67 69 72 72 71 69 70 74 75 75 77 76 75 76 77 76 77 77 76 75 76 76 74 74 74 74 74 73 72 72 72 72
75 76 74 74 73 75 73 70 69 69 70 70 71 73 71 70 68 71 74 75 76 76 76 76 77 77 77 78 77 76 75 76 75 73 73 74 74 74 73 72 73 72
76 76 76 75 73 75 74 72 71 71 72 71 72 72 72 71 70 68 73 75 75 77 77 76 76 77 77 77 77 77 76 75 76 74 73 73 74 73 73 72 71 72
77 77 77 77 75 75 76 74 71 71 70 70 71 71 73 74 73 71 69 73 75 76 77 76 76 77 73 68 70 77 77 75 75 76 74 73 74 73 72 71 70 69
78 78 78 77 77 75 76 76 74 73 73 74 74 73 74 76 74 72 70 70 73 75 76 76 76 75 68 66 67 69 75 76 75 76 76 74 73 74 73 71 70 70
77 78 78 78 77 77 77 77 75 74 75 75 74 73 76 74 73 73 74 71 70 73 74 76 76 70 65 65 66 66 69 77 75 75 75 74 73 72 73 72 70 69
78 78 78 78 78 77 77 77 77 76 74 74 73 75 75 76 76 75 74 74 72 74 74 75 75 68 64 64 65 65 65 70 74 75 74 74 74 73 73 73 72 71
78 78 78 78 78 78 77 77 77 76 74 73 74 75 75 75 75 76 75 76 75 74 75 75 76 68 62 62 63 63 64 67 74 74 74 74 74 74 73 73 73 72
78 77 78 78 78 78 77 77 77 77 76 74 73 74 75 76 75 75 76 76 74 73 73 73 74 65 61 60 61 61 62 64 74 73 73 75 75 75 75 73 74 73
77 77 77 78 78 77 77 77 77 77 77 76 74 73 74 75 76 75 75 75 75 74 72 73 72 62 60 60 60 60 61 70 75 74 73 74 75 75 75 75 74 74
76 77 77 77 77 77 77 76 77 77 77 77 75 73 73 74 75 74 76 75 75 75 75 74 73 66 58 58 59 59 62 72 75 74 74 74 74 75 75 75 75 74
76 77 77 76 77 76 76 76 75 76 76 76 75 73 71 72 74 75 75 75 74 75 74 74 74 68 56 57 58 58 63 73 74 74 74 74 74 74 74 75 75 70
76 76 76 76 76 75 75 76 75 76 76 76 75 74 73 73 73 74 74 75 74 74 71 73 74 67 56 57 56 57 64 74 74 74 74 74 74 74 74 75 76 72
75 77 77 76 76 76 75 75 76 75 75 74 75 74 73 73 72 72 73 74 74 74 73 73 74 75 65 55 56 56 58 73 75 74 73 74 74 74 74 75 75 75

ECMWFNIL_sfc_dewp_066.txt.gz
Dewpoint
75 75 75 75 75 74 74 75 75 74 74 73 74 74 75 76 76 75 74 76 78 76 77 78 78 78 77 78 78 77 76 75 74 75 74 73 73 71 68 69 71 73
75 75 75 75 75 75 75 76 76 75 75 76 75 75 76 76 75 75 75 76 76 76 77 77 77 78 78 77 78 77 76 76 75 73 74 73 73 72 69 69 69 71
75 75 75 75 74 74 71 74 76 76 76 75 75 76 76 76 76 76 77 76 76 75 77 77 78 78 77 78 78 77 76 76 74 72 74 73 72 73 71 68 69 69
75 75 74 74 74 74 73 73 74 76 74 75 74 73 75 73 75 75 76 77 76 76 76 77 77 77 77 77 78 77 76 76 75 75 75 74 73 72 71 71 69 69
75 75 75 75 74 74 74 73 71 74 73 74 74 74 74 75 75 75 75 76 76 76 77 77 77 77 78 77 78 77 76 76 76 76 76 74 73 72 71 71 70 69
75 76 76 76 75 75 73 72 72 72 73 72 74 73 72 73 75 74 75 74 74 74 74 75 76 76 77 77 77 77 76 75 75 76 75 74 72 71 70 72 71 69
75 75 75 76 75 74 74 73 73 73 73 72 74 73 73 72 73 74 75 75 73 73 72 74 76 75 76 77 77 77 77 76 75 76 75 75 74 72 70 71 72 70
74 74 75 75 74 73 73 73 73 73 73 74 73 74 74 72 72 71 74 75 74 75 75 74 76 76 75 76 77 77 76 75 75 76 75 75 74 73 72 71 72 71
75 75 75 74 72 72 70 70 72 74 74 74 72 71 74 73 73 71 73 75 75 76 76 75 76 76 75 76 77 77 76 75 74 75 75 75 74 73 72 72 72 72
75 75 73 72 72 72 70 68 68 71 73 73 72 71 72 74 74 74 74 75 75 76 76 75 75 75 75 75 76 76 76 76 75 75 75 75 74 73 72 72 71 72
74 74 74 73 72 71 71 69 68 69 71 71 71 70 71 73 74 75 75 75 74 75 76 76 75 75 75 74 75 76 76 76 75 75 75 75 75 74 74 73 72 71
74 73 74 73 71 70 70 69 68 69 70 72 71 71 70 71 74 73 74 76 75 75 76 76 76 75 75 75 74 75 76 76 75 75 74 75 75 74 74 73 72 72
74 74 74 72 73 71 70 70 68 67 67 70 71 72 70 68 71 74 74 75 76 75 75 75 76 75 75 75 75 75 75 76 75 75 74 74 75 74 73 73 72 72
74 74 74 73 73 74 73 71 69 69 69 70 73 73 71 70 69 72 74 74 75 75 76 75 76 76 76 76 76 75 75 76 76 75 74 74 74 74 74 72 72 72
75 75 74 74 74 74 73 72 71 71 71 71 72 72 72 71 70 69 73 74 74 76 76 76 75 75 75 76 76 76 75 75 76 76 75 74 74 73 74 73 72 71
75 76 75 75 74 74 74 73 72 71 70 71 71 72 73 74 73 71 70 74 74 76 76 76 75 75 72 68 70 75 76 74 75 76 75 75 74 74 73 73 72 71
76 76 76 75 75 74 74 74 73 72 72 72 72 72 72 75 74 72 69 71 74 74 76 76 76 75 68 65 66 68 74 75 74 76 76 75 74 74 74 73 72 72
76 76 77 76 75 74 75 75 73 73 73 73 72 72 73 73 74 74 73 69 72 74 74 75 76 70 65 65 65 66 68 75 74 74 75 75 74 73 73 73 73 72
77 77 77 77 76 75 75 75 75 73 73 72 72 72 72 73 75 74 74 73 71 74 75 75 76 69 64 64 64 65 65 70 75 74 73 74 74 73 72 73 73 73
77 77 77 77 76 76 75 75 75 74 72 71 72 73 73 73 73 75 75 75 74 73 75 75 76 70 63 62 63 63 64 67 75 74 74 74 74 74 73 72 73 73
78 78 78 78 77 76 76 75 76 76 74 72 70 72 73 74 73 74 75 75 74 73 73 74 75 68 62 61 61 61 63 64 74 74 74 74 75 75 75 73 73 73
78 78 79 78 78 77 76 76 76 77 76 75 72 71 72 74 74 74 74 74 75 74 72 72 72 65 62 60 60 61 61 69 74 74 74 74 75 75 75 75 74 73
78 78 78 78 78 78 77 76 77 77 77 76 74 73 73 73 74 73 74 74 74 75 74 73 72 66 60 59 59 60 61 71 74 74 74 74 74 75 75 75 75 75
79 79 78 78 78 78 77 76 77 77 77 77 75 73 71 72 74 74 75 75 73 74 74 74 74 68 57 57 58 58 63 72 74 74 74 74 74 74 74 75 76 71
79 79 78 78 78 78 77 77 77 77 77 78 75 74 73 74 74 74 75 75 74 74 71 74 74 70 57 56 56 57 62 72 74 74 74 74 74 74 74 74 75 73
78 79 79 78 78 78 78 78 78 76 77 76 76 74 74 73 73 74 75 75 74 73 73 73 74 74 68 55 56 56 57 71 74 75 74 74 74 74 74 74 74 75

ECMWFNIL_sfc_dewp_069.txt.gz
Dewpoint
71 71 72 72 72 73 73 72 72 72 72 72 73 73 73 73 74 73 74 75 75 75 76 76 76 76 76 76 76 74 74 73 71 71 71 71 69 68 68 67 69 69
72 72 72 72 72 73 74 73 72 71 72 72 73 74 74 74 74 73 74 75 75 75 76 76 76 76 76 76 76 74 74 73 72 73 70 72 70 68 67 67 67 69
72 72 72 72 72 72 73 73 73 72 71 72 73 73 74 75 74 73 73 74 75 75 75 76 76 76 76 76 76 75 73 73 73 72 71 70 71 69 68 67 66 67
72 72 72 72 72 73 73 73 73 72 71 72 72 73 74 75 74 74 74 76 75 75 75 75 76 76 76 76 75 75 74 73 73 73 71 71 71 70 69 68 68 67
72 72 73 72 73 73 73 73 73 73 72 72 72 73 74 74 74 73 74 74 75 74 75 75 75 75 76 76 76 75 74 74 73 73 72 71 71 71 70 69 68 67
72 73 73 73 73 73 73 72 73 73 73 72 72 73 74 74 74 74 73 74 74 74 74 75 75 75 75 75 76 75 75 74 74 73 73 71 71 70 70 70 69 68
72 72 73 73 73 73 73 72 72 73 73 73 74 73 73 73 73 74 73 73 74 74 74 75 75 75 75 75 76 76 75 75 74 73 73 73 71 70 70 70 69 68
72 72 73 73 73 73 73 72 71 72 73 73 73 73 72 72 73 73 74 73 73 74 74 75 75 75 75 75 75 75 75 75 75 74 73 73 72 71 70 70 70 69
72 72 73 73 73 73 72 72 72 71 72 72 72 73 73 71 72 73 74 73 72 73 74 74 75 75 75 76 75 75 75 75 75 74 74 73 73 71 70 69 70 70
72 72 72 73 73 73 72 72 71 71 71 72 72 72 72 72 71 71 73 74 73 72 73 73 74 75 75 75 75 75 75 75 74 74 74 74 73 72 71 70 69 70
72 72 72 72 73 73 72 72 71 70 70 71 71 71 72 72 72 71 71 73 74 73 73 72 73 74 74 74 75 75 75 75 75 74 74 74 73 73 74 71 70 69
72 72 72 72 72 72 72 72 71 71 70 70 71 71 71 71 72 71 70 71 73 74 74 73 73 74 74 74 74 75 75 75 75 74 73 73 74 73 73 72 71 70
72 72 72 71 72 72 71 71 70 69 70 70 70 70 70 70 71 71 72 70 71 73 74 74 74 73 74 74 74 74 75 75 75 75 74 73 73 73 73 73 72 71
72 72 72 71 71 72 71 70 70 69 69 70 71 70 69 70 71 71 71 72 71 71 72 74 74 73 73 74 74 73 74 74 74 74 74 74 73 73 73 73 72 72
72 72 72 72 72 71 71 70 70 69 68 69 70 70 70 69 70 71 71 71 72 72 71 73 74 74 74 73 73 73 73 74 74 74 74 74 73 73 73 73 73 72
72 72 72 72 72 72 71 71 70 69 68 68 70 70 70 69 69 70 71 71 72 73 73 73 73 74 72 67 69 73 73 73 74 74 74 73 73 73 73 73 73 72
72 72 72 72 72 72 72 71 70 70 69 68 69 70 70 70 70 68 70 71 71 72 73 73 73 73 67 65 65 67 72 73 73 74 74 74 73 73 72 72 73 73
72 72 72 72 72 72 72 71 70 70 69 69 68 70 71 71 71 70 69 71 72 71 72 73 73 69 65 64 64 64 66 73 73 73 74 74 73 73 73 72 72 72
73 72 72 71 71 72 72 72 71 70 70 69 68 69 71 72 72 71 70 70 72 72 71 72 73 68 64 63 63 63 63 68 72 73 73 73 74 73 73 73 73 73
73 72 72 72 72 72 72 72 71 70 70 69 69 69 70 71 72 72 72 71 71 72 72 72 73 68 63 62 62 62 63 65 72 72 72 72 73 73 73 73 73 72
73 73 72 72 72 72 72 72 71 71 70 70 69 69 69 70 71 72 72 72 71 70 72 72 73 67 63 61 61 60 61 62 71 72 72 72 72 73 73 73 72 72
73 73 73 73 73 72 72 71 71 71 70 70 70 69 70 70 70 70 72 72 72 71 70 72 73 65 62 61 60 60 60 67 71 72 72 72 72 72 72 73 73 72
73 73 73 73 73 73 72 71 71 72 71 71 70 69 69 69 70 69 70 71 72 72 71 70 71 67 61 60 59 59 60 69 71 71 72 72 72 72 72 72 72 73
73 73 73 74 74 73 73 72 71 72 72 72 70 69 68 69 70 70 70 70 71 72 72 71 70 66 59 59 58 58 62 70 71 72 72 72 72 72 72 72 73 70
74 74 74 74 74 74 74 73 72 72 72 73 72 70 69 69 70 70 70 71 71 71 70 71 72 69 57 57 57 57 62 70 72 72 72 72 73 73 73 73 73 72
75 75 75 75 75 75 75 74 73 73 73 73 73 72 71 70 71 71 71 71 71 71 71 72 72 73 66 55 56 56 58 69 72 72 72 72 73 73 73 73 73 73

ECMWFNIL_sfc_dewp_072.txt.gz
Dewpoint
70 70 70 69 70 71 69 69 70 71 69 71 72 72 72 72 73 73 74 75 75 75 75 75 76 75 75 75 74 73 72 70 70 71 69 69 67 67 66 67 68 66
70 70 71 70 70 71 72 70 69 71 71 71 72 72 73 73 73 73 73 74 75 75 75 75 75 75 75 75 74 73 73 71 70 71 70 69 68 67 66 66 68 68
70 70 70 70 70 70 71 71 70 70 71 71 72 73 73 73 73 73 73 74 74 74 75 75 75 75 75 75 74 73 73 72 70 70 71 70 69 68 66 66 66 68
70 70 70 70 70 70 71 72 71 71 71 72 72 73 73 73 73 73 73 75 74 74 75 75 75 75 75 75 75 74 73 73 72 71 70 70 70 69 67 66 66 66
70 70 70 70 71 71 71 72 72 71 70 71 72 73 73 73 73 73 73 74 74 74 74 75 75 75 75 75 75 75 73 73 73 72 70 69 70 70 69 68 67 65
70 70 71 71 71 71 71 72 72 72 71 70 71 73 73 73 73 73 73 73 74 74 74 74 75 75 75 75 75 74 74 73 73 72 71 70 69 70 70 69 67 66
70 70 70 71 71 72 72 72 72 73 72 71 71 72 73 73 73 73 73 73 73 74 74 74 74 75 75 75 75 74 74 74 73 73 72 71 70 70 70 69 68 67
70 70 71 71 71 71 72 72 72 73 73 72 70 71 73 73 73 73 73 73 73 73 74 74 74 74 74 75 75 74 74 74 73 73 72 72 71 70 70 70 69 68
70 70 71 71 71 71 71 72 72 72 73 72 71 70 72 72 73 73 73 73 73 73 74 74 74 74 74 74 74 74 74 74 74 73 72 72 72 71 70 70 69 69
71 71 71 71 71 71 71 71 72 72 73 73 72 71 71 72 72 72 73 73 73 73 73 73 74 74 74 74 74 74 74 74 74 74 73 72 72 72 71 70 69 69
71 71 71 71 71 71 71 71 72 72 72 73 73 72 72 72 72 73 72 73 72 72 73 73 73 74 74 74 74 74 74 74 74 74 74 73 72 72 73 71 70 69
71 71 71 71 71 71 71 72 72 72 71 72 72 72 72 72 72 72 72 72 72 72 73 73 73 74 74 74 74 74 74 74 74 74 74 74 73 73 72 72 71 70
71 71 71 71 71 71 72 72 72 72 71 71 71 72 72 72 72 72 72 73 73 73 72 73 73 74 74 74 74 75 75 74 74 74 74 74 74 74 73 73 72 71
71 71 71 71 71 72 72 72 72 72 72 71 71 71 71 71 72 72 71 72 72 73 73 72 73 73 74 74 74 74 74 74 74 74 74 74 74 74 74 73 73 72
71 71 72 72 72 72 72 72 72 72 72 72 71 70 71 71 71 71 71 71 71 72 73 73 73 73 73 73 74 74 74 74 74 74 74 74 74 73 73 73 73 73
71 72 72 72 72 72 72 72 72 72 72 71 71 70 70 70 70 71 71 71 71 70 71 72 73 73 71 67 68 73 74 74 74 74 74 74 74 73 73 73 73 73
71 71 72 72 72 72 72 72 72 72 71 71 71 70 70 70 70 70 70 71 71 71 70 70 72 73 67 64 64 66 72 73 73 73 74 74 74 73 73 73 73 73
71 71 71 71 71 71 71 71 71 71 71 71 70 70 70 70 69 69 70 70 70 70 70 70 70 67 65 64 64 63 66 73 73 73 73 73 73 73 73 73 73 73
71 71 71 71 71 71 71 71 71 71 70 70 69 69 69 70 70 69 69 70 70 70 70 71 71 66 63 62 63 63 63 67 72 72 72 72 73 73 73 73 73 72
72 71 71 71 71 71 71 71 71 70 70 70 69 69 69 69 69 69 69 69 69 70 70 70 71 67 62 61 61 62 62 64 71 72 72 72 72 73 73 73 73 72
72 72 71 71 71 71 71 71 71 71 70 70 69 69 68 68 69 69 69 69 68 69 69 70 71 65 62 60 60 60 61 61 70 72 72 72 72 72 73 73 73 73
73 72 72 71 71 71 71 71 71 71 70 70 70 69 68 68 68 69 69 69 69 68 68 69 70 63 61 60 59 59 60 66 70 71 72 72 72 72 72 73 73 73
73 72 72 72 71 71 71 71 71 71 71 71 70 69 68 68 68 68 69 70 70 70 69 69 69 65 60 59 59 59 59 68 69 71 71 72 72 72 72 72 72 73
73 73 72 72 72 71 71 71 71 71 71 71 70 69 68 68 68 68 69 70 70 70 70 69 69 67 59 57 57 58 61 69 70 70 71 71 71 72 72 72 72 70
73 73 73 72 72 71 71 71 71 71 71 71 70 70 69 69 69 68 68 69 70 71 70 70 70 68 57 57 57 57 61 69 70 70 71 71 71 71 72 72 72 71
73 73 73 73 72 72 72 71 71 71 71 70 71 70 69 69 69 69 69 69 69 70 71 71 72 72 64 56 56 56 58 69 71 71 71 71 71 71 71 72 72 72

ECMWFNIL_sfc_dewp_075.txt.gz
Dewpoint
70 70 69 70 70 70 69 69 69 69 69 70 71 72 72 72 73 73 73 74 74 74 74 74 75 75 75 74 74 73 72 70 70 69 68 67 65 65 65 66 65 65
70 70 70 70 70 70 70 69 69 69 69 70 71 72 72 72 73 73 73 74 74 74 74 74 75 75 75 74 74 73 72 70 69 70 69 68 67 66 64 65 66 66
70 70 70 69 69 70 70 69 69 70 70 69 71 72 72 73 72 73 73 73 74 74 74 74 74 75 75 75 74 73 73 71 69 70 70 68 68 67 66 65 65 67
70 69 70 70 69 70 70 70 69 69 70 70 70 71 72 73 72 73 73 75 74 74 74 74 74 75 75 75 74 74 73 72 71 70 70 69 69 68 67 66 66 66
70 69 70 70 70 70 70 70 69 69 69 70 70 72 73 73 72 72 73 73 74 74 74 74 74 74 75 74 74 74 73 73 72 70 70 69 69 69 68 67 66 65
70 70 70 70 70 70 69 70 70 70 69 70 71 72 72 72 72 72 72 73 73 73 74 74 74 74 75 75 74 74 74 73 72 71 70 69 69 70 69 68 67 66
70 70 70 70 70 70 69 70 70 71 70 70 71 72 72 72 72 72 72 72 73 73 73 73 74 74 74 74 74 74 74 73 73 72 71 70 70 69 70 69 68 67
69 69 70 70 69 70 70 70 70 71 71 71 70 71 72 72 72 72 72 72 72 73 73 73 73 74 74 74 74 74 74 74 73 72 72 71 70 69 69 70 69 68
69 69 70 69 69 69 70 70 70 70 71 71 71 70 72 72 72 72 72 72 72 73 73 73 73 73 74 74 74 74 74 74 74 73 72 72 71 71 70 70 69 69
69 69 69 69 69 69 69 70 70 70 71 71 71 71 71 72 72 73 73 72 72 72 73 73 73 73 74 74 74 74 74 74 74 73 73 72 72 72 71 70 70 69
69 69 69 69 69 69 69 70 70 70 71 72 72 71 71 71 72 73 73 73 72 72 72 73 73 73 73 74 74 74 74 74 74 74 73 73 73 72 73 71 70 70
69 69 69 69 69 69 69 70 70 70 71 72 72 72 71 71 71 72 73 73 72 72 72 72 73 73 73 73 73 74 74 74 74 74 74 73 73 73 72 72 71 70
69 69 69 69 70 70 70 70 70 70 71 71 72 72 72 71 71 71 72 72 73 73 72 72 73 73 73 73 73 73 74 73 73 74 74 74 73 73 73 72 72 72
69 70 70 70 70 70 70 70 70 70 71 71 71 72 72 72 71 71 71 72 72 72 72 72 72 73 73 73 73 73 73 73 73 73 73 73 73 74 73 73 73 72
69 70 70 70 70 70 70 70 71 71 71 71 71 71 72 72 72 72 71 71 71 72 72 72 72 72 73 73 73 73 73 73 73 73 73 73 73 73 74 74 73 73
70 70 70 70 70 70 70 71 71 71 71 71 71 71 71 71 72 72 72 71 71 71 72 72 72 72 70 66 68 73 73 73 73 73 73 73 73 73 73 73 73 73
70 70 70 70 71 71 71 71 71 71 71 71 71 71 71 71 71 71 71 72 71 71 71 72 72 72 66 64 64 65 71 73 73 73 74 73 73 73 73 73 73 73
70 70 70 70 71 71 71 71 71 71 71 71 71 71 71 71 71 71 71 71 71 71 71 71 71 68 65 64 63 63 65 73 73 73 73 73 73 73 73 73 73 73
70 70 70 70 71 71 71 71 71 71 71 71 71 71 71 71 71 70 70 71 71 71 71 71 71 66 64 63 63 62 62 66 72 73 73 73 73 73 73 73 73 73
70 70 70 71 71 71 71 71 71 71 71 71 71 71 71 71 71 70 70 70 70 70 70 71 71 66 62 61 61 61 62 63 71 72 72 72 73 73 73 73 73 73
70 70 70 71 71 71 71 71 71 71 71 71 71 71 71 71 71 70 70 70 70 70 70 70 71 65 61 59 59 59 60 61 69 71 72 72 72 72 72 73 73 73
70 70 70 71 71 71 71 71 71 71 71 71 71 71 71 71 70 70 70 70 70 70 69 69 70 63 61 59 58 58 59 65 69 70 71 71 72 72 72 72 72 72
71 71 71 71 71 71 71 71 71 71 71 71 71 70 70 70 70 70 70 70 70 70 69 69 69 65 60 58 57 57 59 67 68 70 70 71 71 72 72 72 72 72
71 71 71 71 71 71 71 71 71 71 71 71 70 70 70 70 69 69 69 69 69 69 69 69 69 66 59 56 57 56 61 67 68 69 69 70 71 71 72 72 72 70
72 72 71 71 71 71 71 71 71 71 71 71 71 70 70 70 70 69 69 69 69 69 68 69 69 66 59 56 56 55 61 67 69 69 69 70 70 70 71 71 72 71
73 73 72 72 71 71 71 71 71 71 71 71 71 70 70 70 70 69 69 68 68 69 69 69 69 69 67 56 55 55 57 67 69 69 69 69 70 70 70 71 71 71

ECMWFNIL_sfc_dewp_078.txt.gz
Dewpoint
71 71 70 70 70 70 70 70 70 70 70 72 72 73 73 74 74 74 74 75 75 75 75 75 76 76 76 76 76 75 74 73 73 71 70 69 68 67 66 67 67 68
70 71 71 71 71 71 71 70 70 70 70 71 72 73 73 74 74 74 74 74 75 75 75 75 75 76 76 75 75 75 74 73 72 71 71 70 69 67 66 67 68 68
70 70 70 70 70 70 70 70 71 70 70 70 71 73 73 74 74 74 74 74 74 74 75 75 75 75 76 76 75 75 74 73 73 71 71 71 70 69 67 66 67 68
71 70 70 70 70 70 70 70 70 71 71 70 70 71 72 73 73 74 74 75 74 74 75 75 75 75 75 75 75 75 75 74 73 72 72 71 71 70 69 68 68 68
71 70 70 70 70 71 71 70 70 70 70 70 70 71 73 73 73 73 73 74 74 74 74 75 75 75 75 75 75 75 75 74 74 73 72 72 71 71 70 70 69 68
71 71 71 71 71 71 70 70 70 70 70 70 70 71 71 72 73 73 73 73 73 74 74 74 75 75 75 75 75 75 75 74 74 73 72 72 71 71 70 70 70 69
70 71 70 70 70 71 70 71 71 71 70 70 71 71 71 72 72 72 73 73 73 73 74 74 74 75 75 75 75 75 75 75 74 73 73 72 72 71 71 71 71 70
70 70 70 70 70 70 70 70 71 71 71 71 71 71 72 72 72 72 73 73 73 73 74 74 74 75 74 75 75 75 75 75 74 74 73 73 72 72 71 71 71 71
70 70 70 70 70 70 70 70 70 71 71 70 70 70 72 72 72 72 73 73 73 73 73 74 74 74 75 75 75 75 75 74 74 74 74 73 72 72 72 72 71 71
70 70 70 70 69 69 69 69 70 70 71 71 70 70 71 72 72 72 73 73 73 73 73 73 74 74 74 74 75 75 75 75 75 74 74 74 73 73 72 72 71 71
70 70 70 70 69 69 69 69 69 69 71 71 71 70 70 72 73 73 73 73 72 72 73 73 73 73 74 74 74 75 75 74 74 75 74 74 74 74 73 73 72 71
70 70 70 69 69 69 69 69 69 70 70 71 71 71 71 71 71 72 73 73 73 73 73 73 73 73 74 74 74 74 74 74 74 74 74 74 74 74 74 74 73 73
70 70 70 69 70 70 70 70 69 70 70 70 71 71 71 71 71 71 72 72 73 73 73 73 73 73 74 74 74 74 74 74 74 74 74 74 74 74 74 74 73 73
70 70 70 70 70 70 70 70 70 70 70 71 71 71 71 71 71 71 71 72 72 73 73 73 73 73 73 74 74 74 74 74 74 74 74 74 74 74 74 74 74 73
70 70 70 70 70 70 70 70 70 70 71 71 71 71 71 71 71 71 71 72 72 73 73 73 73 73 73 73 73 74 74 74 74 74 74 74 74 74 74 74 74 73
70 70 70 70 70 70 70 70 70 70 70 70 71 71 72 72 72 72 71 71 72 72 73 73 73 73 71 66 68 73 74 74 74 74 74 74 74 74 73 74 74 74
70 70 70 70 70 70 70 70 70 70 71 71 71 71 71 72 72 72 72 72 71 71 72 72 73 72 67 64 64 65 72 74 73 74 74 74 74 74 74 73 74 74
70 70 70 70 70 70 71 71 71 71 71 71 71 71 71 72 71 72 72 72 72 71 71 72 72 68 64 63 63 63 65 73 73 73 74 74 73 74 74 74 74 74
70 70 70 70 70 71 71 71 71 71 71 71 70 71 71 71 72 71 72 72 72 72 71 72 72 66 63 62 62 62 62 67 73 73 73 73 74 74 74 74 74 74
70 70 70 70 70 71 71 71 71 71 70 71 71 71 71 71 71 71 71 72 72 72 72 72 72 67 63 61 61 61 61 63 72 72 73 73 73 74 74 74 74 74
70 70 70 70 70 71 71 71 71 71 71 71 71 71 71 71 71 71 71 72 71 71 71 71 72 65 62 60 59 59 60 61 70 72 72 73 73 73 74 74 74 74
70 70 70 70 70 71 71 71 71 71 71 71 71 71 71 72 72 72 71 71 71 71 71 71 71 64 61 60 58 58 59 66 70 71 72 72 73 73 73 74 74 74
70 70 70 70 70 70 70 71 71 71 71 72 71 71 71 71 71 71 72 71 71 71 71 71 71 66 60 58 57 57 59 68 70 71 72 72 72 73 73 73 73 74
70 70 70 70 71 70 70 71 71 71 71 72 71 71 71 71 71 71 72 72 71 71 71 71 71 67 59 57 57 56 61 69 70 71 71 71 72 72 73 73 73 71
70 70 70 70 70 70 70 71 71 71 71 72 71 71 71 72 71 71 71 72 71 71 69 70 71 68 59 57 56 55 61 69 70 70 70 71 71 71 72 72 73 72
71 71 71 70 71 71 71 71 71 71 71 71 71 71 71 71 71 71 71 71 71 71 70 70 70 71 68 56 55 55 57 69 70 70 70 70 71 71 71 72 72 72

ECMWFNIL_sfc_dewp_081.txt.gz
Dewpoint
73 73 73 73 73 73 73 73 73 73 74 73 73 74 75 77 77 77 77 77 77 77 77 78 78 77 77 77 78 77 77 77 76 76 77 76 75 74 72 72 72 71
73 74 73 73 73 74 74 74 74 74 75 75 75 75 76 77 77 77 77 77 77 77 78 77 78 78 78 77 77 76 76 77 77 76 76 76 76 75 73 73 72 72
73 73 73 73 72 72 71 73 74 74 73 73 75 76 76 76 76 77 77 77 77 76 77 77 78 78 77 77 78 77 76 77 76 75 76 76 75 75 75 72 72 72
74 73 72 72 72 72 72 73 73 74 73 73 73 73 74 74 76 76 77 77 77 77 77 77 77 77 77 77 78 76 76 77 76 77 77 76 76 75 75 74 72 71
73 73 73 72 72 73 73 73 72 72 72 73 72 74 75 76 76 75 76 77 77 77 77 77 77 76 77 77 78 77 76 76 77 78 77 76 77 76 74 74 74 72
74 74 74 73 73 73 72 72 72 71 72 71 73 73 73 74 75 74 75 75 75 75 75 75 76 76 76 77 77 77 76 75 75 78 77 76 75 75 74 74 75 74
73 74 73 73 73 73 73 73 73 73 72 72 73 72 73 73 74 74 75 74 74 75 74 75 77 76 77 77 77 76 76 76 77 77 77 76 76 76 75 75 75 75
73 73 73 73 72 72 73 72 72 73 73 73 73 73 73 72 73 73 74 74 73 75 76 76 77 77 76 76 76 76 75 74 75 75 76 76 77 76 76 75 76 75
73 73 73 73 72 72 71 71 72 73 73 73 72 71 73 73 73 73 75 75 75 75 76 76 77 77 76 76 76 76 76 75 75 76 76 75 76 76 76 76 75 75
73 73 72 71 71 71 70 70 70 71 73 72 72 71 72 73 73 73 75 75 75 75 75 76 76 76 76 76 76 76 76 76 76 76 76 76 76 76 75 76 75 75
72 72 71 71 70 70 70 70 70 70 72 71 71 70 71 73 74 74 75 75 73 74 75 75 75 75 76 75 75 76 76 76 76 76 76 75 75 76 76 76 76 75
72 72 72 71 71 70 70 70 70 70 71 71 71 71 71 71 73 73 74 74 74 74 75 75 76 76 76 76 74 75 76 75 76 76 75 76 75 75 75 76 76 76
72 72 72 71 71 71 71 70 70 70 70 70 71 71 71 70 71 72 73 74 75 74 74 75 75 75 76 76 76 75 76 76 74 75 76 75 75 75 75 75 75 75
72 73 72 72 72 73 72 71 71 71 71 71 72 71 71 70 70 71 72 73 73 74 74 74 75 75 76 76 76 75 75 76 75 75 74 75 75 75 75 74 75 75
73 73 73 73 73 73 73 72 72 72 72 72 72 72 71 71 71 70 72 73 73 74 74 74 74 74 75 75 75 76 75 75 75 75 75 75 75 74 74 75 74 74
74 74 74 74 73 74 74 73 72 72 71 72 72 72 72 73 72 72 71 72 72 74 74 74 74 74 72 68 69 75 75 74 75 75 75 75 75 75 74 74 74 74
74 74 74 74 74 73 73 73 73 72 72 73 73 73 73 73 73 72 72 71 72 72 73 73 74 73 67 65 65 66 73 75 75 75 76 75 74 75 75 74 73 74
73 74 74 74 74 74 74 74 73 73 73 73 73 73 73 73 73 73 73 72 71 71 71 73 73 69 65 64 64 63 66 74 74 74 74 74 74 74 74 74 74 73
74 74 74 73 74 74 74 74 74 73 73 73 72 73 73 73 74 73 73 73 72 73 71 71 72 67 64 63 63 62 63 68 73 74 73 74 74 74 74 75 75 75
74 73 73 73 74 74 74 74 73 73 72 71 71 73 73 73 72 73 73 74 73 73 73 72 73 68 63 62 61 61 62 64 73 73 73 73 74 74 74 74 75 75
73 73 73 73 74 74 74 73 73 73 72 71 71 72 73 73 73 73 73 74 73 72 73 73 73 66 61 60 60 60 61 62 73 73 73 73 74 74 75 75 75 75
72 73 73 73 73 73 73 73 73 74 73 73 72 71 72 72 73 72 72 73 73 72 72 72 72 64 61 60 59 59 60 69 73 74 73 73 73 74 75 75 75 75
72 72 73 73 73 73 73 73 73 73 73 73 72 72 71 71 72 72 73 72 72 73 72 73 72 67 60 59 58 58 60 71 73 74 74 74 74 74 75 75 75 75
72 72 73 73 73 72 72 72 72 73 73 73 72 71 70 71 72 72 72 73 72 72 72 72 72 67 58 57 57 57 63 72 73 74 74 74 74 75 75 75 75 73
72 73 72 72 72 72 72 72 72 73 73 73 72 72 72 73 72 72 72 73 72 71 70 71 72 68 57 57 56 56 63 73 74 73 74 74 74 74 75 75 76 74
73 73 73 72 72 72 72 73 73 72 72 72 72 72 72 72 72 72 72 72 72 72 71 71 72 72 69 56 56 55 57 73 74 73 72 73 74 74 74 75 75 75

ECMWFNIL_sfc_dewp_084.txt.gz
Dewpoint
74 75 74 74 73 73 72 72 71 71 72 69 70 72 71 74 75 74 74 75 76 76 76 77 77 77 75 76 77 76 74 75 75 74 75 75 74 73 71 71 72 71
75 75 75 74 74 74 73 73 73 72 73 73 71 71 74 74 74 74 75 75 76 76 76 76 77 77 76 75 77 76 75 75 75 72 75 76 75 74 72 73 72 73
75 74 74 73 72 73 70 73 74 73 72 72 72 73 72 74 75 76 75 75 75 74 76 76 77 77 76 76 76 76 74 76 75 72 74 76 74 75 74 71 72 72
74 74 73 73 72 72 73 72 73 74 72 72 72 71 72 72 75 74 75 76 75 75 74 75 75 74 75 75 76 75 75 76 74 74 74 75 75 74 74 74 73 72
74 74 74 74 73 74 74 73 72 73 72 72 72 73 74 75 75 73 75 75 76 74 74 75 75 74 75 76 76 75 74 74 75 76 75 75 76 75 73 74 75 73
74 74 75 75 75 74 73 73 73 72 73 70 72 72 73 74 74 73 73 73 72 72 71 72 73 73 73 75 75 75 74 72 72 76 76 75 74 73 72 74 75 75
74 75 74 74 74 74 74 74 74 74 73 71 73 73 73 73 74 74 74 73 72 72 71 72 74 74 74 75 76 75 75 75 75 75 76 75 75 74 73 75 75 76
75 74 74 74 74 74 74 73 74 74 74 74 72 74 73 72 74 73 73 73 73 73 74 73 74 76 73 73 75 75 75 73 74 76 76 75 75 76 75 74 76 76
74 73 74 75 74 73 72 72 73 74 73 73 72 72 74 73 73 73 74 75 74 74 75 75 75 75 75 74 74 75 75 73 72 74 75 75 75 76 75 75 75 76
75 75 74 73 72 72 71 71 71 72 73 73 72 71 72 74 73 73 74 76 75 75 75 76 76 75 75 74 75 75 75 75 74 74 75 75 75 75 74 75 74 75
74 73 73 73 71 70 70 70 70 70 72 73 72 71 71 73 74 74 75 76 75 75 75 76 75 76 76 74 74 75 75 74 74 75 75 75 75 75 75 75 75 74
74 74 73 72 71 70 69 69 69 70 71 72 72 71 71 71 73 73 74 75 76 75 76 76 77 76 76 75 73 74 75 74 74 74 74 75 75 74 75 75 74 75
74 74 73 71 72 71 70 70 69 69 69 71 71 71 70 69 71 74 74 74 76 75 75 76 76 75 76 76 75 74 74 75 72 72 74 74 75 73 72 73 74 74
74 74 73 73 72 74 72 71 70 70 71 71 72 72 70 69 69 71 73 73 74 75 75 75 76 76 76 77 76 74 73 74 75 73 72 73 74 74 73 71 72 73
75 75 74 74 73 74 73 73 72 72 72 72 73 72 70 69 70 70 72 73 74 75 75 74 74 75 75 76 76 76 74 73 74 74 73 72 73 73 72 72 71 70
75 76 75 75 74 74 75 73 72 72 71 72 72 72 72 72 72 71 71 72 73 74 75 74 74 74 74 69 71 75 75 73 73 75 75 73 73 73 71 71 71 70
76 76 76 75 75 75 75 75 73 73 73 74 74 74 74 74 73 72 71 71 72 73 74 74 74 73 69 65 66 68 74 75 74 74 75 75 73 74 74 71 70 70
75 76 76 76 76 76 76 75 74 74 74 75 74 74 75 73 73 73 73 71 71 72 72 73 74 70 64 64 65 65 69 74 74 74 73 74 73 72 72 72 71 69
76 76 76 76 76 76 76 76 75 75 74 74 73 74 74 75 75 74 74 73 72 73 72 72 73 68 63 63 64 64 65 69 72 73 73 73 73 73 73 73 73 73
76 76 76 76 76 76 76 76 75 75 74 73 73 75 75 75 74 75 75 75 74 74 74 73 74 68 63 62 62 63 63 66 73 71 72 72 74 73 73 74 74 74
76 76 76 76 76 76 76 76 76 75 74 73 72 73 74 75 75 75 75 75 74 73 73 73 73 64 61 60 60 61 62 63 73 71 71 72 73 74 75 74 75 75
75 76 76 76 76 76 75 75 76 76 76 75 73 72 74 74 75 74 74 74 74 74 72 73 72 62 60 60 59 60 61 71 74 73 73 73 73 74 75 76 76 76
74 75 75 75 75 75 75 75 75 76 75 75 74 73 72 73 74 73 74 74 74 74 74 74 73 67 59 58 58 58 61 73 74 74 74 74 74 75 75 75 75 75
75 75 75 75 75 75 75 74 74 75 75 75 74 72 70 72 73 74 74 74 73 74 73 73 73 66 57 57 57 57 65 74 74 74 75 75 75 75 75 75 75 75
74 75 75 74 75 74 74 74 74 75 75 75 73 73 72 73 73 73 73 74 72 72 72 72 73 67 57 56 56 56 66 74 74 74 74 74 74 74 75 75 76 76
74 75 75 74 74 75 74 75 75 74 74 73 73 73 72 71 72 73 73 73 72 72 71 72 72 74 67 56 56 55 59 74 74 73 73 74 74 74 74 76 76 77

ECMWFNIL_sfc_dewp_087.txt.gz
Dewpoint
74 74 73 72 71 70 71 72 71 70 69 65 66 71 70 72 73 72 72 73 74 74 74 75 76 76 74 75 76 74 73 73 73 73 74 74 73 72 70 70 71 69
75 75 74 73 73 73 72 72 72 71 70 69 68 69 72 72 72 72 73 73 74 74 75 74 75 76 76 74 76 75 74 74 74 71 74 75 74 73 71 72 70 71
75 75 74 73 71 72 70 71 72 71 69 68 67 69 70 72 72 74 74 73 73 73 74 75 75 76 75 75 75 75 73 75 74 71 73 74 73 74 73 69 71 71
75 75 74 73 72 72 72 71 71 72 69 69 68 67 69 69 72 73 74 74 74 74 73 74 74 73 75 75 76 74 74 75 74 74 73 74 74 73 73 73 71 70
74 74 74 74 72 74 73 71 69 70 69 69 69 70 71 72 73 72 74 74 75 74 74 74 74 73 74 75 76 75 73 73 74 75 74 74 75 74 72 73 73 72
74 75 75 75 74 73 71 71 70 69 70 67 70 69 69 71 71 71 72 73 72 71 70 72 73 73 73 74 75 75 73 70 71 75 74 74 73 73 71 72 74 74
74 75 75 74 73 73 73 72 71 71 70 68 71 70 70 70 71 72 72 72 71 72 70 71 74 73 73 74 75 75 75 74 73 74 75 74 74 73 71 72 74 74
74 74 74 74 74 73 73 72 72 71 72 72 69 71 71 70 73 71 71 71 70 71 72 70 73 74 71 73 74 75 75 72 73 74 75 75 75 75 74 72 74 75
74 74 74 74 73 72 71 71 72 72 72 72 69 69 71 71 72 71 73 72 72 72 72 72 73 72 73 73 73 74 75 73 70 73 74 74 74 75 74 74 73 74
74 74 72 72 72 71 70 70 69 71 71 71 70 68 70 72 71 72 72 74 72 73 73 73 73 72 73 73 73 73 74 75 74 73 73 73 73 73 73 73 73 74
73 72 72 72 71 70 70 69 68 69 71 71 70 68 68 71 72 73 74 74 72 72 73 74 73 73 73 72 72 73 74 74 74 74 73 74 74 74 73 73 73 73
74 73 72 71 70 69 69 68 67 68 70 70 70 69 68 69 72 72 72 74 75 74 74 75 75 75 75 74 71 72 73 73 73 73 72 73 73 73 74 73 73 73
73 72 72 70 70 69 69 68 67 66 67 69 70 69 68 67 70 71 72 74 75 74 73 74 75 75 76 76 74 72 73 73 71 71 72 72 73 72 72 71 72 72
74 73 71 72 71 73 70 69 68 66 67 69 71 70 68 67 67 70 71 72 74 74 74 75 76 76 76 77 76 73 72 73 73 71 70 71 71 72 72 69 69 70
75 74 73 73 72 73 71 70 69 68 68 69 71 70 68 67 66 68 71 71 73 75 74 74 74 75 76 76 77 75 73 71 73 73 71 70 71 70 70 70 67 66
76 76 75 75 73 73 73 71 70 69 66 67 70 70 71 70 69 68 69 71 72 74 74 73 73 75 75 71 72 76 75 71 72 74 74 71 71 71 69 68 67 65
76 76 76 76 75 73 73 73 72 70 70 72 72 72 73 73 70 68 67 69 71 72 73 73 73 73 70 67 67 70 75 74 72 74 75 73 70 72 71 68 67 67
76 76 76 76 75 75 75 74 71 72 73 73 71 72 74 71 69 69 71 69 69 71 71 72 73 71 65 65 66 66 71 75 72 72 72 73 72 70 70 70 69 66
77 77 76 76 76 76 76 75 75 73 72 71 70 72 72 74 74 71 71 70 70 72 71 71 72 68 64 64 65 65 65 71 72 72 70 71 72 72 70 71 71 70
77 77 77 77 76 76 76 75 74 74 72 71 71 73 74 73 72 73 72 74 72 72 73 72 74 67 63 63 63 63 64 67 72 70 71 70 71 71 70 70 70 70
77 77 77 77 77 76 77 76 75 75 73 72 71 72 74 75 73 73 73 73 72 70 71 71 72 64 61 61 61 62 63 65 72 69 69 71 71 71 73 71 73 71
76 77 77 77 77 76 77 76 76 76 75 74 72 71 73 74 74 73 73 73 73 72 70 71 72 61 60 61 60 61 62 72 75 73 71 70 71 73 73 74 74 73
76 77 77 77 77 76 77 76 76 76 76 75 73 71 71 73 74 73 74 73 73 73 72 73 72 65 59 59 59 60 63 74 75 74 74 73 72 72 73 73 74 75
76 76 77 76 77 76 76 76 75 76 75 75 73 71 69 71 73 74 73 73 72 73 72 72 71 69 56 58 58 58 66 74 75 74 75 75 74 74 73 74 75 77
76 76 76 76 76 76 75 76 76 76 76 76 73 72 71 71 72 73 72 73 72 72 74 72 71 68 56 57 57 57 66 76 75 74 74 75 74 74 75 75 76 76
76 77 77 76 76 76 76 76 76 75 75 74 74 73 71 69 69 71 72 72 71 71 71 72 72 72 65 56 56 56 60 76 75 74 74 74 75 75 74 75 75 76

ECMWFNIL_sfc_dewp_090.txt.gz
Dewpoint
73 73 73 72 72 71 73 74 72 72 73 70 72 73 74 75 75 75 74 76 77 77 77 78 78 78 77 79 79 78 80 76 76 77 78 77 77 75 71 72 76 77
73 74 74 73 73 73 74 74 74 74 74 73 72 74 75 76 74 75 74 76 77 76 77 76 78 78 78 77 79 78 78 77 77 73 76 77 77 76 72 73 72 75
73 74 73 72 70 72 68 72 74 74 73 71 71 74 74 74 74 76 76 76 75 74 77 77 77 78 77 78 79 78 76 78 76 73 77 77 77 78 77 71 72 73
74 74 72 70 70 70 69 71 73 74 72 72 69 68 72 70 74 74 76 76 76 76 75 75 76 75 77 77 78 77 77 78 77 78 78 77 77 76 75 76 74 73
74 74 73 72 71 72 71 71 69 71 71 72 69 70 73 76 74 74 75 76 77 75 76 76 76 76 77 77 78 77 76 76 77 78 78 78 78 77 74 76 77 76
75 74 75 73 73 73 71 70 70 70 71 69 70 68 69 75 73 73 74 73 73 73 72 73 74 74 75 77 77 77 76 74 75 77 77 77 75 75 73 76 76 76
73 74 74 73 72 73 72 71 71 71 70 69 71 69 69 70 72 73 74 74 72 73 72 74 75 75 75 76 77 77 78 77 77 76 76 76 77 77 74 76 77 77
74 73 73 73 71 72 72 72 71 72 72 71 70 71 70 68 72 71 73 73 72 74 74 74 76 77 74 75 76 76 76 73 75 78 76 77 77 76 76 75 77 77
74 74 73 73 72 71 70 71 70 71 72 71 68 68 71 70 71 70 73 74 74 74 75 74 76 75 74 75 75 76 76 74 73 75 76 76 76 76 75 76 76 76
74 74 72 72 71 70 70 70 69 69 70 70 68 68 70 72 72 72 74 75 74 75 75 74 75 74 73 74 75 75 75 76 76 75 74 75 75 75 75 75 74 75
72 72 72 72 71 70 69 69 69 68 68 68 68 67 69 70 73 73 74 75 72 73 74 74 73 74 74 72 74 74 75 75 75 76 75 75 75 75 76 76 75 74
72 72 72 71 70 70 69 69 68 68 67 68 68 67 69 68 71 72 73 74 73 73 74 74 74 74 74 74 72 73 74 74 75 75 74 75 75 75 75 75 74 75
73 72 72 71 71 70 69 69 67 67 68 67 69 68 67 68 69 71 73 74 74 73 73 74 74 73 75 75 74 74 74 74 72 74 74 73 74 73 73 74 74 74
73 73 72 73 72 73 72 70 68 68 70 70 70 69 66 67 68 69 71 72 73 73 73 74 75 74 75 76 75 74 73 74 74 73 73 73 72 73 72 72 73 73
74 73 73 74 73 73 72 71 70 70 71 71 72 70 67 65 68 69 71 72 73 74 73 73 74 74 74 75 75 75 74 73 74 73 73 73 72 71 71 72 71 71
76 75 74 75 74 74 73 72 71 70 68 71 71 70 70 69 68 71 70 71 73 75 75 74 74 74 74 70 72 75 74 71 73 74 73 72 73 72 71 71 70 69
76 75 75 75 75 74 73 72 72 70 70 72 72 72 71 72 71 70 70 70 71 73 74 74 73 74 70 67 67 70 74 74 73 74 74 74 72 73 72 70 70 70
76 76 76 75 75 74 74 73 72 72 71 72 72 72 73 72 70 71 71 70 70 72 73 74 74 71 66 65 66 67 71 75 73 73 74 74 72 71 71 71 71 69
76 76 76 75 75 75 75 74 73 73 72 71 71 72 73 73 72 71 71 71 71 72 72 73 73 68 64 64 65 66 66 73 73 72 72 73 73 72 71 72 72 71
77 76 76 75 75 76 75 74 73 73 71 70 70 72 73 73 72 72 72 73 72 73 73 73 74 68 63 63 64 64 65 69 75 73 72 72 74 73 72 72 72 72
77 77 76 76 76 75 75 74 73 74 72 70 68 70 73 74 72 72 72 72 71 72 73 72 73 65 61 61 62 62 63 66 75 73 71 72 73 74 75 74 74 72
77 77 77 76 76 75 75 75 74 74 74 72 70 68 71 73 74 72 72 71 71 70 69 72 71 62 61 60 61 61 63 72 75 74 72 72 73 73 74 75 75 74
76 77 77 77 76 75 75 74 74 74 74 73 72 69 70 72 73 71 73 71 70 71 71 72 75 63 59 59 60 60 63 73 75 75 74 73 73 76 76 75 74 75
77 77 77 77 76 75 74 74 74 74 73 73 72 70 68 69 72 72 73 72 70 71 71 72 73 66 57 58 59 58 66 74 75 75 75 74 74 74 75 75 75 77
77 77 77 76 76 75 73 74 74 74 73 73 71 70 70 72 73 73 72 73 71 71 72 73 71 69 55 58 57 57 66 75 75 75 75 75 75 74 75 75 76 77
77 78 78 76 77 76 76 76 75 73 72 72 71 70 70 71 72 73 74 73 71 71 71 72 71 75 62 57 56 57 61 75 76 75 74 75 75 75 74 75 75 76

ECMWFNIL_sfc_dewp_093.txt.gz
Dewpoint
70 70 68 68 70 70 67 68 67 69 72 72 73 73 73 73 73 73 75 75 74 75 75 75 75 74 74 74 75 75 75 75 74 75 74 75 73 74 72 71 71 72
70 70 70 68 69 72 70 69 67 67 70 72 72 73 73 73 73 73 75 75 75 74 76 75 75 75 75 75 75 75 75 74 74 75 74 75 73 73 73 71 70 71
70 70 69 68 68 70 71 69 68 67 69 70 72 73 73 73 72 73 74 74 74 74 75 76 75 76 76 76 75 74 75 74 74 74 75 75 74 74 74 72 70 72
69 69 69 68 68 68 71 71 70 69 69 70 70 72 72 73 71 74 73 76 74 74 75 75 75 75 75 76 75 75 75 75 74 74 74 75 74 74 74 74 72 70
69 69 69 68 68 68 69 71 71 70 70 70 69 72 72 72 72 73 73 75 74 74 75 75 75 75 75 76 76 74 75 74 75 75 75 74 75 74 74 74 74 72
70 69 69 68 68 68 67 69 71 71 71 70 68 69 71 71 72 71 73 74 74 74 74 74 75 74 75 75 76 75 74 75 74 75 75 75 75 74 74 74 73 73
69 69 69 69 68 68 67 67 70 72 71 70 69 67 70 71 72 71 73 73 74 74 73 74 74 74 75 74 75 75 75 74 74 74 74 74 75 74 73 73 74 72
69 69 70 69 68 68 68 67 68 70 71 71 69 67 67 72 71 71 72 72 73 73 73 73 74 74 74 74 75 75 74 75 75 74 73 73 74 74 74 74 75 73
69 69 70 69 68 68 68 67 67 68 70 70 70 67 67 70 71 71 72 72 72 73 73 73 74 73 74 74 74 75 74 74 74 75 74 73 73 73 73 74 74 74
70 70 70 69 68 68 68 68 67 68 70 70 69 68 67 67 71 71 72 72 72 72 72 73 73 73 73 74 74 74 74 74 73 74 74 74 74 74 74 73 73 74
70 70 70 70 69 68 68 68 68 68 69 69 69 68 67 67 71 71 72 72 72 72 72 73 73 73 73 73 74 74 74 74 74 73 74 74 74 74 77 74 74 73
71 70 70 69 69 69 68 68 68 68 68 69 69 68 67 67 69 70 71 72 72 72 72 72 73 73 73 73 73 74 74 74 74 74 74 74 74 74 75 75 74 74
71 71 70 70 70 69 69 69 68 69 68 69 69 67 67 67 68 69 70 71 72 72 73 72 72 73 73 72 73 73 73 74 74 74 74 74 73 74 74 74 74 74
72 71 71 70 70 70 70 69 69 69 69 69 69 67 67 68 68 69 70 71 72 72 72 72 72 72 73 72 72 72 73 73 73 73 73 73 73 73 73 73 74 74
72 72 71 71 71 71 70 70 69 69 69 68 68 67 67 68 68 69 70 71 71 72 71 72 72 72 72 72 72 72 72 73 73 73 73 73 72 72 73 73 73 73
72 72 72 72 71 71 70 70 69 69 69 68 68 67 67 68 68 69 70 70 71 71 71 72 72 72 71 68 70 72 72 72 73 72 73 73 73 72 72 72 72 72
72 72 72 72 71 71 71 70 69 69 69 69 68 68 67 68 69 69 69 70 71 71 71 71 72 72 68 65 66 68 72 72 72 72 72 72 72 72 71 71 71 71
73 72 72 72 72 71 71 71 70 69 69 69 69 68 69 68 68 69 69 70 70 71 71 71 71 70 65 64 65 65 69 73 72 72 72 72 72 72 72 71 71 71
73 72 72 72 72 72 71 71 71 69 69 70 69 69 69 69 68 69 69 70 70 71 71 71 71 68 64 63 64 64 65 70 72 72 72 72 71 71 71 71 71 71
73 73 72 72 72 72 72 71 71 70 69 69 70 70 70 69 68 68 70 70 70 71 72 72 72 69 63 62 63 63 64 67 72 71 71 72 72 72 71 71 71 71
73 73 73 72 72 72 72 71 71 71 70 69 69 70 70 70 69 68 70 71 70 70 71 72 73 67 62 61 61 61 63 65 72 72 71 71 72 73 72 72 71 71
73 73 73 73 72 72 72 72 71 71 70 69 69 70 70 70 70 69 69 70 70 70 70 71 73 65 61 60 60 61 62 69 72 73 72 72 72 73 73 73 72 72
73 73 73 73 73 72 72 72 71 71 71 70 69 69 70 70 70 69 69 69 70 71 70 71 72 66 60 59 59 60 62 71 72 73 73 73 72 72 73 73 73 73
73 73 73 73 73 72 72 72 71 71 70 71 69 68 69 70 70 70 69 69 68 70 71 70 70 67 59 58 58 59 64 71 73 73 73 73 72 72 73 74 75 77
74 74 73 73 73 73 72 72 72 71 70 71 70 68 68 70 71 70 69 69 69 68 71 70 70 68 57 58 57 58 64 72 73 73 73 73 73 72 72 72 72 76
74 74 74 73 73 73 73 72 72 71 70 70 70 69 68 69 70 70 70 70 70 69 69 69 69 72 64 57 57 57 60 72 73 73 73 73 73 72 72 71 71 72

ECMWFNIL_sfc_dewp_096.txt.gz
Dewpoint
68 67 69 66 63 63 64 67 68 69 70 71 71 71 72 74 74 75 74 74 74 74 73 73 74 74 74 75 75 75 75 74 74 74 73 73 71 71 70 70 69 68
68 68 69 68 65 65 65 66 67 71 70 71 72 72 72 74 74 75 75 74 74 74 74 73 73 73 74 74 75 75 74 74 73 75 73 73 72 72 72 71 70 70
68 68 67 68 66 65 64 65 66 70 71 71 72 72 73 74 74 74 75 74 74 74 74 73 73 73 73 74 74 74 74 74 73 74 74 73 73 72 72 73 72 70
68 68 67 67 67 66 65 65 65 68 71 72 72 73 73 73 73 73 74 76 74 74 74 74 73 73 73 74 74 74 74 74 74 74 74 74 74 73 72 73 73 71
68 68 68 67 67 68 68 65 64 64 69 71 72 73 73 73 73 73 73 75 74 73 74 74 73 74 74 74 73 73 74 74 74 74 73 73 74 74 73 74 73 72
69 69 69 68 67 68 69 67 65 64 65 69 71 72 72 72 72 72 72 74 74 73 73 74 74 74 74 74 74 73 73 73 74 74 73 73 73 74 73 73 73 73
69 69 68 68 67 67 69 69 67 67 64 65 70 71 71 72 72 71 72 73 73 73 73 73 74 73 74 74 74 73 73 74 73 74 74 73 73 73 73 73 73 73
69 69 69 68 67 66 67 69 69 68 67 66 67 69 71 71 71 71 72 72 73 73 73 73 74 73 74 73 74 74 73 74 74 73 73 73 74 73 73 73 73 73
69 69 69 68 67 66 66 66 69 69 69 68 67 67 70 70 70 71 71 72 73 73 73 73 74 73 74 73 74 74 73 73 74 73 73 72 73 73 73 73 73 73
69 69 68 68 67 66 66 65 66 69 70 69 68 67 67 70 70 70 71 71 72 73 73 73 73 74 74 74 73 74 74 73 74 73 73 72 72 72 73 73 73 73
69 68 68 68 67 66 66 65 65 66 69 70 69 68 67 68 70 71 71 71 71 72 73 73 73 73 73 73 73 74 74 73 73 74 74 73 72 72 74 72 72 72
69 68 68 68 67 67 66 65 65 65 66 69 70 69 68 67 68 70 71 71 71 71 73 73 73 73 73 73 73 73 74 73 73 73 74 74 73 73 73 73 72 72
69 69 68 68 68 67 67 66 65 65 65 66 69 69 69 67 66 69 71 71 71 71 71 72 73 73 73 73 73 73 73 73 73 73 73 73 74 73 73 73 73 72
70 69 69 68 68 68 67 66 66 66 65 66 68 68 68 68 66 67 69 71 71 71 71 72 72 72 73 73 73 73 73 73 73 73 73 73 73 73 73 73 74 74
71 70 70 69 69 69 68 67 67 66 66 66 67 68 68 68 67 66 68 70 71 71 71 71 72 72 73 73 73 73 73 73 73 73 73 73 73 73 73 73 73 74
72 71 71 70 69 69 69 68 67 67 67 66 66 67 68 68 67 67 67 68 70 71 71 72 72 72 71 69 69 72 73 73 73 73 73 73 73 73 73 73 73 73
72 72 71 71 70 69 69 69 68 68 67 68 67 67 68 68 68 67 66 67 69 70 71 71 72 72 68 65 66 68 72 72 72 73 73 73 72 72 72 72 72 72
72 72 72 71 71 70 70 69 69 68 68 68 68 68 68 68 67 67 67 67 68 69 70 71 71 69 65 64 65 65 68 72 72 72 72 72 72 72 72 72 72 72
73 72 72 72 71 71 70 70 69 69 68 68 68 68 68 68 68 67 68 68 68 68 69 70 70 67 64 63 64 64 64 69 71 72 72 72 72 72 72 72 72 72
73 72 72 72 72 71 71 70 70 69 69 68 69 69 68 68 67 67 68 68 68 69 69 69 70 67 63 62 62 62 63 66 71 71 71 71 72 72 72 72 72 71
73 73 72 72 72 72 71 71 70 70 69 69 68 68 68 68 67 67 67 68 68 69 69 69 70 66 62 61 60 60 61 64 70 71 71 71 72 72 72 72 72 72
73 73 72 72 72 72 71 71 70 70 70 69 69 68 68 68 68 67 67 68 68 69 69 69 70 64 61 60 60 59 60 67 70 70 70 71 71 72 72 72 72 71
73 73 72 72 72 71 71 71 71 70 70 70 69 68 68 68 68 67 67 67 68 69 69 69 69 65 60 59 59 59 60 67 69 70 70 70 70 71 72 72 72 72
73 73 73 72 72 71 71 71 71 71 70 70 69 68 68 68 68 68 67 67 67 68 69 69 69 66 59 58 58 58 63 68 69 70 70 70 70 71 71 71 73 75
73 73 73 72 72 72 71 71 71 71 70 70 70 69 68 69 69 69 68 68 67 68 71 69 69 67 59 58 57 57 62 69 70 70 70 71 71 71 71 72 72 74
73 73 73 72 72 72 72 71 71 71 70 70 70 70 69 69 69 69 69 68 68 68 69 70 70 70 66 58 57 56 58 70 71 71 71 71 71 72 72 72 72 72

ECMWFNIL_sfc_dewp_099.txt.gz
Dewpoint
67 67 66 66 65 64 65 66 67 68 69 70 71 71 71 72 73 74 74 74 74 74 74 74 74 74 74 74 75 74 74 73 73 72 71 71 70 69 69 67 66 66
67 67 68 67 66 66 65 66 67 68 69 70 71 71 71 72 73 74 74 74 74 74 73 73 74 74 74 74 74 74 73 73 73 74 72 71 71 70 69 68 69 68
66 67 67 67 66 64 63 66 67 67 68 70 71 71 71 73 73 74 74 74 74 74 73 73 73 73 73 73 74 74 74 73 73 73 73 72 71 71 71 71 70 70
66 66 66 66 66 65 63 65 66 68 69 70 70 71 72 72 73 74 74 76 74 74 74 73 73 73 73 73 73 74 74 73 73 73 73 72 72 72 71 70 71 71
67 66 66 67 67 66 64 64 65 67 70 69 70 71 72 72 73 73 74 74 74 73 74 74 73 73 73 73 73 73 73 73 73 73 73 72 72 72 72 71 70 71
68 67 67 67 67 67 64 63 64 65 69 70 70 72 72 72 73 73 73 74 74 74 73 74 73 73 73 72 73 73 73 73 73 73 72 72 72 73 73 72 71 71
68 67 67 67 67 67 66 65 64 65 66 70 71 71 72 72 72 72 73 73 74 74 73 73 73 73 73 73 73 72 72 73 73 73 72 72 72 72 73 72 72 71
68 67 67 67 67 67 67 67 66 65 65 68 70 71 72 72 72 72 72 72 73 74 73 73 73 73 73 73 73 72 72 73 73 73 72 72 72 72 72 73 72 71
68 68 67 67 67 66 66 67 67 67 66 65 67 70 71 71 71 72 72 72 72 73 73 73 73 73 73 73 73 73 72 72 73 72 72 72 72 72 72 72 72 72
68 68 68 67 67 66 66 66 66 67 68 66 65 66 69 71 71 71 71 72 72 72 73 73 73 73 73 73 73 73 73 72 72 72 72 72 72 72 73 73 72 72
68 68 68 67 67 66 66 66 66 67 68 67 66 65 65 69 71 71 71 71 71 71 72 73 73 73 73 73 73 73 73 73 73 72 72 72 72 72 74 73 73 72
68 68 68 68 67 67 66 66 65 65 67 68 68 66 65 65 68 70 70 70 71 71 71 72 73 73 73 73 73 73 73 73 73 73 73 73 72 72 72 73 73 73
68 68 68 68 68 67 67 66 66 65 65 66 69 68 67 66 66 67 69 70 70 70 71 71 72 73 73 73 73 73 73 73 73 73 73 73 73 73 72 72 72 72
68 68 68 68 68 68 68 67 66 65 65 65 67 68 68 67 66 66 67 69 69 70 70 71 72 72 73 73 73 73 73 73 73 73 73 73 73 73 73 73 72 72
69 69 69 69 69 68 68 67 67 66 66 65 65 66 68 68 68 67 66 67 69 70 70 70 71 72 72 72 73 73 73 73 73 73 73 72 72 72 73 73 73 73
69 69 69 69 69 68 68 68 67 66 66 65 65 65 66 68 68 68 67 66 67 69 70 70 71 71 71 68 69 73 73 73 73 73 73 73 72 72 72 73 73 73
70 70 70 69 69 68 68 68 67 67 66 66 65 65 65 66 68 68 67 67 66 67 69 70 70 70 67 65 65 67 72 73 72 73 73 73 72 72 72 72 72 73
70 70 70 70 69 69 69 68 68 68 67 66 66 65 65 65 66 67 67 67 67 67 68 69 70 68 64 64 64 65 67 73 72 72 72 72 72 72 72 72 72 72
71 71 71 70 70 70 69 69 69 68 67 67 66 66 66 66 66 66 66 67 67 67 67 68 69 67 64 63 63 63 64 69 72 72 72 72 72 72 72 72 72 72
71 71 71 71 71 70 70 69 69 68 68 67 67 67 67 66 66 66 66 67 67 67 67 67 68 66 63 62 62 62 63 65 71 72 72 72 72 72 72 72 72 72
72 72 71 71 71 71 71 70 70 69 69 68 67 67 67 67 66 66 66 67 67 67 67 67 67 64 61 61 60 60 61 63 70 71 71 71 72 72 72 72 72 72
72 72 72 72 72 71 71 71 70 70 69 69 69 68 67 67 68 67 67 67 67 67 67 67 67 62 60 60 59 59 60 66 69 71 71 71 71 71 72 72 72 72
72 72 72 72 72 72 71 71 71 70 70 70 69 68 68 67 67 67 68 67 67 67 67 67 67 64 59 58 58 58 60 67 69 70 71 71 71 71 71 71 72 72
73 73 73 73 72 72 72 72 71 71 71 71 69 69 68 68 68 68 68 68 67 67 67 67 67 65 58 57 57 57 62 67 69 69 70 70 71 71 71 71 72 75
73 73 73 73 72 72 72 72 72 71 71 71 70 69 69 69 69 68 68 68 68 67 69 68 67 65 59 57 56 56 61 68 69 69 69 69 70 70 70 71 71 73
71 73 73 73 73 73 72 72 72 72 71 71 70 70 69 69 69 68 68 68 68 68 68 68 68 68 66 57 56 55 58 68 69 69 69 69 69 69 70 70 70 70

ECMWFNIL_sfc_dewp_102.txt.gz
Dewpoint
68 68 67 67 67 67 68 69 70 71 71 72 73 73 73 74 75 75 75 75 75 75 75 75 76 76 76 76 76 76 76 75 74 73 73 73 72 70 69 69 69 70
68 68 69 68 68 68 67 68 70 71 71 71 72 73 73 74 74 74 75 75 75 75 75 75 75 76 76 75 76 75 75 75 75 74 73 73 73 72 71 70 69 69
68 68 67 67 66 66 65 67 69 70 70 71 71 72 73 73 73 74 75 75 75 75 75 75 75 75 75 75 75 75 75 75 75 74 75 73 73 73 73 71 71 71
68 68 67 67 67 66 66 66 67 68 69 70 70 71 72 72 73 74 74 76 75 75 75 75 74 74 75 75 75 75 75 75 75 75 75 74 74 73 73 73 73 73
67 68 68 67 68 68 66 65 66 67 68 69 70 72 73 73 73 73 74 75 75 75 75 75 74 74 75 75 75 75 75 74 75 75 75 74 74 74 73 73 73 73
68 68 68 68 68 68 66 65 65 66 67 68 69 71 72 72 73 73 74 74 74 74 74 74 74 74 74 74 74 74 74 74 74 74 74 74 74 74 73 74 73 73
67 67 67 67 67 68 67 66 65 67 67 68 70 70 72 72 72 73 73 74 74 75 74 74 75 75 74 74 74 74 74 75 75 74 74 74 74 74 74 74 74 74
67 67 67 67 67 67 67 66 65 66 66 69 69 70 71 71 72 72 73 74 74 75 75 74 75 75 74 74 74 74 73 73 74 74 74 74 74 74 74 74 74 74
68 68 67 67 66 66 66 66 65 65 66 67 68 70 72 72 72 72 73 73 74 74 75 75 74 74 74 74 74 74 73 73 74 74 74 74 73 74 74 74 74 74
68 68 67 66 66 66 66 66 66 66 66 66 67 69 71 72 72 72 73 73 73 74 74 74 74 74 74 74 74 74 74 74 74 74 74 74 74 74 74 74 74 74
67 67 67 67 66 66 66 66 66 66 67 65 65 66 69 71 72 73 72 73 72 73 73 74 74 74 74 74 74 74 74 73 74 74 74 74 74 74 74 74 74 74
68 67 67 67 67 66 66 66 66 66 67 67 65 65 66 69 71 72 72 72 72 72 73 73 74 74 74 74 74 74 74 74 74 74 74 74 74 73 74 74 74 74
67 68 68 67 68 67 67 66 66 65 66 67 68 66 65 65 68 70 72 71 72 72 72 73 73 74 74 74 74 74 74 74 73 73 74 74 74 73 73 73 73 74
68 68 68 68 68 69 68 67 66 66 66 66 68 68 66 65 65 67 69 71 71 71 72 72 73 73 74 74 74 74 74 74 74 73 73 73 74 74 74 73 73 73
69 69 69 69 69 69 69 68 67 67 67 67 67 67 67 67 66 65 66 68 70 71 71 71 71 72 72 73 74 74 74 73 74 74 73 73 73 73 74 74 74 73
69 70 69 70 69 69 69 69 68 68 67 66 66 66 68 69 68 68 66 66 67 69 70 70 71 71 71 68 69 73 74 73 74 74 74 74 74 74 73 73 73 73
69 69 70 70 70 69 69 69 69 68 68 68 67 67 67 68 69 68 68 67 66 67 68 69 70 70 67 65 65 67 72 74 73 74 74 74 73 74 73 73 73 74
69 69 70 70 70 70 70 70 69 69 69 69 68 67 67 67 67 68 69 68 67 67 67 68 69 67 64 64 64 64 67 73 73 73 73 73 73 73 73 73 73 73
69 69 70 70 70 70 70 70 70 69 69 68 67 67 67 67 67 67 68 68 68 68 67 67 68 65 63 62 63 63 64 69 73 73 73 73 73 73 73 74 74 74
69 69 69 70 70 70 70 70 70 69 69 68 68 68 68 67 66 67 67 68 68 68 68 68 68 65 62 61 61 62 63 65 72 72 73 73 73 73 73 73 73 73
70 70 70 70 70 70 70 70 70 70 69 69 68 68 68 68 67 67 67 67 67 67 68 67 67 63 60 60 60 60 61 63 71 72 72 72 73 73 73 73 74 73
70 70 70 70 70 71 70 70 70 70 70 70 69 68 68 68 68 67 67 66 66 66 66 67 67 61 60 59 59 59 60 67 71 72 72 72 72 73 73 74 74 74
71 71 71 71 71 71 71 70 71 71 70 71 70 69 68 68 68 67 68 67 67 67 67 67 66 63 58 57 58 58 60 68 70 71 72 72 72 72 73 73 73 74
73 72 72 72 72 71 71 71 71 71 71 71 70 69 68 68 68 68 68 68 67 67 66 67 67 64 57 56 57 57 62 68 69 70 71 71 72 72 72 73 73 74
73 74 73 72 72 72 72 72 72 72 71 71 70 70 70 70 70 69 68 69 68 67 69 67 67 65 58 56 56 56 61 69 70 70 70 71 71 72 72 73 73 74
72 73 74 73 73 73 73 72 72 72 72 71 71 71 70 70 70 70 69 69 69 68 68 68 68 68 66 56 55 54 57 69 70 70 70 70 71 71 71 72 72 73

ECMWFNIL_sfc_dewp_105.txt.gz
Dewpoint
72 73 71 71 72 72 73 73 73 73 75 73 74 75 75 76 77 77 77 77 77 76 76 77 78 79 78 78 79 78 77 76 75 75 76 75 73 71 69 71 72 71
72 73 73 72 73 73 74 73 74 74 75 75 75 75 77 77 77 77 77 77 77 77 78 78 78 79 79 77 78 78 77 77 77 74 76 76 75 74 70 71 70 71
72 72 71 71 69 70 68 71 73 74 73 73 74 76 75 76 76 77 78 77 76 75 78 78 78 78 78 78 78 78 76 78 76 74 76 75 74 75 74 70 70 71
73 72 70 69 69 70 70 71 72 73 73 74 73 73 74 73 76 76 77 77 77 77 77 77 77 76 78 77 78 76 77 77 76 77 76 76 76 74 73 74 72 71
72 72 71 70 70 71 71 70 69 70 71 72 72 74 75 76 76 75 76 76 77 77 77 77 77 77 78 78 78 77 76 75 76 78 77 76 76 76 73 74 74 72
72 72 72 71 71 71 69 69 69 69 69 70 71 72 73 74 74 74 74 74 74 74 74 75 76 76 76 77 78 77 75 74 74 78 77 76 74 74 72 74 74 73
71 71 71 70 70 70 70 70 70 70 69 69 71 71 72 72 73 74 74 74 73 75 74 75 77 76 76 77 77 77 77 76 76 77 77 75 76 75 74 75 76 75
70 70 70 70 69 69 70 69 69 70 70 71 69 71 72 70 72 72 73 74 73 74 76 75 77 78 75 76 76 76 76 75 76 77 77 76 76 76 76 75 76 76
69 70 70 70 69 68 67 67 68 69 70 70 68 68 71 71 71 71 74 75 74 75 77 76 77 77 76 76 76 76 76 75 74 75 76 75 75 76 75 76 75 76
70 69 68 68 67 67 67 67 66 67 69 68 68 67 69 71 71 72 74 75 74 75 76 76 77 76 76 76 76 76 76 76 76 76 75 75 74 74 74 75 74 75
69 68 68 68 67 66 67 66 66 66 67 67 67 66 67 70 72 73 74 75 73 74 75 76 76 76 76 75 75 76 76 75 76 76 76 76 75 75 75 75 74 74
69 68 68 67 67 66 66 66 66 67 66 67 67 67 68 68 71 71 72 74 74 73 74 76 76 76 77 76 75 75 75 75 75 76 75 76 75 74 74 74 74 74
69 69 68 67 68 67 67 66 66 66 66 66 66 66 66 66 67 70 72 72 74 73 73 74 75 75 76 77 76 76 76 76 73 74 75 75 75 74 73 74 74 73
69 69 69 69 69 70 69 67 66 67 67 67 67 67 66 65 65 67 70 71 72 72 73 74 75 75 76 77 76 75 75 75 75 74 73 74 74 74 73 73 73 73
71 70 70 70 70 71 70 69 68 68 68 68 69 68 65 65 65 65 68 70 71 72 72 73 73 74 74 75 76 76 75 74 74 74 73 73 73 72 73 73 73 73
72 72 71 72 71 71 71 70 69 69 67 68 68 68 68 69 68 67 66 68 70 72 72 72 72 73 73 70 71 75 75 73 74 75 74 73 74 73 72 72 72 72
72 72 72 72 72 71 71 71 70 69 69 70 69 69 69 71 70 68 66 66 66 68 70 70 71 71 68 66 66 68 73 75 74 75 75 74 73 74 73 71 72 73
71 72 72 72 72 72 72 72 70 70 71 71 70 69 71 69 69 69 69 67 66 66 67 68 70 68 64 64 64 64 68 73 73 72 72 73 72 72 72 72 72 72
72 72 73 72 73 72 73 73 72 71 71 70 69 69 69 70 70 69 69 69 68 68 66 66 67 65 63 62 63 63 63 68 70 72 71 71 71 72 72 73 74 74
73 72 72 72 73 73 73 73 72 72 70 69 69 70 70 70 69 70 70 71 70 69 70 68 68 66 61 61 61 61 62 65 71 70 71 70 71 72 71 72 73 73
72 72 72 73 73 73 73 73 72 72 71 70 69 69 70 71 69 69 69 70 69 69 69 69 68 64 60 59 59 59 60 62 70 69 69 71 71 72 74 73 74 73
71 72 72 73 73 73 73 73 73 73 73 72 71 69 70 70 70 69 69 69 69 68 67 68 68 62 60 59 58 58 59 68 72 71 70 70 71 73 73 75 74 74
70 70 72 72 72 72 72 72 73 73 73 73 71 70 69 69 70 69 70 69 69 69 68 69 68 64 59 57 57 57 60 69 72 72 72 72 71 73 74 73 73 74
73 72 72 72 72 72 72 71 71 72 72 72 71 70 69 69 69 70 70 70 69 68 68 68 68 66 57 56 56 56 62 70 71 72 73 73 73 73 73 73 74 74
70 74 73 71 72 71 70 71 71 72 71 72 71 70 70 71 71 70 70 70 69 68 69 68 68 66 58 56 55 55 62 71 72 72 72 73 73 73 74 73 74 74
66 70 74 73 72 72 72 72 73 71 71 71 71 71 70 71 70 71 70 70 69 69 68 68 68 69 69 55 54 54 56 70 72 71 71 72 72 72 73 74 74 75

ECMWFNIL_sfc_dewp_108.txt.gz
Dewpoint
72 73 72 72 72 71 71 71 70 70 72 70 69 72 71 73 74 74 74 75 75 75 77 79 79 79 78 78 79 77 77 77 75 72 74 72 70 69 66 67 69 68
72 73 73 72 72 73 73 72 72 71 72 73 71 72 74 73 74 74 74 74 76 74 76 76 78 78 79 77 78 76 76 76 75 72 74 74 73 71 68 69 67 68
72 71 71 71 69 71 69 71 72 71 70 70 70 72 73 73 74 75 75 74 74 72 75 76 77 78 77 78 79 77 75 76 75 73 74 74 72 73 71 67 67 67
74 72 69 68 68 68 70 70 71 72 70 70 70 69 70 68 72 74 75 75 74 74 74 74 75 75 76 77 78 75 76 77 75 76 75 75 73 72 71 70 69 68
73 72 70 69 68 69 70 70 68 69 69 69 69 71 72 73 73 72 74 75 75 74 74 75 75 75 76 76 77 76 74 74 75 77 76 75 75 73 70 70 70 68
74 74 73 71 70 70 69 70 70 68 69 67 69 69 70 72 72 70 71 72 71 71 71 72 73 73 73 75 76 76 74 72 73 76 76 75 74 73 69 71 71 71
72 73 72 71 70 70 70 70 70 70 67 67 69 69 70 70 71 71 71 71 69 71 70 72 74 73 73 75 76 76 75 75 74 76 76 74 74 74 72 72 72 72
72 72 72 71 69 69 70 69 69 70 70 69 67 70 70 68 70 69 71 70 69 69 71 71 73 75 72 73 75 75 75 73 73 75 76 75 74 74 74 72 73 74
71 71 72 71 69 68 67 66 67 69 70 70 67 66 70 69 68 68 70 72 71 71 72 72 74 74 73 73 73 74 74 73 71 73 74 74 73 73 72 73 73 73
72 71 70 69 68 67 66 66 64 66 69 69 68 65 65 69 68 68 69 73 72 72 73 74 73 73 73 72 73 73 74 74 73 73 73 73 72 72 71 71 72 73
70 69 69 69 67 66 65 65 64 63 66 68 67 65 64 66 70 70 71 72 70 70 72 73 73 73 73 70 70 71 72 71 72 73 73 73 73 73 73 72 72 71
70 69 68 68 68 66 65 65 64 64 64 66 67 66 65 64 68 69 69 71 72 70 70 73 74 73 74 73 69 69 71 70 71 72 71 72 73 72 72 72 72 72
69 70 69 67 68 68 66 66 65 64 63 64 66 66 64 63 64 69 69 69 72 70 68 70 73 72 74 75 73 71 70 72 68 69 70 71 72 71 70 71 71 71
69 70 69 69 69 71 69 67 66 66 66 66 67 67 65 63 62 64 68 69 69 69 69 69 72 73 73 75 74 71 69 71 72 69 67 68 69 70 69 68 69 70
71 70 71 71 70 71 71 69 68 68 68 68 69 67 65 64 63 62 65 68 69 69 69 67 67 71 71 73 74 74 71 68 70 71 69 68 68 67 67 68 67 67
72 73 72 72 71 71 72 71 69 69 67 68 68 68 69 69 68 66 63 64 68 69 69 67 67 68 72 69 70 73 73 67 68 71 71 69 68 68 65 65 65 65
73 73 73 73 73 72 72 72 71 69 69 70 70 70 70 71 69 67 65 64 65 67 69 68 67 66 68 65 66 68 71 72 70 70 72 72 70 70 69 65 63 64
73 74 74 73 74 73 73 73 72 71 71 71 70 70 72 70 69 69 69 66 64 65 67 68 68 66 64 64 65 65 69 71 69 70 69 70 70 68 67 67 65 63
74 73 73 73 74 74 74 74 73 72 71 70 69 70 70 72 72 70 70 69 67 67 66 66 68 65 62 63 64 64 65 68 65 67 67 67 68 68 68 68 68 67
73 72 72 72 73 74 74 73 73 73 71 69 69 71 71 71 70 71 71 72 71 69 69 67 68 66 61 61 62 62 63 66 68 65 65 65 67 67 67 68 69 69
73 73 72 71 73 74 74 74 73 73 72 70 68 69 71 72 71 71 71 72 70 70 69 68 67 63 59 59 60 60 61 64 69 65 64 65 66 67 70 69 70 69
72 72 72 72 73 73 73 73 73 74 74 72 71 68 69 70 71 71 70 70 70 70 69 69 68 62 59 58 58 59 60 69 72 70 68 66 66 68 69 72 72 71
70 71 74 73 71 71 72 72 73 73 73 73 72 70 68 68 70 70 72 70 70 70 70 70 69 65 58 57 57 57 61 70 72 71 71 69 68 69 69 70 71 73
68 70 72 73 73 71 71 71 71 72 71 72 72 71 68 67 69 70 71 71 70 69 69 70 70 66 57 56 56 56 63 71 71 71 72 71 71 70 69 70 72 73
66 68 70 70 72 73 71 71 71 71 71 72 72 71 71 70 70 70 70 71 69 69 70 69 69 67 56 56 56 55 63 72 71 71 71 72 71 71 72 71 72 74
65 67 68 69 70 70 73 74 74 72 71 70 72 72 73 71 70 70 69 70 70 70 69 69 69 70 69 55 55 54 57 72 71 70 71 72 72 72 72 73 72 73

ECMWFNIL_sfc_dewp_111.txt.gz
Dewpoint
72 72 71 71 70 69 69 69 68 70 72 70 70 72 71 73 74 73 72 74 72 76 78 79 78 77 77 78 77 76 76 75 73 71 73 72 71 69 65 66 68 67
71 72 73 71 71 71 70 69 70 69 71 71 70 70 71 72 72 73 73 74 74 73 77 77 78 78 77 77 77 75 76 76 74 69 72 72 71 69 66 67 66 68
71 71 70 70 68 70 66 69 70 69 67 68 70 71 70 71 72 73 73 73 73 71 74 77 78 77 77 77 79 76 76 76 74 71 72 72 70 70 70 65 66 67
73 71 68 68 66 67 68 68 68 70 67 68 67 69 70 67 71 72 73 74 74 73 73 73 75 75 76 76 79 75 75 77 74 75 74 73 72 70 69 69 67 66
73 71 69 68 67 68 69 68 65 66 66 67 66 68 71 72 71 70 72 73 74 73 73 73 73 74 76 76 79 76 74 74 75 76 76 74 74 72 69 69 69 67
74 73 71 69 68 68 66 66 67 64 66 64 66 65 67 70 70 70 71 71 70 70 69 70 71 72 71 75 78 75 74 72 73 75 75 75 73 72 67 68 70 69
72 73 71 68 67 67 66 67 67 67 65 64 67 66 66 67 70 70 70 70 68 70 68 70 72 72 72 74 75 75 75 74 74 75 75 74 74 74 70 70 71 70
71 72 72 70 67 66 67 65 67 67 67 67 64 67 67 65 69 68 69 69 68 69 70 68 72 73 70 71 73 74 74 71 72 75 76 74 74 74 74 71 71 72
71 71 72 70 67 65 64 63 65 67 68 67 64 64 67 67 66 67 69 70 70 70 71 71 72 71 72 71 72 73 74 72 70 71 73 73 73 73 73 73 72 72
72 70 68 68 66 64 63 63 62 65 67 66 64 62 63 68 67 66 67 71 70 70 71 72 71 71 71 71 71 72 73 74 73 73 71 71 71 71 71 71 71 72
70 69 66 67 65 62 62 62 61 60 64 66 65 61 60 64 67 68 69 70 68 69 70 71 71 71 72 70 70 71 72 72 73 73 72 72 72 72 71 71 71 70
71 69 67 66 65 63 61 60 60 59 59 63 64 63 61 59 65 65 66 68 69 70 70 71 72 72 73 72 70 69 70 71 71 71 70 71 71 70 70 70 70 71
69 70 68 65 66 65 62 60 60 59 57 58 62 63 61 58 59 65 66 66 69 69 68 69 71 71 74 74 72 69 69 70 66 67 68 68 69 68 68 69 68 69
71 71 70 69 67 70 67 63 59 59 61 60 60 63 62 60 57 59 64 65 66 67 68 67 70 71 72 73 73 70 68 67 68 66 65 66 66 67 66 65 66 67
72 70 71 71 70 70 69 67 64 64 64 63 62 60 60 61 60 57 61 65 66 67 67 65 64 68 70 71 73 73 70 66 67 67 66 65 65 64 65 65 64 64
73 73 73 73 71 71 72 71 69 66 62 62 62 61 64 65 64 62 59 61 65 67 67 64 63 63 70 68 69 72 72 66 66 68 69 67 66 66 63 62 62 62
73 73 73 73 73 72 72 72 71 69 68 70 67 65 68 70 67 63 60 59 61 65 67 65 64 61 66 64 64 67 70 70 66 68 69 69 66 67 66 62 61 62
72 73 74 73 73 74 73 73 72 72 72 71 68 66 71 66 65 66 67 62 59 60 63 66 66 65 61 63 63 64 68 71 66 64 63 66 67 65 65 64 62 60
73 72 73 73 74 74 74 74 74 73 72 70 68 68 68 71 72 68 67 67 64 64 60 62 65 64 60 61 62 63 64 68 64 64 60 60 64 66 65 66 65 63
74 73 72 73 75 74 74 73 73 73 72 70 69 70 70 70 69 71 70 72 70 68 68 63 65 66 60 60 61 62 63 66 67 60 61 61 63 62 62 64 65 64
72 73 74 73 72 72 74 74 73 73 72 72 68 68 70 71 70 71 71 71 70 69 68 65 63 63 59 58 59 60 62 64 69 62 57 59 61 62 68 64 69 64
71 71 72 73 74 73 72 73 72 74 73 73 72 69 69 69 71 71 71 71 70 70 68 68 65 61 58 58 58 59 61 70 74 70 64 61 60 64 64 69 67 67
68 70 71 72 73 73 73 72 73 73 75 75 75 74 74 75 72 69 73 71 71 71 70 70 68 65 57 56 57 58 62 71 74 73 71 69 66 67 65 63 64 68
68 69 70 70 71 71 72 72 72 73 73 73 73 73 73 72 74 73 73 73 72 71 68 70 69 67 55 55 56 57 64 72 73 73 73 72 71 70 67 65 68 70
69 69 69 69 69 70 71 72 71 72 73 74 74 74 74 74 74 73 73 74 73 73 72 72 70 68 55 54 55 55 64 73 73 72 72 72 72 72 71 70 71 72
66 67 68 66 69 69 71 73 74 72 72 72 72 73 73 74 75 73 73 73 73 73 70 72 73 72 71 53 54 54 58 74 73 71 71 72 72 72 72 73 72 71

ECMWFNIL_sfc_dewp_114.txt.gz
Dewpoint
75 75 74 74 74 73 74 74 72 72 75 72 72 73 73 75 77 75 74 75 76 77 77 79 79 79 79 79 79 79 79 77 75 76 77 76 75 72 67 70 74 79
75 75 75 73 76 76 76 74 73 74 75 77 74 75 75 75 75 74 74 74 76 75 78 77 78 78 78 77 79 77 79 78 76 70 74 75 76 73 69 71 69 73
73 74 72 72 70 71 68 70 73 72 71 71 72 75 73 74 73 77 76 75 74 73 78 78 78 78 77 78 79 77 76 78 76 72 75 75 74 75 74 67 69 69
74 73 71 70 70 70 69 70 72 73 71 72 71 69 70 69 74 74 77 76 76 76 76 76 77 76 77 77 79 77 77 78 76 77 77 76 75 73 71 73 71 69
72 72 72 71 70 72 71 70 67 68 68 71 68 73 74 77 74 73 75 75 77 74 76 76 77 76 78 77 79 78 76 76 77 78 79 77 76 75 71 72 74 72
74 74 73 71 72 72 69 68 69 68 68 66 69 69 69 73 72 71 72 72 71 71 71 72 74 74 75 77 78 78 75 73 75 77 77 77 74 73 69 73 74 74
72 73 71 70 68 69 69 69 69 70 67 66 70 69 69 69 71 72 73 73 71 73 70 73 75 74 74 77 78 78 78 78 77 77 77 76 77 76 71 73 75 74
71 71 72 70 67 67 68 68 68 69 70 69 67 69 69 67 71 69 71 72 71 72 72 72 75 76 72 74 76 77 76 72 74 78 77 76 76 76 76 74 77 76
71 72 72 70 67 65 64 64 65 67 68 69 65 64 68 68 69 69 73 73 72 73 74 74 76 73 73 73 74 76 75 73 71 75 76 75 75 76 75 76 75 76
72 72 70 69 67 65 64 63 63 65 67 67 65 63 65 68 70 69 72 74 73 74 75 73 76 73 72 73 75 75 75 75 76 75 74 75 75 74 73 74 74 75
70 68 67 69 67 64 63 62 62 61 65 65 64 63 63 66 69 71 72 73 69 72 73 73 73 73 74 71 72 73 74 73 74 76 76 75 74 75 74 75 74 73
74 72 67 65 67 65 63 62 61 60 61 64 64 64 64 63 67 67 69 72 71 71 72 73 74 73 75 74 71 71 73 72 74 75 73 74 74 73 73 73 72 73
74 73 72 66 65 66 64 62 61 59 59 62 64 64 62 59 62 67 68 70 71 70 70 72 73 72 75 75 74 73 73 73 70 72 73 73 73 72 71 71 71 71
74 74 74 72 70 68 68 63 61 61 62 63 65 64 62 59 57 62 66 66 69 69 71 71 74 73 75 76 75 73 72 72 72 71 70 70 70 71 70 69 70 70
74 75 75 73 73 73 71 68 65 64 65 64 67 64 61 61 59 56 64 65 66 70 70 70 70 72 72 74 75 74 73 71 71 71 70 70 69 67 67 68 67 66
74 74 73 74 74 74 73 72 70 67 60 62 63 63 66 67 65 63 60 64 66 68 69 68 68 68 72 69 71 74 74 70 70 71 70 69 71 70 67 66 64 64
75 74 73 73 73 74 74 73 72 71 67 69 68 66 68 73 67 65 61 60 64 65 67 66 67 65 68 64 65 68 72 73 72 73 72 71 70 72 71 67 64 65
74 74 74 74 73 73 73 74 74 72 72 70 71 69 73 69 67 67 68 63 59 62 64 65 66 67 62 63 64 64 69 73 72 70 68 70 68 67 68 67 66 64
73 73 73 73 72 73 74 74 74 73 73 73 72 71 72 71 72 72 70 68 66 69 64 65 66 64 60 61 62 63 63 70 70 71 68 65 66 68 68 70 70 68
69 70 72 73 74 74 74 74 74 74 74 74 74 73 72 71 71 71 71 74 71 70 72 69 71 67 59 59 60 61 62 65 71 69 68 67 67 66 64 67 68 68
68 70 71 72 73 73 74 74 73 73 73 74 74 74 71 72 73 73 72 72 72 70 70 67 65 64 58 57 58 59 60 63 71 67 65 65 65 65 69 67 71 68
69 69 70 71 71 72 72 73 73 73 73 74 74 75 73 74 75 73 73 73 74 73 73 71 70 65 61 57 56 57 60 69 71 70 68 66 65 67 68 71 70 69
66 68 68 68 70 71 72 72 72 72 74 74 73 74 73 73 73 73 75 73 73 73 72 75 73 70 64 59 55 55 59 69 71 72 71 70 68 68 68 68 67 69
66 66 67 66 69 70 71 73 73 73 73 74 73 73 74 73 73 73 74 74 72 72 72 73 72 71 63 58 54 55 61 70 71 72 72 72 71 70 69 68 68 71
64 67 66 65 68 70 71 71 73 73 74 75 74 73 73 74 74 73 73 74 73 72 73 73 72 70 61 57 54 53 59 68 72 72 72 72 72 72 72 71 72 72
63 66 66 66 68 68 70 71 71 70 69 71 72 71 72 73 74 73 73 73 72 73 72 71 71 71 70 56 54 53 54 69 72 72 72 72 72 73 72 73 72 72

ECMWFNIL_sfc_dewp_117.txt.gz
Dewpoint
73 75 73 74 74 74 74 74 74 74 74 74 75 74 73 74 74 74 75 76 76 77 76 77 77 77 77 78 78 77 74 73 73 74 73 74 73 72 71 70 70 73
73 74 74 74 74 75 74 74 74 74 74 73 74 74 74 74 74 74 75 75 76 76 77 78 78 77 77 77 77 76 76 75 74 75 74 73 73 72 70 71 70 71
73 73 73 72 73 73 74 73 73 74 74 74 74 73 74 74 75 74 75 75 75 75 76 78 77 77 77 77 77 76 76 76 74 72 73 73 74 73 72 70 69 70
73 73 72 72 71 72 71 72 73 72 73 72 73 73 73 73 74 74 74 76 75 75 77 77 77 76 77 77 77 76 76 76 75 74 73 73 73 72 72 71 72 69
73 73 72 72 71 72 71 70 71 71 70 71 72 72 72 73 73 74 75 75 74 75 77 76 76 76 76 76 77 75 76 76 76 75 75 73 73 73 72 71 70 71
72 72 73 72 71 71 70 70 70 70 69 71 70 73 70 75 72 72 75 74 74 75 75 75 75 76 76 76 77 76 75 75 75 75 75 74 74 72 71 72 70 69
71 72 72 72 71 71 70 69 70 70 68 69 70 70 70 74 72 72 73 73 72 73 73 74 75 75 76 76 77 76 76 75 74 75 74 75 75 74 71 71 72 71
71 71 71 71 70 69 71 69 69 70 69 68 69 69 69 70 71 71 72 72 71 72 72 72 74 74 74 75 76 77 76 76 75 75 75 75 75 74 75 75 75 71
72 72 72 71 69 68 68 68 69 68 70 68 68 68 69 68 70 70 72 72 72 72 72 73 73 73 73 74 75 76 76 74 74 74 75 74 75 74 74 74 74 74
72 72 71 70 69 68 66 65 66 67 68 69 68 66 68 69 70 69 71 72 72 72 72 71 73 73 73 73 74 75 75 74 74 74 75 74 74 74 74 74 73 73
72 72 72 71 69 68 66 65 64 64 67 66 67 66 66 67 71 69 71 72 71 71 73 71 73 73 72 72 73 74 74 74 73 74 74 74 74 74 76 74 74 73
74 73 71 71 71 71 68 65 64 63 64 66 65 65 65 65 68 69 70 71 71 70 72 73 72 73 72 72 72 73 74 74 73 73 74 74 74 74 74 74 73 73
73 74 74 72 72 71 70 70 70 67 62 65 65 64 64 63 65 68 70 71 71 70 70 72 72 71 73 74 72 71 72 73 73 73 73 73 74 73 73 73 73 73
74 74 73 72 73 73 72 71 70 70 68 67 66 65 64 63 62 65 67 70 70 69 70 71 72 72 71 73 74 73 72 71 71 72 72 72 72 72 72 71 72 72
74 74 73 73 73 72 72 70 70 70 70 69 68 67 67 64 62 63 65 67 70 70 69 70 71 72 72 72 72 72 72 72 71 71 71 71 71 71 71 70 70 70
73 73 72 72 72 72 71 71 70 71 71 71 71 70 69 68 68 66 64 65 67 69 69 69 70 72 73 70 72 72 72 71 72 71 71 70 70 70 69 69 69 68
73 73 72 72 72 72 72 73 72 72 71 71 72 71 70 70 70 68 67 64 65 66 68 68 68 70 70 66 67 69 72 72 71 71 71 70 69 69 69 67 67 67
72 73 72 72 73 72 72 73 73 72 71 71 72 72 71 69 68 68 69 69 65 64 66 67 68 69 65 64 65 65 70 73 72 71 71 70 68 67 68 68 67 66
70 71 72 73 73 74 74 74 74 73 73 73 73 73 73 71 68 67 68 71 71 66 64 66 67 66 63 62 63 63 64 70 72 71 70 70 69 68 67 67 68 67
69 70 71 71 72 72 73 73 73 73 75 75 75 74 72 72 70 68 69 70 71 72 71 70 69 67 61 60 60 61 62 66 71 71 71 70 69 68 67 67 67 67
68 68 69 70 71 71 72 72 73 72 73 74 75 74 72 71 73 72 72 73 72 71 71 71 70 64 61 59 57 57 59 63 69 70 69 70 69 68 67 67 67 67
69 68 68 70 70 71 71 71 72 72 72 74 74 74 75 74 74 73 73 72 72 72 72 70 70 64 63 61 58 57 58 63 66 69 69 68 68 68 67 66 66 67
68 69 68 68 70 70 70 71 72 71 72 73 73 74 74 73 73 74 74 74 73 73 72 71 71 67 62 61 59 57 59 63 64 67 69 69 67 67 66 65 66 66
67 68 68 68 69 69 70 70 71 72 72 71 71 72 72 73 74 74 74 74 74 73 72 72 71 70 65 62 58 57 62 64 64 65 67 69 69 68 66 65 65 72
64 65 64 68 69 70 70 70 70 69 68 67 68 68 70 72 72 71 72 73 74 73 75 73 72 70 65 63 61 55 60 64 66 66 66 67 68 69 68 68 66 69
61 63 64 65 69 69 70 70 70 69 69 68 67 65 67 70 72 72 71 71 71 72 73 74 73 72 71 63 59 56 56 66 66 66 67 67 68 69 69 69 69 68